[[[{"header":{"parameterUnit":"kt","parameterCategory":2,"dx":1,"dy":1,"la1":29.285339999999998,"la2":30.599998999999997,"lo1":-89.70041500000002,"lo2":-87.6738589999976,"nx":112,"ny":82,"refTime":"2022-10-23T00:00:00:Z","depth":0,"parameterNumber":1,"parameterNumberName":"U-component_of_WINDS"},"data":[8.1306,8.0878,0.0,7.4206,7.0639,0.0,6.4253,0.0,5.1695,5.2836,5.0482,4.7842,0.0,0.0,0.0,0.0,0.0,0.0,0.0,3.3027,0.0,0.0,0.0,0.0,0.0,0.0,0.0,0.0,0.0,0.0,0.0,0.0,8.5979,8.8018,9.41,9.7816,9.8769,10.0183,10.0906,10.0939,10.2452,10.3175,10.3175,10.3734,10.3997,10.3997,10.3997,10.3997,10.3997,10.3997,10.3997,10.3997,10.3997,10.3997,10.3997,10.3997,10.3997,10.3997,10.3997,10.3997,10.3997,10.3997,10.3997,10.3997,10.3997,10.3997,10.3898,10.3339,10.3569,10.3865,10.3306,10.3602,10.3997,10.3997,10.3997,10.3997,10.3997,10.3997,10.3997,10.3997,10.3997,10.3997,10.3997,10.3997,10.3997,10.3997,10.3997,10.3997,10.3997,10.3997,10.3997,10.3997,10.3997,10.3997,10.3997,10.4418,10.5174,10.6113,10.7143,10.8572,11.0528,11.106,11.1767,11.2736,11.2736,11.2736,11.2736,11.2736,11.2736,11.2736,11.2736,11.2736,0.0,0.0,7.1637,6.6928,0.0,0.0,5.6475,4.9911,4.4559,4.4024,4.3097,4.2381,0.0,0.0,0.0,0.0,0.0,0.0,0.0,0.0,0.0,0.0,0.0,0.0,0.0,0.0,0.0,0.0,0.0,0.0,0.0,8.3776,9.0221,9.1667,9.6336,9.9295,10.0282,10.1728,10.2452,10.2452,10.3504,10.3997,10.3997,10.3997,10.3997,10.3997,10.3997,10.3997,10.3997,10.3997,10.3997,10.3997,10.3997,10.3997,10.3997,10.3997,10.3997,10.3997,10.3997,10.3997,10.3997,10.3997,10.3997,10.3997,10.3997,10.3997,10.3997,10.3997,10.3997,10.3997,10.3997,10.3997,10.3997,10.3997,10.3997,10.3997,10.3997,10.3997,10.3997,10.3997,10.3997,10.3997,10.3997,10.3997,10.3997,10.3997,10.3997,10.3997,10.3997,10.3997,10.3997,10.3997,10.3997,10.3997,10.3997,10.3997,10.4451,10.5391,10.5904,10.7027,10.9039,10.9603,11.0458,11.199,11.199,11.2211,11.2736,11.2736,11.2736,11.2736,11.2736,11.2736,6.5787,0.0,6.2005,5.7357,5.5084,5.2372,4.6272,4.4738,4.4167,4.2669,4.2312,4.2276,4.2347,0.0,0.0,0.0,0.0,0.0,0.0,0.0,4.0772,0.0,0.0,0.0,0.0,0.0,0.0,0.0,0.0,0.0,8.6571,9.216,9.5974,9.7388,10.0183,10.1695,10.1728,10.3241,10.3997,10.3997,10.3997,10.3997,10.3997,10.3997,10.3997,10.3997,10.3997,10.3997,10.3997,10.3997,10.3997,10.3997,10.3997,10.3997,10.3997,10.3997,10.3997,10.3997,10.3997,10.3997,10.3997,10.3997,10.3997,10.3997,10.3997,10.3997,10.3997,10.3997,10.3997,10.3997,10.3997,10.3997,10.3997,10.3997,10.3997,10.3997,10.3997,10.3997,10.3997,10.3997,10.3997,10.3997,10.3997,10.3997,10.3997,10.3997,10.3997,10.3997,10.3997,10.3997,10.3997,10.3997,10.3997,10.3997,10.3997,10.3997,10.3997,10.3997,10.5391,10.6233,10.6233,10.7648,10.9111,11.0629,11.0629,11.1351,11.2736,11.2736,11.2736,11.2736,11.2736,11.2736,5.8152,5.7795,5.6011,5.3585,5.2658,5.1588,4.8733,4.4524,4.142,4.2205,4.1115,0.0,0.0,0.0,0.0,0.0,0.0,3.9546,3.8624,3.8826,4.4455,0.0,0.0,0.0,0.0,0.0,0.0,0.0,0.0,0.0,8.6702,9.3081,9.7454,9.8901,10.0709,10.2221,10.3372,10.38,10.3997,10.3997,10.3997,10.3997,10.3997,10.3997,10.3997,10.3997,10.3997,10.3997,10.3997,10.3997,10.3997,10.3997,10.3997,10.3997,10.3997,10.3997,10.3997,10.3997,10.3997,10.3997,10.3997,10.3997,10.3997,10.3997,10.3997,10.3997,10.3997,10.3997,10.3997,10.3997,10.3997,10.3997,10.3997,10.3997,10.3997,10.3997,10.3997,10.3997,10.3997,10.3997,10.3997,10.3997,10.3997,10.3997,10.3997,10.3997,10.3997,10.3997,10.3997,10.3997,10.3997,10.3997,10.3997,10.3997,10.3997,10.3997,10.3997,10.3997,10.5391,10.7143,10.9252,10.9708,11.0693,11.2083,11.2118,11.2338,11.2736,11.2736,11.2736,11.2736,11.2736,11.2736,5.0767,5.0339,4.8912,4.802,4.8305,4.8377,4.6808,4.4096,4.1924,4.193,0.0,0.0,0.0,0.0,0.0,0.0,4.1455,0.0,4.4091,4.5439,5.0963,6.372,0.0,0.0,0.0,0.0,0.0,0.0,9.2917,9.3607,9.216,9.6566,9.9558,10.0413,10.186,10.3076,10.3997,10.3997,10.3997,10.3997,10.3997,10.3997,10.3997,10.3997,10.3997,10.3997,10.3997,10.3997,10.3997,10.3997,10.3997,10.3997,10.3997,10.3997,10.3997,10.3997,10.3997,10.3997,10.3997,10.3997,10.3997,10.3997,10.3997,10.3997,10.3997,10.3997,10.3997,10.3997,10.3997,10.3997,10.3997,10.3997,10.3832,10.3175,10.3537,10.3832,10.3175,10.3537,10.3997,10.3997,10.3997,10.3997,10.3997,10.3997,10.3997,10.3997,10.3997,10.3997,10.3997,10.3997,10.3997,10.3997,10.3997,10.3997,10.3997,10.3997,10.3997,10.3997,10.5391,10.691,10.8715,10.9252,11.0358,11.1767,11.1897,11.2118,11.2736,11.2736,11.2736,11.2736,11.2736,11.2736,4.4524,4.3275,4.2167,4.2345,4.3241,4.374,4.2529,0.0,4.49,4.2955,0.0,4.5435,4.4388,0.0,0.0,4.3813,4.547,4.83,5.2114,5.6618,6.1287,6.612,7.1249,0.0,0.0,8.6637,9.4035,9.9164,10.1038,10.1301,9.9854,10.1301,10.2156,10.2156,10.3504,10.4227,10.4227,10.4096,10.3997,10.3997,10.3997,10.3997,10.3997,10.3997,10.3997,10.3997,10.3997,10.3997,10.3997,10.3997,10.3997,10.3997,10.3997,10.3997,10.3997,10.3997,10.3997,10.3997,10.3997,10.3997,10.3997,10.3997,10.3997,10.3997,10.3997,10.3997,10.3997,10.3997,10.3997,10.3997,10.3997,10.3997,10.3668,10.2254,10.3011,10.3635,10.2221,10.3043,10.3997,10.3997,10.3997,10.3997,10.3997,10.3997,10.3997,10.3997,10.3997,10.3997,10.3997,10.3997,10.3997,10.3997,10.3997,10.3997,10.3997,10.3997,10.3997,10.3997,10.5391,10.6233,10.6319,10.7761,10.9218,11.0828,11.0828,11.1482,11.2736,11.2736,11.2736,11.2736,11.2736,11.2736,4.3168,4.1598,4.0671,4.2026,4.1258,4.041,0.0,0.0,0.0,4.9601,5.4049,5.6917,5.3349,5.2391,5.2441,5.3398,5.4911,5.6289,5.7144,6.9803,0.0,8.976,9.17,0.0,9.4824,9.6763,9.8375,9.946,10.2057,10.2879,10.1334,10.38,10.5246,10.5246,10.5542,10.5707,10.5707,10.4589,10.3997,10.3997,10.3997,10.3997,10.3997,10.3997,10.3997,10.3997,10.3997,10.3997,10.3997,10.3997,10.3997,10.3997,10.3997,10.3997,10.3997,10.3997,10.3997,10.3997,10.3997,10.3997,10.3997,10.3997,10.3997,10.3997,10.3997,10.3997,10.3997,10.3997,10.3997,10.3997,10.3997,10.3997,10.3931,10.3635,10.38,10.3931,10.3602,10.38,10.3997,10.3997,10.3997,10.3997,10.3997,10.3997,10.3997,10.3997,10.3997,10.3997,10.3997,10.3997,10.3997,10.3997,10.3997,10.3997,10.3997,10.3997,10.3997,10.3997,10.5391,10.6675,10.7839,10.9358,11.0792,11.2303,11.2303,11.243,11.2736,11.2736,11.2736,11.2736,11.2736,11.2736,4.1313,3.9921,3.9003,4.0372,4.0446,0.0,0.0,4.5247,4.9153,5.2568,5.5943,5.8822,6.0733,6.0791,6.1057,6.2569,6.4049,6.7074,7.2926,8.4269,9.2522,9.4002,9.6698,9.9328,10.1564,10.1794,10.2386,10.3832,10.5312,10.5838,10.5049,10.6397,10.7219,10.7219,10.6496,10.6101,10.6101,10.472,10.3997,10.3997,10.3997,10.3997,10.3997,10.3997,10.3997,10.3997,10.3997,10.3997,10.3997,10.3997,10.3997,10.3997,10.3997,10.3997,10.3997,10.3997,10.3997,10.3997,10.3997,10.3997,10.3997,10.3997,10.3997,10.3997,10.3997,10.3997,10.3997,10.3997,10.3997,10.3997,10.3997,10.3997,10.38,10.3011,10.3438,10.38,10.3011,10.3438,10.3997,10.3997,10.3997,10.3997,10.3997,10.3997,10.3997,10.3997,10.3997,10.3997,10.3997,10.3997,10.3997,10.3997,10.3997,10.3997,10.3997,10.3997,10.3997,10.3997,10.5391,10.6438,10.719,10.8681,11.012,11.1673,11.2394,11.2736,11.2736,11.2736,11.2736,11.2736,11.2736,11.2736,3.9462,3.8647,3.8067,3.925,4.0495,0.0,4.3177,4.629,5.0583,5.6185,5.9386,6.2934,6.8541,6.9803,7.0493,7.194,7.3715,7.8746,8.9793,9.6336,9.8342,9.4035,9.7848,10.1794,10.4194,10.4654,10.5805,10.814,10.8304,10.8436,10.8699,10.8962,10.9126,10.9126,10.7449,10.6529,10.6529,10.4852,10.3997,10.3997,10.3997,10.3997,10.3997,10.3997,10.3997,10.3997,10.3997,10.3997,10.3997,10.3997,10.3997,10.3997,10.3997,10.3997,10.3997,10.3997,10.3997,10.3997,10.3997,10.3997,10.3997,10.3997,10.3997,10.3997,10.3997,10.3997,10.3997,10.3997,10.3997,10.3997,10.3997,10.3997,10.3701,10.2419,10.3109,10.3668,10.2386,10.3109,10.3997,10.3997,10.3997,10.3997,10.3997,10.4227,10.4424,10.4424,10.4654,10.4852,10.4852,10.4852,10.4852,10.4852,10.4852,10.4852,10.4852,10.4589,10.4424,10.4424,10.5215,10.5783,10.6113,10.719,10.8537,11.0155,11.1542,11.243,11.2736,11.243,11.243,11.2736,11.2736,11.2736,3.8138,3.8357,3.9249,4.0754,4.1454,0.0,4.5379,5.4688,6.3332,6.533,7.4993,8.2235,7.9173,7.9666,8.1014,8.2461,8.5091,9.0056,9.8966,10.0939,10.1728,10.2452,10.4227,10.5509,10.5838,10.7055,10.7975,10.8271,10.8304,10.8863,11.0112,11.1362,11.2052,11.2052,10.9455,10.8074,10.8074,10.5378,10.3997,10.3997,10.3997,10.3997,10.3997,10.3997,10.3997,10.3997,10.3997,10.3997,10.3997,10.3997,10.3997,10.3997,10.3997,10.3997,10.3997,10.3997,10.3997,10.3997,10.3997,10.3997,10.3997,10.3997,10.3997,10.3997,10.3997,10.3997,10.3997,10.3997,10.3997,10.3997,10.3997,10.3997,10.3964,10.38,10.3865,10.3964,10.38,10.3898,10.3997,10.3997,10.3997,10.3997,10.3997,10.5049,10.5871,10.5871,10.6989,10.7844,10.7844,10.7844,10.7844,10.7844,10.7844,10.7844,10.7844,10.6627,10.5871,10.5871,10.4786,10.4863,10.6113,10.6353,10.7109,10.8537,11.0052,11.1447,11.2736,11.1482,11.1482,11.2736,11.2736,11.2736,3.8816,3.8962,3.9594,4.1689,0.0,0.0,4.5447,5.3827,6.1616,6.2997,7.4373,8.4039,8.3941,8.782,9.1536,9.3015,9.5744,9.8933,10.2517,10.3734,10.449,10.5148,10.6496,10.7712,10.8534,10.9159,10.9882,11.0704,10.7679,10.7515,11.1428,11.2217,11.2513,11.2513,11.0573,10.9126,10.8304,10.6266,10.4819,10.3997,10.3997,10.3997,10.3997,10.3997,10.3997,10.3997,10.3997,10.3997,10.3997,10.3997,10.3997,10.3997,10.3997,10.3997,10.3997,10.3997,10.3997,10.3997,10.3997,10.3997,10.3997,10.3997,10.3997,10.3997,10.3997,10.3997,10.3997,10.3997,10.3997,10.3997,10.3997,10.3997,10.3997,10.3997,10.3997,10.3997,10.3997,10.3997,10.426,10.5082,10.5937,10.6496,10.6496,10.7022,10.7383,10.7383,10.791,10.8304,10.8304,10.8304,10.8304,10.8304,10.8304,10.8304,10.8304,10.7745,10.7383,10.7383,10.6825,10.673,10.7387,10.6556,10.6752,10.8318,10.8126,10.8681,11.0186,11.2233,11.3468,11.4092,11.3164,11.2736,3.9337,0.0,0.0,0.0,0.0,0.0,4.6839,5.4645,6.224,6.4871,7.6313,8.6735,8.9694,9.4791,9.9032,10.0545,10.2912,10.4589,10.4589,10.5838,10.6726,10.6726,10.8008,10.929,11.031,11.077,11.1428,0.0,10.8699,10.8173,11.2315,11.2513,11.2513,11.2513,11.1132,10.9915,10.8896,10.7055,10.5608,10.4589,10.4194,10.3997,10.3997,10.3997,10.3997,10.3997,10.3997,10.3997,10.3997,10.3997,10.3997,10.3997,10.3997,10.3997,10.3997,10.3997,10.3997,10.3997,10.3997,10.3997,10.3997,10.3997,10.3997,10.3997,10.3997,10.3997,10.3997,10.3997,10.3997,10.3997,10.3997,10.3997,10.3997,10.3997,10.3997,10.3997,10.3997,10.4622,10.5509,10.6529,10.7581,10.8304,10.8304,10.8633,10.8764,10.837,10.8633,10.8896,10.8896,10.8896,10.9027,10.9422,10.9488,10.9488,10.9488,10.9126,10.8896,10.8896,10.8501,10.8304,10.8304,10.7285,10.7391,10.8818,10.835,10.8683,11.0216,11.3518,11.5101,11.516,11.4337,11.3806,0.0,0.0,0.0,4.3862,4.4782,4.6583,5.0733,6.0629,7.0526,7.6214,8.6702,9.5744,9.8638,10.0479,10.2057,10.3635,10.5082,10.6068,10.6068,10.7318,10.8238,10.8238,10.9488,11.0375,11.0408,11.1658,11.248,11.2513,11.2381,11.2348,11.2513,11.2513,11.2513,11.2513,11.1132,11.0408,11.0343,10.7548,10.6101,10.6035,10.4654,10.3997,10.3997,10.3997,10.3997,10.3997,10.3997,10.3997,10.3997,10.3997,10.3997,10.3997,10.3997,10.3997,10.3997,10.3997,10.3997,10.3997,10.3997,10.3997,10.3997,10.3997,10.3997,10.3997,10.3997,10.3997,10.3997,10.3997,10.3997,10.3997,10.3997,10.3997,10.3997,10.3997,10.3997,10.3997,10.3997,10.62,10.8205,10.8238,10.8271,10.8304,10.8304,10.9422,10.9882,10.8501,10.9488,11.0343,11.0343,11.0343,11.0869,11.225,11.2414,11.2414,11.2414,11.1132,11.0343,11.0343,10.906,10.8304,10.8304,10.8271,10.8915,11.0457,11.1975,11.347,11.5013,11.5152,11.5325,11.529,11.6627,11.6482,4.5061,4.5291,4.6271,5.5002,5.3428,5.2146,6.132,6.9408,7.5556,7.7562,8.9464,9.8638,9.581,9.9624,10.3701,10.5181,10.5805,10.6463,10.7416,10.8797,10.9718,10.9718,10.967,11.0192,11.1648,11.0939,11.1021,11.2371,10.8995,0.0,11.2315,10.8929,10.86,11.2414,11.0598,10.9235,10.8184,10.7746,10.7088,10.6101,10.4687,10.3997,10.3997,10.3997,10.3997,10.3997,10.3997,10.3997,10.3997,10.3997,10.3997,10.3997,10.3997,10.3997,10.3997,10.3997,10.3997,10.3997,10.3997,10.3997,10.3997,10.3997,10.3997,10.3997,10.3997,10.3997,10.3997,10.3997,10.3997,10.3997,10.3997,10.3997,10.3997,10.3997,10.4918,10.5739,10.5476,10.7679,10.9718,10.9718,11.0474,11.1099,11.1099,11.1493,11.1658,11.1197,11.1493,11.1822,11.1822,11.1822,11.2019,11.248,11.2513,11.2513,11.2513,11.2085,11.1822,11.1822,11.1362,11.1099,11.1099,11.0211,11.0405,11.2006,11.162,11.4168,11.9823,11.8758,11.826,11.8225,11.765,11.716,4.9181,4.9926,5.1316,6.2818,6.0346,5.8065,6.9704,7.526,7.8976,8.2658,9.3147,10.0709,9.7618,10.1268,10.5049,10.597,10.6989,10.7975,10.8929,11.0277,11.1165,11.1165,11.0678,11.1053,11.2371,11.1199,11.0695,11.1377,10.8021,10.7109,11.0089,10.6716,10.6857,11.1247,11.0037,10.9137,10.9074,10.8988,10.8337,10.689,10.5444,10.449,10.3997,10.3997,10.3997,10.3997,10.3997,10.3997,10.3997,10.3997,10.3997,10.3997,10.3997,10.3997,10.3997,10.3997,10.3997,10.3997,10.3997,10.3997,10.3997,10.3997,10.3997,10.3997,10.3997,10.3997,10.3997,10.3997,10.3997,10.3997,10.3997,10.4391,10.4753,10.4753,10.6068,10.7351,10.7614,10.9521,11.1165,11.1165,11.1493,11.1789,11.1789,11.1362,11.0836,11.031,11.0671,11.1,11.1,11.146,11.1789,11.1789,11.2217,11.2315,11.1822,11.225,11.2513,11.2513,11.2052,11.1789,11.1789,11.0902,11.1506,11.3596,11.3278,11.5791,12.1249,12.082,12.0585,12.0549,11.955,11.9087,5.1608,5.4611,5.7621,6.7637,6.5824,6.4575,7.6148,7.8779,8.1606,9.1536,9.798,10.2254,10.3832,10.5213,10.6167,10.6298,10.8633,11.0441,11.0507,11.1691,11.2513,11.2513,11.2513,11.2338,11.2338,11.2338,11.1377,10.9252,10.91,10.8145,10.6274,10.6112,10.7044,10.9252,10.91,11.0218,11.2513,11.1024,10.9612,10.8271,10.6825,10.5378,10.3997,10.3997,10.3997,10.3997,10.3997,10.3997,10.3997,10.3997,10.3997,10.3997,10.3997,10.3997,10.3997,10.3997,10.3997,10.3997,10.3997,10.3997,10.3997,10.3997,10.3997,10.3997,10.3997,10.4063,10.4128,10.4128,10.4161,10.4227,10.4227,10.5213,10.6233,10.6298,10.7318,10.8699,11.0211,11.1592,11.2513,11.2414,11.1329,11.0408,11.031,10.9258,10.791,10.6463,10.7416,10.8304,10.8304,10.9488,11.031,11.031,11.1493,11.1756,11.0408,11.1592,11.2414,11.2414,11.123,11.054,11.054,11.054,11.2071,11.5151,11.6595,11.7992,11.9605,12.1183,12.1986,12.1986,12.1986,12.2083,5.5737,5.8796,6.2092,7.8218,7.7858,7.6609,8.8215,9.0023,9.124,9.8079,10.1597,10.3865,10.5312,10.5871,10.6825,10.8962,10.9948,11.077,11.1855,11.2282,11.2513,11.2513,11.1053,11.0069,11.0069,10.864,10.755,10.6885,10.6885,10.6725,10.6112,10.6112,10.7044,10.9252,10.7676,10.8826,11.2513,11.0517,10.9121,10.8271,10.6825,10.5378,10.3997,10.3997,10.3997,10.3997,10.3997,10.3997,10.3997,10.3997,10.3997,10.3997,10.3997,10.3997,10.3997,10.3997,10.3997,10.3997,10.3997,10.3997,10.3997,10.3997,10.3997,10.3997,10.3997,10.472,10.5575,10.5575,10.6364,10.7219,10.7219,10.7482,10.791,10.86,10.8534,10.8962,11.146,11.2282,11.2217,11.1165,11.0671,11.008,10.9027,10.9422,10.9389,10.7975,10.8074,10.8304,10.8304,10.86,10.883,10.883,10.9159,10.9225,10.8863,11.0145,11.0934,11.0934,11.1592,11.1987,11.1987,11.1987,11.2932,11.4972,11.5345,11.6395,11.8027,11.9605,12.0317,12.0317,12.152,12.2083,5.4687,6.0361,6.7045,8.1182,8.131,8.1343,9.4232,9.5087,9.4955,10.1367,10.3405,10.4457,10.5838,10.666,10.7811,11.0047,11.0934,11.1625,11.2414,11.2513,11.2195,11.1199,11.0069,10.8915,10.7989,10.6885,10.5787,10.4799,10.4633,10.4298,10.3314,10.3174,10.4298,10.6342,10.5264,10.6725,11.1053,10.9887,10.9623,11.0145,10.8074,10.6003,10.3997,10.3997,10.3997,10.3997,10.3997,10.3997,10.3997,10.3997,10.3997,10.3997,10.3997,10.3997,10.3997,10.3997,10.3997,10.4096,10.472,10.4918,10.5049,10.5674,10.5904,10.5904,10.5904,10.6463,10.7088,10.7088,10.7679,10.8304,10.8304,10.8764,10.9356,10.9882,11.008,11.0408,11.1395,11.1592,11.1362,11.0573,10.9915,10.9027,10.7581,10.8008,10.8238,10.7482,10.7877,10.8534,10.9159,10.8699,10.8304,10.8304,10.8304,10.8041,10.7383,10.8666,10.9751,11.0375,11.0573,11.0934,11.1559,11.1592,11.2293,11.3959,11.4565,11.5291,11.6304,11.7992,11.9019,11.9748,12.0666,12.1385,5.1578,6.0103,7.0559,7.9666,8.1244,8.371,9.5678,9.6435,9.6369,10.2715,10.4161,10.472,10.6134,10.7614,10.906,11.0474,11.1724,11.2513,11.2513,11.2338,11.1377,10.9403,10.8915,10.7989,10.5919,10.5623,10.4799,10.2515,10.2342,10.1527,9.9552,9.9552,10.0699,10.3174,10.3344,10.5398,10.9587,10.9737,11.0597,11.2217,10.9586,10.6792,10.3997,10.3997,10.3997,10.3997,10.3997,10.3997,10.3997,10.3997,10.3997,10.403,10.4227,10.4293,10.4326,10.4523,10.4556,10.4753,10.6003,10.6397,10.6627,10.7877,10.8304,10.8304,10.8304,10.8436,10.86,10.86,10.8731,10.8863,10.8863,10.9784,11.0704,11.0704,11.1658,11.2184,11.0967,11.0704,11.0638,11.0441,10.9422,10.8107,10.666,10.6266,10.6101,10.6101,10.7186,10.8534,10.9948,10.8896,10.8008,10.8008,10.7844,10.7219,10.5937,10.7186,10.8534,10.9751,10.906,10.9126,11.0375,11.0573,11.1263,11.2696,11.3904,11.4542,11.4542,11.6304,11.7723,11.913,11.9496,12.0423,5.2344,5.8656,6.6547,7.7661,8.7294,9.3739,9.2686,9.7454,10.2484,10.3734,10.495,10.62,10.7646,10.9093,11.0507,11.1921,11.2381,11.2513,11.2513,11.1053,10.9737,10.9252,10.7676,10.5756,10.3654,10.3314,10.2515,10.0219,10.0038,9.9887,9.9552,9.9552,10.135,10.5459,10.5623,10.7708,11.1876,11.202,11.1605,11.077,10.9093,10.6792,10.3997,10.3997,10.3997,10.3997,10.3997,10.3997,10.3997,10.3997,10.3997,10.4128,10.5279,10.5739,10.5904,10.712,10.7581,10.7614,10.7844,10.7942,10.7975,10.8238,10.8304,10.8304,10.8304,10.9126,11.0047,11.0047,11.0902,11.1789,11.1789,11.1954,11.2151,11.2151,11.2348,11.248,11.2217,11.2151,11.1822,11.0638,11.0211,10.9586,10.8173,10.6923,10.6101,10.6101,10.6331,10.7022,10.8468,10.7383,10.6496,10.6496,10.5444,10.4654,10.4391,10.5674,10.6594,10.6825,10.8863,11.0178,11.0408,11.1559,11.2292,11.2506,11.2877,11.3009,11.3009,11.4575,11.542,11.5734,11.8499,11.9856,5.6618,5.8985,6.1484,7.0066,7.8647,8.6867,9.3837,9.752,10.0314,10.3372,10.2715,10.2945,10.7482,10.9455,11.0869,11.2282,11.2513,11.2195,11.1053,10.9887,10.8423,10.6211,10.5099,10.3485,10.135,10.1025,10.0699,9.9552,9.9552,10.0038,10.1203,10.1203,10.2658,10.6112,10.4965,10.6565,11.0727,10.9769,10.9928,11.1493,10.9323,10.7581,10.62,10.4687,10.3997,10.3997,10.3997,10.4424,10.5082,10.5082,10.5575,10.6298,10.6989,10.7252,10.7351,10.8041,10.8304,10.8403,10.9159,10.9389,10.9521,11.0277,11.0507,11.0507,11.0507,11.0967,11.1493,11.1493,11.2019,11.2513,11.2513,11.2513,11.2513,11.2513,11.1954,11.1428,11.1428,11.1428,11.123,11.054,11.0408,11.0211,10.9521,10.7581,10.6101,10.6101,10.6101,10.666,10.814,10.6397,10.5279,10.6035,10.4852,10.3997,10.3997,10.4622,10.5345,10.6068,10.8107,10.9652,11.0375,11.1789,11.2513,11.2513,11.2513,11.2513,11.2513,11.3359,11.4076,11.4902,11.645,11.7689,5.8788,5.8426,5.7703,6.5364,6.9309,7.5655,9.2095,9.4593,9.5415,10.255,10.1728,10.1465,10.7252,10.9718,11.123,11.2348,11.2195,11.1199,10.9554,10.8454,10.6694,10.3143,10.2342,10.135,9.9734,9.9552,9.9552,9.9552,9.9552,10.0219,10.2023,10.2198,10.3174,10.5295,10.3824,10.4602,10.8608,10.6885,10.7862,0.0,10.8834,10.7663,10.7745,10.5181,10.4194,10.449,10.4786,10.5575,10.6594,10.6594,10.7285,10.8337,10.8633,10.8764,10.8797,10.9093,10.9225,10.9389,11.0507,11.0869,11.1033,11.2151,11.2513,11.2513,11.2513,11.2513,11.2513,11.2513,11.2513,11.2513,11.2513,11.2513,11.2447,11.2151,11.123,11.0408,11.0408,11.0178,11.0047,11.0343,11.0178,10.9849,10.9553,10.7614,10.6003,10.5707,10.5904,10.666,10.814,10.6035,10.4885,10.6003,10.4852,10.3997,10.3997,10.3997,10.449,10.5608,10.7318,10.8797,10.9915,11.1033,11.1756,11.2052,11.2052,11.2217,11.2513,11.2513,11.3115,11.4443,11.4674,11.5548,5.356,5.4579,5.7571,7.1381,6.9244,6.7271,8.0718,8.5683,9.0582,10.1728,10.5772,10.7515,10.8173,11.0507,11.2381,11.2513,11.0874,10.9403,10.9252,10.5887,10.3314,10.283,10.1025,9.9705,9.9552,9.9552,9.9552,9.9552,9.9552,9.9552,9.9887,9.9887,10.0877,10.3002,10.3002,10.3962,10.6404,10.6274,10.6606,10.7544,10.5973,10.5659,10.6266,10.472,10.472,10.6003,10.7351,10.7975,10.8107,10.8107,10.8173,10.8436,10.9718,11.0244,11.0375,11.1658,11.2151,11.2151,11.2282,11.2348,11.2348,11.248,11.2513,11.2513,11.2513,11.2513,11.2513,11.2513,11.2513,11.2513,11.2513,11.2513,11.2217,11.0902,11.0507,11.0408,11.0408,10.9389,10.8863,11.0178,10.9389,10.8074,10.6726,10.6298,10.5674,10.4391,10.5279,10.666,10.814,10.6923,10.597,10.6101,10.4852,10.3997,10.3997,10.3997,10.4063,10.4194,10.6792,10.837,10.8501,10.86,10.929,11.0573,11.0606,11.123,11.2513,11.2513,11.2654,11.2762,11.421,11.4902,5.1357,5.1489,5.2837,6.3917,6.5364,6.612,7.3945,7.868,8.4204,9.41,9.9131,10.0939,9.8342,10.5181,10.9923,10.6092,10.7551,10.8268,10.5725,10.3962,10.2342,10.1055,10.0068,9.9552,9.9552,9.9552,9.9552,9.9552,9.9552,10.0038,10.135,10.1527,10.2515,10.4799,10.3485,10.3824,10.6112,10.6112,10.6543,10.7171,10.7051,10.7191,10.7416,10.6857,10.6923,10.7482,10.8041,10.8304,10.837,10.9225,11.008,11.0902,11.146,11.1691,11.1756,11.2315,11.2513,11.2513,11.2513,11.2513,11.2513,11.2513,11.2513,11.2513,11.2513,11.2513,11.2513,11.2513,11.2513,11.2513,11.2513,11.2513,11.2381,11.1822,11.1033,11.0408,11.0408,10.929,10.8468,10.9027,10.8699,10.814,10.7515,10.6693,10.5937,10.5378,10.5016,10.5049,10.5641,10.5213,10.4852,10.4852,10.4326,10.3997,10.3997,10.3997,10.3997,10.3997,10.5871,10.6989,10.6989,10.8666,10.9849,11.0408,11.0408,11.1099,11.2513,11.2513,11.2513,11.2513,11.3254,11.3496,4.8267,4.8201,4.8957,5.7276,6.0563,6.3983,7.2696,7.4997,7.8055,8.7689,9.4462,9.7322,9.3015,10.0775,10.608,10.0971,10.3176,10.513,10.3102,10.2342,10.1203,9.9734,9.9552,9.9552,9.9552,9.9552,9.9552,9.9552,9.9552,10.0219,10.1673,10.1848,10.2485,10.4161,10.2658,10.283,10.513,10.513,10.5877,10.7171,10.7648,10.8081,10.8304,10.8304,10.8534,10.8929,10.8929,10.9159,10.9619,11.0638,11.1625,11.2513,11.2513,11.2513,11.2513,11.2513,11.2513,11.2513,11.2513,11.2513,11.2513,11.2513,11.2513,11.2513,11.2513,11.2513,11.2513,11.2513,11.2513,11.2513,11.2513,11.1921,11.1165,11.0737,10.9849,10.9126,10.9126,10.8041,10.7153,10.7581,10.7318,10.7022,10.7022,10.6529,10.6101,10.6101,10.5641,10.5279,10.5279,10.5279,10.5115,10.4687,10.4622,10.4457,10.403,10.3997,10.3997,10.3997,10.5739,10.6364,10.5509,10.8271,10.9784,10.9784,11.0211,11.1099,11.2513,11.2513,11.2513,11.2513,11.2513,11.2513,4.3433,4.4453,4.7247,5.4547,5.527,5.9084,7.7825,7.5491,7.263,8.4302,9.4659,10.0314,9.6007,9.8802,10.1016,9.8845,9.7943,9.8781,10.2248,10.0877,9.9552,9.9552,9.9552,9.9552,9.9552,9.9552,9.9552,9.9552,9.9552,9.9552,9.9552,9.9552,9.9552,9.9552,9.9552,10.052,10.283,10.283,10.4257,10.7053,10.7171,10.7586,10.8304,10.8304,10.906,11.0408,11.0408,11.1197,11.248,11.2513,11.2513,11.2513,11.2513,11.2513,11.2513,11.2513,11.2513,11.2513,11.2513,11.2513,11.2513,11.2513,11.2513,11.2513,11.2513,11.2513,11.2513,11.2513,11.2513,11.2513,11.2513,11.0441,10.7975,10.6529,10.6167,10.6167,10.6167,10.5049,10.4457,10.5871,10.4983,10.403,10.403,10.5181,10.6101,10.6101,10.7351,10.8271,10.8271,10.8271,10.7712,10.6266,10.6101,10.5509,10.4128,10.3997,10.3997,10.3997,10.6693,10.6989,10.4128,10.6792,10.8337,10.8337,10.9718,11.1099,11.2513,11.2513,11.2513,11.2513,11.2513,11.2513,4.3368,4.4387,4.7905,5.8163,5.6618,5.7013,7.3978,7.1052,6.9507,8.6176,8.3415,7.9074,8.2724,8.9981,9.5451,9.6168,9.832,10.0045,10.0523,9.9887,9.9552,9.9552,9.9552,9.9552,9.9552,9.9552,9.9552,9.9552,9.9552,9.9552,9.9552,9.9552,9.9552,9.9552,10.0425,10.12,10.1872,10.3337,10.4802,10.6195,10.9424,11.0469,10.9784,11.077,11.1428,11.1855,11.1855,11.2118,11.2513,11.2513,11.2513,11.2513,11.2513,11.2513,11.2513,11.2513,11.2513,11.2513,11.2513,11.2513,11.2513,11.2513,11.2513,11.2513,11.2513,11.2513,11.2513,11.2513,11.1822,11.1296,11.2282,11.1132,10.9619,10.9159,10.7548,10.6101,10.6101,10.5772,10.5575,10.6035,10.6561,10.6956,10.6956,10.8107,10.8731,10.7778,10.883,10.9389,10.8436,10.8304,10.814,10.7679,10.7614,10.7449,10.6989,10.6956,10.6529,10.5509,10.8173,10.9323,10.8436,10.8337,10.8764,10.9718,10.8238,10.8666,11.1099,11.1099,11.1592,11.2513,11.2513,11.2513,4.3368,4.3992,4.705,5.698,5.481,5.4481,7.0526,6.6547,6.4377,8.1672,7.7299,7.2236,7.8417,8.5393,9.097,9.323,9.6567,9.8869,9.942,9.9552,9.9552,9.9552,9.9552,9.9552,9.9552,9.9552,9.9552,9.9552,9.9552,9.9785,10.025,10.0279,10.0512,10.0977,10.1763,10.228,10.2642,10.4993,10.6702,10.7797,11.0177,11.1242,11.123,11.2118,11.2513,11.2513,11.2513,11.2513,11.2513,11.2513,11.2513,11.2513,11.2513,11.2513,11.2513,11.2513,11.2513,11.2513,11.2513,11.2513,11.2513,11.2513,11.2513,11.2513,11.2513,11.2513,11.2513,11.2513,11.1888,11.1165,11.0967,10.9455,10.8271,10.9356,10.7811,10.6397,10.7515,10.7318,10.6956,10.6956,10.7679,10.8304,10.8304,10.9488,11.0112,10.9225,11.031,11.0902,11.0014,10.9882,10.9882,10.9882,10.9422,10.8896,10.8337,10.8304,10.791,10.6989,10.9619,11.0737,10.9685,11.0343,11.0869,11.1197,11.0014,10.9981,11.123,11.0671,11.0869,11.1724,11.1197,11.1582,4.3368,4.3368,4.5143,5.2475,5.0897,5.1685,6.7665,6.224,5.7933,7.263,7.4899,7.5721,8.0554,8.3612,8.6366,8.9664,9.3175,9.631,9.8576,9.8971,9.9,9.9,9.9,9.9,9.9,9.9349,9.961,9.9698,9.9698,10.025,10.153,10.1617,10.217,10.3333,10.3362,10.3812,10.4969,10.6857,10.8765,11.0324,10.9764,11.0385,11.2085,11.2381,11.2513,11.2513,11.2184,11.225,11.2513,11.2184,11.225,11.2513,11.2513,11.2513,11.2513,11.2513,11.2513,11.2513,11.2513,11.2513,11.2513,11.2513,11.2513,11.2513,11.2513,11.2513,11.2513,11.2513,11.2677,11.2217,10.9488,10.6792,10.5444,10.8008,10.7581,10.7285,10.9849,10.9455,10.8567,10.8468,10.8534,10.86,10.86,10.9784,11.0671,11.0573,11.1789,11.2644,11.2545,11.2513,11.2513,11.2513,11.1362,11.0047,10.8731,10.86,10.86,10.86,11.1066,11.1395,10.8863,11.2414,11.3795,11.2545,11.3663,11.3631,11.2381,11.0934,11.031,11.0375,10.8962,10.9676,4.3368,4.3368,4.5636,5.5138,5.1686,5.0141,6.612,5.9939,5.5237,7.0953,6.6153,6.2207,7.217,7.2894,7.4262,8.1197,9.1053,9.6661,9.2764,9.3125,9.3736,9.3736,9.3736,9.3736,9.3736,9.7255,9.9959,10.0948,10.1036,10.1588,10.2868,10.2926,10.3071,10.3362,10.3362,10.4283,10.6236,10.5857,10.4405,10.2347,10.8683,11.0316,10.7712,11.1033,11.2513,11.2348,10.906,10.9488,11.2282,10.8962,10.9553,11.2513,11.2513,11.2513,11.2513,11.2513,11.2513,11.2513,11.2513,11.2513,11.2513,11.2513,11.2513,11.2513,11.2513,11.2513,11.2513,11.2513,11.4124,11.5439,11.3663,11.271,11.2085,11.1658,11.1263,11.0934,11.0507,11.1,11.123,11.0145,11.0803,11.1526,11.1526,11.2743,11.3335,11.2217,11.3269,11.3795,11.2677,11.2513,11.2513,11.2513,11.225,11.1888,11.1559,11.1526,11.1526,11.1526,11.2151,11.2743,11.3203,11.2052,11.1756,11.2513,11.0737,11.0178,11.0902,10.9488,10.9356,11.0375,10.8962,10.9279,4.3368,4.3368,4.5143,5.264,4.9943,4.8234,5.8854,5.4777,5.2377,6.5068,6.3621,6.1747,6.7435,7.3191,7.6601,7.5099,8.4271,9.033,8.7055,8.9664,9.106,8.8675,9.2572,9.4521,9.2194,9.708,10.0716,10.1414,10.2024,10.2926,10.4206,10.3711,10.3653,10.4264,10.3682,10.3606,10.4253,10.6041,10.5348,10.2608,10.9324,11.0277,10.6266,11.0573,11.2513,11.2381,0.0,11.0375,11.2348,11.0014,11.0441,11.2513,11.2513,11.2513,11.2513,11.2513,11.2513,11.2513,11.2513,11.2513,11.2513,11.2513,11.2513,11.2513,11.2513,11.3006,11.3532,11.3532,11.4189,11.4518,11.3104,11.225,11.1888,11.2381,11.2019,11.1888,11.3104,11.294,11.248,11.2414,11.248,11.2513,11.2513,11.317,11.3433,11.2644,11.3203,11.3433,11.2611,11.2513,11.2513,11.2513,11.2513,11.2513,11.2513,11.2513,11.2513,11.2513,11.2513,11.2874,11.3696,11.2841,11.2743,11.3532,11.2019,11.1296,11.1362,10.9981,10.9685,11.0375,10.8962,10.9081,4.3368,4.3696,4.5044,4.9385,4.7938,4.659,5.093,4.9483,4.9611,5.7637,6.2181,6.4641,6.4082,7.4447,8.0033,7.0749,7.5538,8.0796,8.1908,8.693,8.8908,8.4749,9.1729,9.5597,9.2281,9.7546,10.1326,10.1734,10.2752,10.3944,10.5311,10.4089,10.3886,10.5049,10.4119,10.3148,10.2195,10.6609,10.7647,10.5698,11.0302,11.0277,10.6266,11.0573,11.2513,11.248,0.0,11.1921,11.248,11.1822,11.1921,11.2513,11.2513,11.2644,11.2874,11.2874,11.3006,11.3203,11.3203,11.3203,11.3203,11.3203,11.3203,11.3203,11.3203,11.4058,11.5077,11.534,11.465,11.3499,11.1822,11.0671,11.0441,11.2414,11.2118,11.2348,11.5768,11.4748,11.3499,11.4518,11.3729,11.2874,11.2874,11.2677,11.2513,11.2513,11.2513,11.2513,11.2513,11.2513,11.2513,11.2513,11.2513,11.2513,11.2513,11.2513,11.2513,11.2513,11.2513,11.2513,11.2513,11.3729,11.4387,11.4387,11.4387,11.3762,11.2513,11.1099,11.0408,11.0375,10.8962,10.9081,4.3368,4.511,4.8004,5.2344,4.9417,4.659,5.093,4.8727,4.7215,5.2212,0.0,5.5443,5.8827,5.9646,6.184,6.8205,6.824,7.0691,7.9571,8.2509,8.3935,8.4284,8.472,8.6814,9.1496,9.676,10.0745,10.2926,10.3246,10.3944,10.5311,10.4089,10.3479,10.3682,10.4287,10.4805,10.5438,10.6205,10.547,10.339,10.9641,11.0277,10.6266,11.0573,11.2513,11.2315,0.0,0.0,11.225,10.86,10.9258,11.2513,11.2513,11.3269,11.4387,11.4387,11.5143,11.6162,11.6162,11.6162,11.6162,11.6162,11.6162,11.6162,11.6162,11.6327,11.6787,11.8102,11.9187,11.9319,11.6557,11.6688,11.6984,11.488,11.5143,11.5702,11.5143,11.5636,11.5866,11.4913,11.4551,11.4387,11.4387,11.3335,11.2513,11.2513,11.2513,11.2513,11.2513,11.2513,11.2513,11.2513,11.2513,11.2513,11.2513,11.2513,11.2513,11.2513,11.2513,11.2513,11.2513,11.2743,11.2874,11.2874,11.2874,11.2743,11.2513,11.1099,11.0408,11.0375,10.8962,10.9081,4.4518,4.5998,4.8069,5.0075,4.8595,4.6951,4.8135,4.6886,4.6341,0.0,0.0,5.2532,5.4264,5.7524,6.0909,6.41,6.6392,7.024,7.7273,8.2405,8.4633,8.248,8.7192,9.0711,9.0915,9.6789,10.1094,10.2257,10.2984,10.3624,10.4264,10.3042,10.2846,10.4016,10.2772,10.262,10.4329,10.5459,10.4345,10.1074,10.7564,10.7291,10.1062,10.9006,11.1691,11.0277,11.0606,11.2315,11.4683,11.2743,11.3072,11.4847,11.4847,11.5274,11.5866,11.5866,11.6261,11.682,11.682,11.682,11.682,11.682,11.682,11.682,11.682,11.7938,11.922,11.9187,11.9615,11.945,11.6458,11.6228,11.6228,11.4058,11.465,11.5505,11.4847,11.5242,11.5472,11.4847,11.4058,11.3532,11.3532,11.2973,11.2513,11.2513,11.2513,11.2513,11.2513,11.2513,11.2513,11.2513,11.2513,11.2513,11.2513,11.2513,11.2513,11.2513,11.2513,11.2513,11.2513,11.2513,11.2513,11.2513,11.2513,11.2513,11.2513,11.1855,11.1559,11.1559,11.0902,11.0526,4.8497,0.0,5.2606,5.2237,5.0965,4.9431,0.0,4.6573,4.5951,0.0,0.0,0.0,5.0514,5.6151,6.0512,5.9369,6.5234,7.0986,7.415,8.1145,8.4574,8.1288,8.946,9.4463,9.2078,9.74,10.1152,10.1443,10.2373,10.2926,10.2926,10.1704,10.1866,10.3516,10.0898,10.0877,10.3654,10.4799,10.3883,10.1105,10.6591,10.5391,9.8697,10.8618,11.1493,10.9027,11.3367,11.5833,11.682,11.682,11.682,11.682,11.682,11.705,11.7379,11.7379,11.7576,11.7872,11.7872,11.7872,11.7872,11.7872,11.7872,11.7872,11.7872,11.945,12.1061,11.9976,11.9647,11.9056,11.6425,11.5472,11.4847,11.3367,11.3631,11.4189,11.4189,11.4716,11.511,11.4781,11.4058,11.3433,11.3104,11.2743,11.2513,11.2513,11.2513,11.2513,11.2513,11.2513,11.2513,11.2513,11.2513,11.2513,11.2513,11.2513,11.2513,11.2513,11.2513,11.2513,11.2513,11.2513,11.2513,11.2513,11.2513,11.2513,11.2513,11.2513,11.2513,11.2513,11.2513,11.1954,0.0,6.3523,6.7322,6.5892,6.0902,5.5847,5.4155,4.9783,0.0,4.4511,4.6803,4.8818,4.8031,4.929,5.1498,5.4532,6.2765,6.8931,6.9289,7.5,7.995,8.1957,8.6058,9.0915,9.6557,9.868,10.0192,10.1385,10.1559,10.1617,10.1617,10.0396,9.9698,9.9851,9.961,10.1527,10.5787,10.3993,10.4009,10.5677,10.8173,10.7555,10.4641,11.1457,11.3006,0.0,11.4814,11.6721,11.682,11.682,11.682,11.682,11.682,11.7708,11.899,11.899,11.9845,12.0963,12.0963,12.0963,12.0963,12.0963,12.0963,12.0963,12.0963,12.1094,12.1258,12.116,12.1127,12.0765,11.9253,11.7773,11.6327,11.4913,11.3598,11.2677,11.2677,11.4781,11.6294,11.4979,11.5702,11.6096,11.4781,11.3433,11.2513,11.2513,11.2513,11.2513,11.2513,11.2513,11.2513,11.2513,11.2513,11.2513,11.2513,11.2513,11.2513,11.2513,11.2513,11.2513,11.2513,11.2513,11.2513,11.2513,11.2513,11.2513,11.2513,11.2513,11.2513,11.2513,11.2513,11.248,5.8885,6.3963,6.8235,6.5956,6.4034,6.1515,5.6516,5.3728,5.0781,4.5603,4.6456,4.7573,4.5786,4.789,5.1326,5.5789,6.1255,6.7863,7.6059,7.9481,8.3062,8.8821,9.1496,9.3823,9.6237,9.6208,9.7197,10.0076,9.8069,9.7778,10.0163,9.9814,9.9552,9.9552,9.9552,10.037,10.2023,10.1203,10.2236,10.5351,10.7683,10.7862,10.653,11.3056,11.4452,11.1987,11.6359,11.7214,0.0,11.8464,11.7971,11.5801,11.8529,11.9976,12.0469,12.0469,12.0798,12.1258,12.1258,12.1258,12.1258,12.1258,12.1258,12.1258,12.1258,12.1258,12.1258,12.1258,12.1258,12.0963,11.9516,11.8003,11.6458,11.5077,11.4288,11.3631,11.271,11.4091,11.5077,11.3631,11.3795,11.3959,11.3433,11.2874,11.2513,11.2513,11.2513,11.2513,11.2513,11.2513,11.2513,11.2513,11.2513,11.2513,11.2513,11.2513,11.2513,11.2513,11.2513,11.2513,11.2513,11.2513,11.2513,11.2513,11.2513,11.2513,11.2513,11.2513,11.2513,11.2513,11.2513,11.2513,6.5248,6.8937,7.2336,7.0842,6.9164,6.6379,6.0259,5.7508,5.4141,4.7081,4.6598,4.706,4.5826,4.735,5.0947,5.7505,6.1016,6.6887,7.8348,8.0619,8.3702,9.0595,9.2543,9.3968,9.5597,9.5713,9.676,9.9349,9.7138,9.6818,9.9436,9.9552,9.9552,9.9552,9.9552,9.9756,10.0163,10.0805,10.2775,10.5567,10.862,10.916,10.7971,11.4557,11.5965,11.3466,11.7905,11.7872,11.5077,11.945,11.8694,11.5176,11.9549,12.1258,12.1258,12.1258,12.1258,12.1258,12.1258,12.1258,12.1258,12.1258,12.1258,12.1258,12.1258,12.1258,12.1258,12.1258,12.0963,12.0404,11.9417,11.7675,11.5899,11.4946,11.4354,11.3729,11.2743,11.3696,11.4288,11.2809,11.2907,11.3072,11.2611,11.2513,11.2513,11.2513,11.2513,11.2513,11.2513,11.2513,11.2513,11.2513,11.2513,11.2513,11.2513,11.2513,11.2513,11.2513,11.2513,11.2513,11.2513,11.2513,11.2513,11.2513,11.2513,11.2513,11.2513,11.2513,11.2513,11.2513,11.2513,11.2513,7.8005,8.0802,8.201,8.3219,7.7524,7.0543,6.6119,6.0702,5.4831,4.8614,4.7181,4.7468,4.8571,4.729,4.9216,5.9183,6.2123,6.5932,7.361,7.6955,8.0474,8.5621,8.7337,9.01,9.5219,9.8011,9.9494,9.9494,9.9494,9.9523,9.9552,9.9552,9.9552,9.9552,9.9581,10.0192,10.1443,10.3786,10.5627,10.7015,11.1547,11.2257,10.9628,11.6155,11.7576,11.5011,11.9384,11.876,0.0,11.945,11.8661,11.5077,11.9549,12.1258,12.1258,12.1258,12.1258,12.1258,12.1258,12.1258,12.1258,12.1258,12.1258,12.1258,12.1258,12.1258,12.1258,12.1258,12.0272,11.9187,11.9187,11.6984,11.4748,11.4716,11.3598,11.2513,11.2513,11.3663,11.4255,11.2809,11.3696,11.4255,11.2776,11.2513,11.2513,11.2513,11.2513,11.2513,11.2513,11.2513,11.2513,11.2513,11.2513,11.2513,11.2513,11.2513,11.2513,11.2513,11.2513,11.2513,11.2513,11.2513,11.2513,11.2513,11.2513,11.2513,11.2513,11.2513,11.2513,11.2513,11.2513,11.2513,7.2704,7.7955,8.3366,8.0709,7.9626,7.6695,6.7005,6.4242,6.1071,5.1963,5.0682,5.0852,4.9702,5.1105,5.4042,5.893,6.3225,6.9189,7.8729,8.1492,8.4807,9.0856,9.1903,9.202,9.1758,9.3241,9.4579,9.5481,9.5539,9.6731,9.9436,9.9552,9.9552,9.9552,10.2062,10.3546,10.3935,10.7202,11.0248,11.3193,11.4533,11.6158,11.7841,11.9706,12.0173,11.9417,12.07,11.705,0.0,11.8201,11.6886,11.0934,11.8365,12.1258,12.1258,12.1258,12.1258,12.1258,12.1258,12.1258,12.1258,12.1258,12.1258,12.1258,12.1258,12.1258,12.1258,12.1258,12.0963,12.0634,12.0634,11.8431,11.5932,11.4946,11.3598,11.2513,11.2513,11.2874,11.3039,11.2611,11.2874,11.3039,11.2611,11.2513,11.2513,11.2513,11.2513,11.2513,11.2513,11.2513,11.2513,11.2513,11.2513,11.2513,11.2513,11.2513,11.2513,11.2513,11.2513,11.2513,11.2513,11.2513,11.2513,11.2513,11.2513,11.2513,11.2513,11.2513,11.2513,11.2513,11.2513,11.2513,7.5738,7.9278,8.2842,8.1374,8.1382,7.9425,7.0686,6.7596,6.4251,5.5554,5.301,5.2368,5.2819,5.4655,5.7859,6.3081,6.567,7.0236,7.9514,8.1928,8.4923,9.0827,9.202,9.2543,9.3038,9.2863,9.3677,9.5975,9.612,9.7138,9.9436,9.9552,9.9785,10.0308,10.3369,10.5446,10.6532,11.0559,11.3915,11.6682,11.7579,11.9198,12.1258,12.1258,12.1258,12.1258,12.1258,11.7313,0.0,11.8398,11.7149,11.1559,11.8529,12.1258,12.1258,12.1258,12.1258,12.1258,12.1258,12.1258,12.1258,12.1258,12.1258,12.1258,12.1258,12.1258,12.116,12.0601,12.0436,12.0173,11.899,11.7346,11.5636,11.4189,11.317,11.2513,11.2513,11.2513,11.2513,11.2513,11.2513,11.2513,11.2513,11.2513,11.2513,11.2513,11.2513,11.2513,11.2513,11.2513,11.2513,11.2513,11.2513,11.2513,11.2513,11.2513,11.2513,11.2513,11.2513,11.2513,11.2513,11.2513,11.2513,11.2513,11.2513,11.2513,11.2513,11.2513,11.2513,11.2513,11.2513,11.2513,8.2962,8.2822,8.144,8.3989,8.2878,7.9776,7.5151,7.0502,6.5431,5.8846,5.4495,5.3069,5.6832,5.7701,6.0755,6.9655,6.9393,7.0643,7.8031,8.027,8.2858,8.7483,8.9344,9.202,9.6673,9.5132,9.5306,9.8767,9.9029,9.9203,9.9552,9.9669,10.025,10.1755,10.4352,10.6826,10.9458,11.4084,11.6875,11.8127,12.0234,12.1258,12.1258,12.1258,12.1258,12.1258,12.1258,11.8793,0.0,11.945,11.8694,11.5176,11.9549,12.1258,12.1258,12.1258,12.1258,12.1258,12.1258,12.1258,12.1258,12.1258,12.1258,12.1258,12.1258,12.1258,12.0995,11.9549,11.9154,11.8497,11.5636,11.4814,11.4387,11.3039,11.2611,11.2513,11.2513,11.2513,11.2513,11.2513,11.2513,11.2513,11.2513,11.2513,11.2513,11.2513,11.2513,11.2513,11.2513,11.2513,11.2513,11.2513,11.2513,11.2513,11.2513,11.2513,11.2513,11.2513,11.2513,11.2513,11.2513,11.2513,11.2513,11.2513,11.2513,11.2513,11.2513,11.2513,11.2513,11.2513,11.2513,11.2654,7.8668,8.0884,8.3237,8.3081,8.392,8.2335,7.2476,7.0773,6.8741,5.9497,5.6803,5.6467,5.7399,5.9126,6.3082,7.1051,7.4424,7.7711,8.2364,8.4982,8.6814,8.7919,9.0129,9.1962,9.3067,9.359,9.4201,9.5015,9.5073,9.6382,9.9407,10.0512,10.2013,10.4082,10.8507,11.1956,11.4321,11.8154,12.025,12.0577,12.1105,12.1258,12.1258,12.1258,12.1258,12.1258,12.1258,11.8793,11.5077,11.945,11.8694,11.5176,11.9549,12.1258,12.1258,12.1258,12.1258,12.1258,12.1258,12.1258,12.1258,12.1258,12.1258,12.1258,12.1258,12.1258,12.0995,11.9549,11.9154,11.8727,11.6853,11.5537,11.465,11.4321,11.3367,11.2513,11.2513,11.2513,11.2513,11.2513,11.2513,11.2513,11.2513,11.2513,11.2513,11.2513,11.2513,11.2513,11.2513,11.2513,11.2513,11.2513,11.2513,11.2513,11.2513,11.2513,11.2513,11.2513,11.2513,11.2513,11.2513,11.2513,11.2513,11.2513,11.2513,11.2513,11.2513,11.2513,11.2513,11.2513,11.2513,11.3254,7.8816,8.1724,8.5127,8.5098,8.6058,8.5331,7.8729,7.6344,7.329,6.5554,6.2442,6.1133,6.1133,6.2733,6.6368,7.3435,7.6286,7.8292,8.0299,8.4894,8.7803,8.7221,8.9984,9.2921,9.5364,9.455,9.4608,9.6469,9.6586,9.7458,9.9465,10.0192,10.2107,10.5692,11.0091,11.374,11.668,11.9842,12.1258,12.1258,12.1258,12.1258,12.1258,12.1258,12.1258,12.1258,12.1258,11.9976,11.8036,12.0338,11.991,11.8102,12.0371,12.1258,12.1258,12.1258,12.1258,12.1258,12.1258,12.1258,12.116,12.0469,12.0272,12.0108,11.9351,11.9154,11.8825,11.7412,11.705,11.6688,11.5176,11.4222,11.3663,11.3663,11.3072,11.2513,11.2513,11.2513,11.2513,11.2513,11.2513,11.2513,11.2513,11.2513,11.2513,11.2513,11.2513,11.2513,11.2513,11.2513,11.2513,11.2513,11.2513,11.2513,11.2513,11.2513,11.2513,11.2513,11.2513,11.2513,11.2513,11.2513,11.2513,11.2513,11.2513,11.2513,11.2513,11.2513,11.2513,11.2513,11.2513,11.3359,8.0328,8.3062,8.6058,8.7105,8.7541,8.7192,8.5272,8.1724,7.742,7.2301,6.8666,6.631,6.5874,6.6834,6.9713,7.5937,7.7158,7.7594,7.8496,8.4254,8.8093,8.725,9.0458,9.4658,9.9087,9.7319,9.6965,9.932,9.9245,9.9044,9.9073,9.8744,10.1049,10.6716,11.0245,11.4002,11.829,12.039,12.1258,12.1258,12.1258,12.1258,12.1258,12.1258,12.0864,12.0173,12.093,0.0,12.0206,12.0963,12.1258,12.1258,12.1258,12.1258,12.1258,12.1258,12.1258,12.1258,12.1258,12.1258,12.0995,11.9319,11.876,11.8529,11.7214,11.682,11.6524,11.511,11.4716,11.4387,11.2907,11.2513,11.2513,11.2513,11.2513,11.2513,11.2513,11.2513,11.2513,11.2513,11.2513,11.2513,11.2513,11.2513,11.2513,11.2513,11.2513,11.2513,11.2513,11.2513,11.2513,11.2513,11.2513,11.2513,11.2513,11.2513,11.2513,11.2513,11.2513,11.2513,11.2513,11.2513,11.2513,11.2513,11.2513,11.2513,11.2513,11.2513,11.2513,11.2513,11.2762,11.3872,7.9834,8.2422,8.4516,8.4691,8.5563,8.5185,8.059,7.9863,7.8729,7.3552,7.2069,7.1051,6.8898,6.9538,7.2127,7.742,7.9223,8.1492,8.5912,8.8413,9.0129,9.106,9.4232,9.7149,9.9326,10.2519,10.3077,9.9857,9.8176,9.7217,9.6809,9.541,9.846,10.6625,10.9351,11.3883,12.0732,12.1105,12.1258,12.1258,12.1258,12.1258,12.1258,12.1258,11.9187,11.5801,11.9615,11.9121,11.5866,11.968,12.1258,12.1258,12.1258,12.1258,12.1258,12.1258,12.1258,12.1258,12.1258,12.1258,12.0798,11.8036,11.7149,11.7083,11.6886,11.682,11.6524,11.511,11.4716,11.4387,11.2907,11.2513,11.2513,11.2513,11.2513,11.2513,11.2513,11.2513,11.2513,11.2513,11.2513,11.2513,11.2513,11.2513,11.2513,11.2513,11.2513,11.2513,11.2513,11.2513,11.2513,11.2513,11.2513,11.2513,11.2513,11.2513,11.2513,11.2513,11.2513,11.2513,11.2513,11.2513,11.2513,11.2513,11.2513,11.2513,11.2513,11.2513,11.2513,11.2513,11.3974,11.542,7.6867,8.0619,8.4574,8.5999,8.6785,8.661,8.4371,8.376,8.2393,7.7972,7.5908,7.4141,7.1801,7.0493,7.2244,7.9685,7.8746,7.9979,8.8035,8.7774,8.8751,9.4143,9.4985,9.7357,10.2781,10.3824,10.3048,9.9804,10.2271,10.2709,10.0102,9.9314,10.0954,10.5571,10.8735,11.2821,11.8117,12.0152,12.1258,12.1258,12.1258,12.1258,12.1258,12.1258,12.0206,11.8497,0.0,12.0173,11.8562,12.0469,12.1258,12.1258,12.1258,12.1258,12.1258,12.1258,12.1258,12.116,12.0371,12.0075,11.9615,11.6623,11.5636,11.5505,11.465,11.442,11.4288,11.3663,11.3499,11.3335,11.2677,11.2513,11.2513,11.2513,11.2513,11.2513,11.2513,11.2513,11.2513,11.2513,11.2513,11.2513,11.2513,11.2513,11.2513,11.2513,11.2513,11.2513,11.2513,11.2513,11.2513,11.2513,11.2513,11.2513,11.2513,11.2513,11.2513,11.2513,11.2513,11.2513,11.2513,11.2513,11.2513,11.2513,11.2513,11.2513,11.2513,11.2513,11.3009,11.3839,11.4542,11.6236,7.4896,7.9268,8.4082,8.6664,8.7574,8.7681,8.7235,8.6319,8.4991,8.2702,8.0968,7.9263,7.7318,7.5565,7.6697,8.3941,8.1276,8.1643,9.1225,8.938,8.9553,9.6291,9.5601,9.675,10.2311,10.2973,10.2456,10.1231,10.5265,10.6374,10.3069,10.2439,10.3536,10.6425,10.9295,11.2516,11.6517,11.9344,12.0897,12.1258,12.1258,12.1258,12.1258,12.1258,12.0667,11.968,12.0798,12.0634,11.968,12.0798,12.1258,12.1258,12.1258,12.1258,12.1258,12.1258,12.1258,12.0963,11.8793,11.8266,11.8069,11.511,11.4157,11.3959,11.2874,11.2513,11.2513,11.2513,11.2513,11.2513,11.2513,11.2513,11.2513,11.2513,11.2513,11.2513,11.2513,11.2513,11.2513,11.2513,11.2513,11.2513,11.2513,11.2513,11.2513,11.2513,11.2513,11.2513,11.2513,11.2513,11.2513,11.2513,11.2513,11.2513,11.2513,11.2513,11.2513,11.2513,11.2513,11.2513,11.2513,11.2513,11.2348,11.1987,11.1987,11.1822,11.146,11.146,11.2264,11.3791,11.4142,11.5841,7.5625,7.9216,8.2047,8.4444,8.6065,8.6582,8.4862,8.4371,8.4686,8.6371,8.777,8.8378,8.7443,8.8342,8.961,9.1323,8.9923,9.1081,9.8381,9.7022,9.5794,9.7182,9.6979,9.6056,9.4007,9.9645,10.4181,10.5665,10.4601,10.3614,10.2863,10.1326,10.3777,11.0991,11.1434,11.3931,11.8971,11.922,11.9943,12.1258,12.1258,12.1258,12.1258,12.1258,11.899,11.5274,11.945,11.8891,11.5373,11.9549,12.1258,12.1258,12.1258,12.1258,12.1258,12.1258,12.1258,12.0667,11.6425,11.5833,11.6458,11.3565,11.2644,11.2611,11.2545,11.2513,11.2513,11.2513,11.2513,11.2513,11.2513,11.2513,11.2513,11.2513,11.2513,11.2513,11.2513,11.2513,11.2513,11.2513,11.2513,11.2513,11.2513,11.2513,11.2513,11.2513,11.2513,11.2513,11.2513,11.2513,11.2513,11.2513,11.2513,11.2513,11.2513,11.2513,11.2513,11.2513,11.2513,11.2513,11.2513,11.2513,11.1888,11.054,11.054,10.9849,10.8501,10.8501,10.918,11.076,11.2316,11.3816,7.0092,7.4499,7.9145,8.1709,8.5006,8.7306,8.6576,8.7072,8.7966,8.8704,8.8646,8.8747,8.9402,8.8606,8.9131,9.2982,9.0142,9.0331,9.8714,9.4844,9.4192,10.2657,9.7771,9.6743,10.4818,10.4317,10.3069,10.1961,10.6446,10.8602,10.7042,10.638,10.7303,10.9988,11.1013,11.3147,11.6294,11.7214,11.8431,11.9943,12.0831,12.1258,12.1258,12.1258,12.0436,11.9023,12.0601,12.0371,11.9056,12.0634,12.1258,12.1258,12.1258,12.1258,12.116,12.0272,12.0502,12.0371,11.4124,11.2282,11.2381,11.0441,10.9817,10.9817,10.9817,10.9817,10.9981,11.0902,11.1165,11.1362,11.2282,11.2513,11.2513,11.2513,11.2513,11.2513,11.2513,11.2513,11.2513,11.2513,11.2513,11.2513,11.2513,11.2513,11.2513,11.2513,11.2513,11.2513,11.2513,11.2513,11.2513,11.2513,11.2513,11.2513,11.2513,11.2513,11.2513,11.2513,11.2513,11.2118,11.1197,11.1165,11.0507,10.9093,10.906,10.8797,10.8304,10.8304,10.9573,11.2077,11.2698,11.4269,6.8418,7.1403,7.5386,7.9452,8.3478,8.645,8.6861,8.8105,8.9236,8.9909,8.9798,9.0291,9.292,9.2441,9.2922,9.7078,9.4131,9.3742,10.0377,9.6046,9.5352,10.3577,9.8285,9.6894,10.4587,10.4409,10.3747,10.3866,10.9258,11.1876,11.0399,11.0367,11.0367,11.0367,11.1369,11.2776,11.4716,11.5636,11.6886,11.8398,11.9319,12.0075,12.0568,12.1061,12.1258,12.1258,12.1258,12.1258,12.1258,12.1258,12.1258,12.1258,12.1258,12.0995,12.0404,11.8924,11.8365,11.751,11.1724,11.0014,11.0178,10.8764,10.8304,10.8304,10.8304,10.8304,10.8501,10.9422,10.9718,10.9915,11.0869,11.1099,11.1099,11.1099,11.146,11.1822,11.1822,11.2184,11.2513,11.2513,11.2513,11.2513,11.2513,11.2513,11.2513,11.2513,11.2513,11.2513,11.2513,11.2513,11.2513,11.2513,11.2513,11.2513,11.2513,11.2513,11.2315,11.1855,11.1822,11.1197,10.9751,10.9718,10.9027,10.7581,10.7581,10.7351,10.6857,10.7293,10.8895,11.138,11.1864,11.3542,7.099,7.0477,7.1084,7.7783,8.1615,8.4035,8.5289,8.6612,8.8202,9.0045,9.1513,9.3981,9.8623,10.0577,10.1958,10.3668,10.217,10.1525,10.3603,10.1683,9.9974,9.9707,9.875,9.6402,9.1646,9.9065,10.6397,11.1855,11.2381,11.248,11.2513,11.2513,11.2513,11.2513,11.2513,11.3203,11.465,11.465,11.5373,11.6754,11.6754,11.7576,11.9154,12.0502,12.1127,12.1127,12.1127,12.1127,12.1127,12.1127,12.1127,12.1127,12.1127,12.0272,11.8825,11.7181,11.4781,11.1921,10.9159,10.906,10.9981,10.8633,10.8173,10.8173,10.8173,10.8173,10.8173,10.8238,10.8238,10.8238,10.8304,10.8304,10.8304,10.8304,10.9356,11.0343,11.0343,11.1428,11.2414,11.2447,11.248,11.248,11.2513,11.2513,11.2513,11.2513,11.2447,11.2414,11.2447,11.2414,11.2381,11.2381,11.2381,11.2381,11.2381,11.2381,11.1822,11.0441,11.0343,10.9718,10.8304,10.8238,10.7548,10.6068,10.6169,10.5477,10.4128,10.5481,10.6993,10.8428,10.9915,11.1386,6.7438,7.0472,7.3152,7.6054,8.0519,8.4331,8.4666,8.6657,8.9204,9.1793,9.2663,9.4253,9.871,9.7355,9.6994,10.1564,10.0097,9.9315,10.1863,10.2579,10.3188,10.4161,10.131,9.867,9.7265,10.3208,10.6923,10.6397,10.9225,11.146,11.248,11.2513,11.2513,11.2513,11.2513,11.271,11.3137,11.3137,11.3861,11.5307,11.5307,11.6064,11.7477,11.7872,11.8036,11.8036,11.8036,11.8036,11.8036,11.8036,11.8036,11.8036,11.8036,11.7181,11.5505,11.1987,10.9488,10.7614,10.5805,10.5444,10.5707,10.5312,10.5213,10.5213,10.5213,10.5213,10.5411,10.643,10.6726,10.6956,10.8041,10.8304,10.8304,10.8304,10.86,10.8896,10.8896,10.9192,10.9784,11.0803,11.1,11.1329,11.2348,11.2513,11.2513,11.2513,11.077,10.9849,11.0869,11.0112,10.9488,10.9488,10.9488,10.9488,10.9488,10.9488,10.929,10.8929,10.8896,10.8238,10.6759,10.6726,10.6068,10.4622,10.5648,10.6006,10.5604,10.6993,10.8428,10.9915,11.0393,11.1386,6.3373,6.4114,6.5199,6.7896,7.2893,7.7135,7.7135,8.1771,8.6374,8.7459,8.9168,9.193,9.6862,9.5711,9.5514,10.0051,9.9361,9.8868,10.0545,10.209,10.3339,10.4161,10.1991,10.0906,10.2189,10.5378,10.6956,10.5871,10.8107,11.0145,11.1559,11.1658,11.1921,11.2513,11.2513,11.2513,11.2513,11.2513,11.2973,11.3795,11.3795,11.4551,11.5932,11.5932,11.6261,11.682,11.682,11.682,11.682,11.682,11.6491,11.5932,11.5932,11.4716,11.248,10.8764,10.6463,10.5115,10.4293,10.3997,10.3997,10.3997,10.3997,10.3997,10.3997,10.3997,10.4194,10.4983,10.5246,10.5444,10.6298,10.6496,10.6496,10.6496,10.6956,10.7383,10.7383,10.7877,10.8567,10.9389,10.9521,10.9784,11.0638,11.077,11.077,11.077,10.9356,10.86,10.9422,10.883,10.8304,10.8304,10.8304,10.8304,10.8304,10.8304,10.8041,10.7416,10.7383,10.6759,10.5279,10.5246,10.518,10.4863,10.4541,10.4843,10.6075,10.6914,10.8141,10.9647,11.0937,11.1188,5.8937,5.527,5.3593,5.7539,6.247,6.6317,0.0,7.3452,7.9831,7.9042,8.1968,8.6472,9.2259,9.3443,9.4561,9.7618,9.8539,9.8901,9.9065,10.0446,10.1432,10.1432,10.1564,10.278,10.5608,10.5871,10.6463,10.7942,10.8074,10.8699,11.0112,11.0178,11.0606,11.1526,11.2052,11.2151,11.1822,11.2282,11.2513,11.2513,11.2513,11.3203,11.4485,11.4485,11.5143,11.6327,11.6327,11.6327,11.6327,11.6162,11.5373,11.4222,11.4058,11.225,10.9389,10.6825,10.4983,10.3734,10.3734,10.3635,10.3537,10.3701,10.3734,10.3767,10.3931,10.3767,10.3504,10.3504,10.3274,10.3109,10.3438,10.3504,10.3602,10.3931,10.495,10.5871,10.5871,10.689,10.7877,10.8041,10.8074,10.8107,10.8271,10.8304,10.8238,10.8074,10.7942,10.7877,10.8041,10.791,10.7811,10.7811,10.7811,10.7811,10.7811,10.7811,10.7252,10.597,10.5871,10.5246,10.38,10.3734,10.431,10.5641,10.3218,10.318,10.5948,10.6233,10.6995,10.8262,11.1003,11.0631,0.0,0.0,0.0,0.0,0.0,0.0,0.0,6.4279,6.7435,7.069,7.2038,7.4406,8.0225,8.2231,8.4401,8.8511,9.2095,9.4791,9.5941,9.8309,9.9953,9.9953,10.0972,10.2386,10.4227,10.4424,10.5016,10.643,10.6529,10.7186,10.8633,10.8699,10.7778,10.5739,10.9027,10.9718,10.7383,11.0803,11.2513,11.2513,11.2513,11.2677,11.294,11.294,11.3104,11.3367,11.3367,11.3367,11.3269,11.2118,11.1493,11.1132,10.9981,10.7778,10.5181,10.4622,10.3438,10.2123,10.2123,10.1367,10.061,10.1761,10.2123,10.2353,10.3635,10.232,10.0413,10.0413,9.8736,9.7487,9.9821,10.0413,10.1038,10.3438,10.4227,10.4424,10.4424,10.4654,10.5181,10.6331,10.6529,10.6923,10.8107,10.8304,10.791,10.6726,10.5575,10.5246,10.6397,10.5542,10.4852,10.4852,10.4852,10.4852,10.4852,10.4852,10.472,10.4424,10.4424,10.3734,10.2189,10.2123,10.2223,10.2494,10.3119,10.4258,10.5932,10.7151,10.7858,10.8106,10.8725,10.7956,0.0,0.0,0.0,0.0,0.0,0.0,0.0,0.0,0.0,0.0,0.0,6.7534,7.263,0.0,8.0455,8.4828,8.9201,9.2818,9.4955,9.65,9.7421,9.7421,9.867,10.038,10.2616,10.2846,10.3438,10.495,10.5049,10.5674,10.712,10.5115,10.3602,10.2846,10.4918,10.5345,10.3898,10.8238,11.077,11.146,11.146,11.1855,11.2513,11.2513,11.2513,11.2513,11.2513,11.2513,11.248,11.1756,11.0638,10.8995,10.5345,10.3043,10.1597,10.015,10.0051,10.0413,9.8966,9.8933,9.9657,10.038,10.061,10.0775,10.1564,10.0742,9.9558,9.9558,9.8539,9.7914,10.0051,10.061,10.1202,10.3471,10.3997,10.3997,10.3997,10.3997,10.4227,10.4918,10.5049,10.5279,10.6035,10.6167,10.5904,10.5181,10.4457,10.426,10.495,10.4457,10.4293,10.4983,10.3109,10.2682,10.4885,10.3043,10.2419,10.3898,10.3274,10.2156,10.0676,10.1263,10.2006,10.2653,10.2665,10.3665,10.5815,10.5834,10.5834,10.5744,10.4923,10.4138,0.0,0.0,0.0,0.0,0.0,0.0,0.0,0.0,0.0,0.0,0.0,0.0,0.0,0.0,0.0,8.0751,8.5848,9.0385,9.3574,9.4002,9.4232,9.4758,9.6106,9.798,10.0577,10.1334,10.209,10.3076,10.3668,10.4359,10.5213,10.2189,10.0676,10.1235,10.1827,10.1991,10.1662,10.5542,10.8337,11.0014,0.0,0.0,11.1691,11.1691,11.123,11.0474,11.1329,11.1066,11.008,11.0934,10.9586,10.6561,10.1827,9.9821,9.9262,9.6928,9.7388,9.8802,9.6468,9.7027,9.8769,9.9032,9.9131,9.9164,9.946,9.9164,0.0,9.8736,9.8342,9.8276,9.9986,10.0413,10.0906,10.2715,10.3142,10.3208,10.3504,10.3109,10.2978,10.3832,10.3537,10.3339,10.3898,10.3274,10.2646,10.2308,10.2218,10.2449,10.2671,10.291,10.3569,10.472,10.2189,10.186,10.5411,10.1662,10.0413,10.3372,10.1597,9.9881,9.8645,9.9995,10.0952,10.1502,9.9918,10.094,10.4388,10.2562,10.2103,10.289,9.8858,9.7288,0.0,0.0,0.0,0.0,0.0,0.0,0.0,0.0,0.0,0.0,0.0,0.0,0.0,0.0,0.0,0.0,7.7825,8.4664,8.8971,8.9563,9.0516,9.3081,9.4626,9.6139,9.7684,10.015,10.1235,10.015,10.2517,10.3471,10.2221,10.3011,0.0,0.0,0.0,10.3076,10.1695,10.3537,10.5871,10.8534,10.7219,10.7351,10.8797,10.8797,10.6627,10.3109,10.7055,10.5838,10.1334,10.5246,10.5082,10.2353,10.1695,10.0676,9.9525,9.9197,9.844,9.7553,9.7224,0.0,0.0,9.7191,9.7618,9.7848,9.9164,9.7783,9.5744,9.5744,9.3903,9.2555,9.5284,9.5974,9.6665,9.9427,10.0051,10.0413,10.1662,9.992,9.9295,10.3241,10.1893,10.0906,10.3537,10.0709,9.7644,9.6162,9.6113,9.6686,9.7756,9.9143,10.0117,10.0282,0.0,0.0,10.4194,10.015,9.8868,10.1728,9.8177,9.5694,9.5214,9.6596,9.6028,9.338,9.1722,9.3811,9.9536,9.6456,9.7133,10.1034,8.8227,8.3767,0.0,0.0,0.0,0.0,0.0,0.0,0.0,0.0,0.0,0.0,0.0,0.0,0.0,0.0,0.0,0.0,7.2268,7.914,8.0981,8.2691,8.5453,9.0089,9.1897,9.3311,9.4758,9.6763,9.8046,9.8276,10.0249,10.1136,10.0479,9.8703,9.7125,9.5876,9.7059,9.7388,9.6731,9.9854,10.2452,10.4457,10.3832,10.4326,10.5805,10.5805,10.4786,10.3142,10.5016,10.4391,10.2287,10.4128,10.3602,0.0,0.0,0.0,0.0,0.0,9.6665,9.5909,9.4232,9.4363,9.535,9.5941,9.6139,9.627,9.6862,9.6205,9.5251,9.5251,9.4396,9.3936,9.5941,9.7155,9.8176,10.0242,10.0742,10.0909,10.1509,10.0014,9.9197,10.1071,10.0413,0.0,10.232,10.1075,9.9612,9.8882,9.8941,9.9459,10.0707,10.146,10.2201,10.3079,10.2033,10.1989,10.3708,9.9876,0.0,0.0,0.0,9.7722,9.7471,9.8036,0.0,0.0,0.0,0.0,0.0,0.0,0.0,0.0,7.945,7.5027,0.0,0.0,0.0,0.0,0.0,0.0,0.0,0.0,0.0,0.0,0.0,0.0,0.0,0.0,0.0,0.0,6.543,7.1052,7.1052,7.526,8.0192,8.5256,8.8149,9.0352,9.1832,9.3607,9.512,9.6139,9.7553,9.8375,9.8375,9.5777,9.4298,9.4298,9.4298,9.4495,9.4922,9.7224,9.9295,10.1071,10.0676,10.1301,10.278,10.278,10.2156,10.1071,10.2254,10.1893,10.0512,10.1695,10.1268,9.9591,9.6468,9.5251,9.5251,9.5251,9.5251,9.4955,9.2884,9.3245,9.4692,9.4692,9.46,9.4439,9.4186,9.427,9.4538,9.4647,9.4982,9.5481,9.6904,9.8372,9.9733,10.0783,10.0716,10.0624,10.1028,9.9594,9.8624,9.9848,9.9749,9.9729,10.04,10.041,10.0385,10.038,10.0095,0.0,10.1504,10.2159,10.288,10.3873,10.1917,10.1359,10.3593,9.9801,9.8108,9.9976,9.8974,9.8798,9.9904,9.8684,9.8542,9.9918,9.3124,9.0296,0.0,0.0,0.0,0.0,0.0,0.0,0.0,0.0,0.0,0.0,0.0,0.0,0.0,0.0,0.0,0.0,0.0,0.0,0.0,0.0,0.0,0.0,0.0,0.0,5.9084,6.7633,7.4997,7.7957,8.3349,8.736,8.884,9.1536,9.3213,9.3278,9.4593,9.5383,9.5383,9.6566,9.7224,9.7224,9.7224,9.7914,9.9361,9.6731,9.6829,9.9624,9.8177,9.8276,9.969,9.969,9.7421,9.3706,9.7881,9.6533,9.17,9.5843,9.6731,9.5448,9.5317,9.5251,9.5251,9.5251,9.5251,9.5251,9.5152,9.4265,9.3213,9.3213,9.3009,9.262,9.1498,9.1957,9.2814,9.3101,9.4052,9.5438,9.6809,9.8231,9.9406,9.9441,9.8299,9.7795,9.931,9.729,9.6405,10.0778,10.034,9.8993,9.778,9.7406,9.7312,9.7142,9.605,0.0,9.6896,9.8431,9.9475,9.951,10.1883,10.3495,10.3633,9.9649,9.8342,10.1263,9.7479,9.7019,10.1044,9.6843,9.5127,9.6498,8.8798,8.7014,9.1507,0.0,0.0,0.0,0.0,0.0,0.0,0.0,0.0,0.0,0.0,0.0,0.0,0.0,0.0,0.0,0.0,0.0,0.0,0.0,0.0,0.0,0.0,0.0,0.0,6.1846,6.8257,7.3123,7.628,7.8252,7.8746,8.1409,8.3086,8.3053,8.7985,9.101,9.101,9.2358,9.3114,9.3114,9.3114,9.3344,9.3837,9.387,9.433,9.5317,9.5777,9.6237,9.6698,9.6698,9.5909,9.4626,9.6073,9.5613,9.3936,9.5383,9.4561,9.2292,9.1371,9.101,9.0878,8.9892,8.9563,8.9563,8.9563,8.9234,8.9194,9.0869,9.2545,9.3909,9.3572,9.296,9.2685,9.3808,9.3708,9.3907,9.6398,9.8085,9.9322,10.0367,10.029,10.0039,10.0558,9.9269,9.8277,9.9814,9.8517,9.6823,9.5508,9.7858,9.8495,9.4268,9.6859,9.9314,9.9598,10.1007,10.198,10.198,10.2932,10.3132,10.2144,10.0716,9.9977,10.0026,9.9533,9.9356,9.9755,9.9083,9.7501,9.4791,9.3186,8.8048,7.9129,0.0,0.0,0.0,0.0,0.0,0.0,0.0,0.0,0.0,0.0,0.0,0.0,0.0,0.0,0.0,0.0,0.0,0.0,0.0,0.0,0.0,0.0,0.0,0.0,0.0,0.0,7.069,7.3222,0.0,7.2992,7.411,7.4636,7.4077,7.8417,8.2001,8.4072,8.5552,8.7261,8.9366,8.9925,9.0221,9.0221,9.1634,9.2128,9.1634,9.3048,9.3739,9.3739,9.3739,9.3739,9.3739,9.3739,9.3739,9.3706,9.4224,9.272,9.0071,8.8194,8.6899,8.5781,8.3339,8.3406,8.4795,8.4866,8.5997,8.743,8.8564,8.8956,8.8696,8.6902,8.6002,8.592,8.7506,8.8843,9.0534,9.3543,9.6595,9.9139,10.0128,9.9988,9.965,9.965,9.8102,9.7044,9.8102,9.5834,9.3638,9.3351,9.5351,9.5598,9.1578,9.5315,9.8828,9.935,10.1748,10.3425,10.3425,10.3425,10.3021,10.2157,10.2033,10.1641,10.087,10.1024,10.0727,9.9739,9.8922,9.6789,9.315,9.0831,8.4124,0.0,0.0,0.0,0.0,0.0,0.0,0.0,0.0,0.0,0.0,0.0,0.0,0.0,0.0,0.0,0.0,0.0,0.0,0.0,0.0,0.0,0.0,0.0,0.0,0.0,0.0,0.0,6.9737,7.309,0.0,0.0,0.0,0.0,6.6515,6.6679,6.9276,7.4833,7.6543,7.9896,8.5486,8.7228,8.8116,8.8182,8.9892,9.0056,8.8741,9.0188,9.0878,9.0944,9.0878,9.0878,9.0944,9.0944,9.0944,9.0992,9.1635,9.0385,8.7919,8.5415,8.2766,7.993,7.5582,7.6653,8.0365,8.0705,8.3724,8.7256,8.5843,8.2338,7.7764,7.3213,7.2411,0.0,0.0,7.9893,8.5122,8.8451,9.3698,9.8216,9.8573,9.7661,9.6704,9.6704,9.4213,9.272,0.0,9.1866,8.9047,9.0332,0.0,8.8584,8.8405,9.1473,9.4327,9.5826,10.0357,10.3389,10.3318,10.3389,10.3425,10.3425,10.3425,10.3389,10.3318,10.1891,10.0999,10.082,9.629,9.2936,9.0973,8.1983,0.0,0.0,0.0,0.0,0.0,0.0,0.0,0.0,0.0,0.0,0.0,0.0,0.0,0.0,0.0,0.0,0.0,0.0,0.0,0.0,0.0,0.0,0.0,0.0,0.0,0.0,4.9943,5.4053,5.9577,5.9873,5.892,0.0,0.0,0.0,0.0,0.0,0.0,6.5989,6.7468,6.9441,7.1973,7.5655,7.8088,7.9107,8.4861,8.759,8.7228,8.8708,8.9925,9.0911,8.9859,8.9957,9.0944,9.0944,9.0944,9.0367,8.3348,8.0064,7.9157,7.6239,7.2551,6.8526,6.637,6.6268,6.7283,6.7358,7.1215,7.6163,7.6542,7.6655,7.6462,7.6136,0.0,0.0,0.0,0.0,7.5834,8.2402,8.7018,9.1152,9.5861,9.7589,9.8247,9.8247,9.4722,9.0501,0.0,8.2982,7.9558,7.6489,0.0,0.0,0.0,8.5694,9.1901,9.1152,9.8323,10.2961,10.1784,10.2711,10.3425,10.3425,10.3425,10.2925,10.1748,10.1284,10.0,9.7681,9.4113,8.9261,8.3018,0.0,0.0,0.0,0.0,0.0,0.0,0.0,0.0,0.0,0.0,0.0,0.0,0.0,0.0,0.0,0.0,0.0,0.0,0.0,0.0,0.0,0.0,0.0,0.0,0.0,0.0,0.0,4.2743,4.8826,5.379,5.3626,5.2113,0.0,0.0,0.0,0.0,0.0,0.0,0.0,0.0,0.0,6.5488,6.8038,6.978,7.0883,7.7872,8.1023,8.0461,8.4217,8.6341,8.7097,8.6887,8.7164,8.7795,8.6248,8.4379,8.2141,7.7795,7.4865,7.2794,0.0,0.0,0.0,0.0,5.8435,6.0126,6.0242,6.3854,6.8506,6.841,0.0,0.0,0.0,0.0,0.0,0.0,0.0,0.0,0.0,0.0,8.8655,9.1545,9.1866,9.208,9.4149,8.6514,7.8594,0.0,7.2922,6.9461,6.6821,0.0,0.0,0.0,0.0,8.5872,8.7014,9.6076,10.2319,10.214,10.289,10.3425,10.3425,10.3425,10.2747,10.1177,10.0428,9.7396,9.1438,9.0118,8.4231,0.0,0.0,0.0,0.0,0.0,0.0,0.0,0.0,0.0,0.0,0.0,0.0,0.0,0.0,0.0,0.0,0.0,0.0,0.0,0.0,0.0,0.0,0.0,0.0,0.0,0.0,0.0,0.0,0.0,4.4453,4.9875,0.0,0.0,0.0,0.0,0.0,0.0,0.0,0.0,0.0,0.0,0.0,0.0,0.0,6.2267,6.2449,6.9584,7.2539,7.1369,7.7115,7.9999,8.0197,8.1062,8.1529,8.1622,7.8669,0.0,7.2076,7.3045,0.0,0.0,0.0,0.0,0.0,0.0,0.0,0.0,0.0,0.0,0.0,0.0,0.0,0.0,0.0,0.0,0.0,0.0,0.0,0.0,0.0,0.0,8.5301,8.4588,8.2519,8.1698,0.0,7.3671,6.3218,6.5663,6.2754,0.0,0.0,0.0,0.0,0.0,0.0,0.0,8.2483,9.34,10.1213,10.2354,10.3032,10.3353,10.3139,10.3104,10.2247,10.025,9.8073,9.3007,8.4302,8.5052,0.0,0.0,0.0,0.0,0.0,0.0,0.0,0.0,0.0,0.0,0.0,0.0,0.0,0.0,0.0,0.0,0.0,0.0,0.0,0.0,0.0,0.0,0.0,0.0,0.0,0.0,0.0,0.0,0.0,0.0,0.0,0.0,0.0,0.0,0.0,0.0,0.0,0.0,0.0,0.0,0.0,0.0,0.0,0.0,0.0,0.0,0.0,0.0,0.0,0.0,6.7032,6.8271,6.9518,6.8399,6.8611,6.995,7.1324,7.2953,7.3874,6.5254,0.0,0.0,0.0,0.0,0.0,0.0,0.0,0.0,0.0,0.0,0.0,0.0,0.0,0.0,0.0,0.0,0.0,0.0,0.0,0.0,0.0,0.0,0.0,0.0,7.1994,7.2066,7.021,0.0,0.0,0.0,0.0,0.0,0.0,0.0,0.0,0.0,0.0,0.0,7.4836,8.9083,9.8716,9.761,10.107,10.289,10.1605,10.1463,9.9679,9.5398,9.0046,8.5123,0.0,0.0,0.0,0.0,0.0,0.0,0.0,0.0,0.0,0.0,0.0,0.0,0.0,0.0,0.0,0.0,0.0,0.0,0.0,0.0,0.0,0.0,0.0,0.0,0.0,0.0,0.0,0.0,0.0,0.0,0.0,0.0,0.0,0.0,0.0,0.0,0.0,0.0,0.0,0.0,0.0,0.0,0.0,0.0,0.0,0.0,0.0,0.0,0.0,0.0,0.0,0.0,0.0,0.0,0.0,0.0,0.0,0.0,0.0,5.9936,0.0,0.0,0.0,0.0,0.0,0.0,0.0,0.0,0.0,0.0,0.0,0.0,0.0,0.0,0.0,0.0,0.0,0.0,0.0,0.0,0.0,0.0,0.0,0.0,0.0,0.0,0.0,0.0,0.0,0.0,0.0,0.0,0.0,0.0,0.0,0.0,0.0,0.0,0.0,0.0,7.3778,8.7049,9.686,9.8573,10.0107,10.1034,10.107,10.0321,9.711,9.0688,8.6657,0.0,0.0,0.0,0.0,0.0,0.0,0.0,0.0,0.0,0.0,0.0,0.0,0.0,0.0,0.0,0.0,0.0,0.0,0.0,0.0,0.0,0.0,0.0,0.0,0.0,0.0,0.0,0.0,0.0,0.0,0.0,0.0,0.0,0.0,0.0,0.0,0.0,0.0,0.0,0.0,0.0,0.0,0.0,0.0,0.0,0.0,0.0,0.0,0.0,0.0,0.0,0.0,0.0,0.0,0.0,0.0,0.0,0.0,0.0,5.7515,4.8448,0.0,0.0,0.0,0.0,0.0,0.0,0.0,0.0,0.0,0.0,0.0,0.0,0.0,0.0,0.0,0.0,0.0,0.0,0.0,0.0,0.0,0.0,0.0,0.0,0.0,0.0,0.0,0.0,0.0,0.0,0.0,0.0,0.0,0.0,0.0,0.0,0.0,0.0,0.0,0.0,7.2708,8.5052,9.497,9.9072,9.9072,9.9108,10.0,9.8609,9.4042,8.548,8.2447,0.0,0.0,0.0,0.0,0.0,0.0,0.0,0.0,0.0,0.0,0.0,0.0,0.0,0.0,0.0,0.0,0.0,0.0,0.0,0.0,0.0,0.0,0.0,0.0,0.0,0.0,0.0,0.0,0.0,0.0,0.0,0.0,0.0,0.0,0.0,0.0,0.0,0.0,0.0,0.0,0.0,0.0,0.0,0.0,0.0,0.0,0.0,0.0,0.0,0.0,0.0,0.0,0.0,0.0,0.0,0.0,0.0,0.0,0.0,0.0,0.0,0.0,0.0,0.0,0.0,0.0,0.0,0.0,0.0,0.0,0.0,0.0,0.0,0.0,0.0,0.0,0.0,0.0,0.0,0.0,0.0,0.0,0.0,0.0,0.0,0.0,0.0,0.0,0.0,0.0,0.0,0.0,0.0,0.0,0.0,0.0,0.0,0.0,0.0,0.0,0.0,6.6536,8.1341,9.2508,9.4363,9.7074,9.8216,9.6932,9.5291,8.9797,7.9094,0.0,0.0,0.0,0.0,0.0,0.0,0.0,0.0,0.0,0.0,0.0,0.0,0.0,0.0,0.0,0.0,0.0,0.0,0.0,0.0,0.0,0.0,0.0,0.0,0.0,0.0,0.0,0.0,0.0,0.0,0.0,0.0,0.0,0.0,0.0,0.0,0.0,0.0,0.0,0.0,0.0,0.0,0.0,0.0,0.0,0.0,0.0,0.0,0.0,0.0,0.0,0.0,0.0,0.0,0.0,0.0,0.0,0.0,0.0,0.0,0.0,0.0,0.0,0.0,0.0,0.0,0.0,0.0,0.0,0.0,0.0,0.0,0.0,0.0,0.0,0.0,0.0,0.0,0.0,0.0,0.0,0.0,0.0,0.0,0.0,0.0,0.0,0.0,0.0,0.0,0.0,0.0,0.0,0.0,0.0,0.0,0.0,0.0,0.0,0.0,0.0,0.0,6.7,8.0628,9.1117,9.3614,9.5077,9.5576,9.4934,9.2544,8.6015,7.4099,0.0,0.0,0.0,0.0,0.0,0.0,0.0,0.0,0.0,0.0,0.0,0.0,0.0,0.0,0.0,0.0,0.0,0.0,0.0,0.0,0.0,0.0,0.0,0.0,0.0,0.0,0.0,0.0,0.0,0.0,0.0,0.0,0.0,0.0,0.0,0.0,0.0,0.0,0.0,0.0,0.0,0.0,0.0,0.0,0.0,0.0,0.0,0.0,0.0,0.0,0.0,0.0,0.0,0.0,0.0,0.0,0.0,0.0,0.0,0.0,0.0,0.0,0.0,0.0,0.0,0.0,0.0,0.0,0.0,0.0,0.0,0.0,0.0,0.0,0.0,0.0,0.0,0.0,0.0,0.0,0.0,0.0,0.0,0.0,0.0,0.0,0.0,0.0,0.0,0.0,0.0,0.0,0.0,0.0,0.0,0.0,0.0,0.0,0.0,0.0,0.0,0.0,6.6447,7.9058,8.9047,9.2187,9.2508,9.2508,9.2508,8.9654,8.2305,6.9247,0.0,0.0,0.0,0.0,0.0,0.0,0.0,0.0,0.0,0.0,0.0,0.0,0.0,0.0,0.0,0.0,0.0,0.0,0.0,0.0,0.0,0.0,0.0,0.0,0.0,0.0,0.0,0.0,0.0,0.0,0.0,0.0,0.0,0.0,0.0,0.0,0.0,0.0,0.0,0.0,0.0,0.0,0.0,0.0,0.0,0.0,0.0,0.0,0.0,0.0,0.0,0.0,0.0,0.0,0.0,0.0,0.0,0.0,0.0,0.0,0.0,0.0,0.0,0.0,0.0,0.0,0.0,0.0,0.0,0.0,0.0,0.0,0.0,0.0,0.0,0.0,0.0,0.0,0.0,0.0,0.0,0.0,0.0,0.0,0.0,0.0,0.0,0.0,0.0,0.0,0.0,0.0,0.0,0.0,0.0,0.0,0.0,0.0,0.0,0.0,0.0,0.0,6.3218,7.5812,8.5801,8.894,8.9261,8.9261,8.9261,8.6407,7.8559,0.0,0.0,0.0,0.0,0.0,0.0,0.0,0.0,0.0,0.0,0.0,0.0,0.0,0.0,0.0,0.0,0.0,0.0,0.0,0.0,0.0,0.0,0.0,0.0,0.0,0.0,0.0,0.0,0.0,0.0,0.0,0.0,0.0,0.0,0.0,0.0,0.0,0.0,0.0,0.0,0.0,0.0,0.0,0.0,0.0,0.0,0.0,0.0,0.0,0.0,0.0,0.0,0.0,0.0,0.0,0.0,0.0,0.0,0.0,0.0,0.0,0.0,0.0,0.0,0.0,0.0,0.0,0.0,0.0,0.0,0.0,0.0,0.0,0.0,0.0,0.0,0.0,0.0,0.0,0.0,0.0,0.0,0.0,0.0,0.0,0.0,0.0,0.0,0.0,0.0,0.0,0.0,0.0,0.0,0.0,0.0,0.0,0.0,0.0,0.0,0.0,0.0,0.0,6.3406,7.5047,8.416,8.7299,8.8584,8.8798,8.7727,8.4766,7.7381,6.4217,0.0,0.0,0.0,0.0,0.0,0.0,0.0,0.0,0.0,0.0,0.0,0.0,0.0,0.0,0.0,0.0,0.0,0.0,0.0,0.0,0.0,0.0,0.0,0.0,0.0,0.0,0.0,0.0,0.0,0.0,0.0,0.0,0.0,0.0,0.0,0.0,0.0,0.0,0.0,0.0,0.0,0.0,0.0,0.0,0.0,0.0,0.0,0.0,0.0,0.0,0.0,0.0,0.0,0.0,0.0,0.0,0.0,0.0,0.0,0.0,0.0,0.0,0.0,0.0,0.0,0.0,0.0,0.0,0.0,0.0,0.0,0.0,0.0,0.0,0.0,0.0,0.0,0.0,0.0,0.0,0.0,0.0,0.0,0.0,0.0,0.0,0.0,0.0,0.0,0.0,0.0,0.0,0.0,0.0,0.0,0.0,0.0,0.0,0.0,0.0,0.0,0.0,0.0,7.2204,8.0342,8.4695,8.655,8.6835,8.5301,8.2804,7.6014,6.3501,0.0,0.0,0.0,0.0,0.0,0.0,0.0,0.0,0.0,0.0,0.0,0.0,0.0,0.0,0.0,0.0,0.0,0.0,0.0,0.0,0.0,0.0,0.0,0.0,0.0,0.0,0.0,0.0,0.0,0.0,0.0,0.0,0.0,0.0,0.0,0.0,0.0,0.0,0.0,0.0,0.0,0.0,0.0,0.0,0.0,0.0,0.0,0.0,0.0,0.0,0.0,0.0,0.0,0.0,0.0,0.0,0.0,0.0,0.0,0.0,0.0,0.0,0.0,0.0,0.0,0.0,0.0,0.0,0.0,0.0,0.0,0.0,0.0,0.0,0.0,0.0,0.0,0.0,0.0,0.0,0.0,0.0,0.0,0.0,0.0,0.0,0.0,0.0,0.0,0.0,0.0,0.0,0.0,0.0,0.0,0.0,0.0,0.0,0.0,0.0,0.0,0.0,0.0,6.8369,7.5502,8.1684,8.3548,8.3834,8.2405,8.0806,7.4632,6.2368,5.8352,0.0,0.0,0.0,0.0,0.0,0.0,0.0,0.0,0.0,0.0,0.0,0.0,0.0,0.0,0.0,0.0,0.0,0.0,0.0,0.0,0.0,0.0,0.0,0.0,0.0,0.0,0.0,0.0,0.0,0.0,0.0,0.0,0.0,0.0,0.0,0.0,0.0,0.0,0.0,0.0,0.0,0.0,0.0,0.0,0.0,0.0,0.0,0.0,0.0,0.0,0.0,0.0,0.0,0.0,0.0,0.0,0.0,0.0,0.0,0.0,0.0,0.0,0.0,0.0,0.0,0.0,0.0,0.0,0.0,0.0,0.0,0.0,0.0,0.0,0.0,0.0,0.0,0.0,0.0,0.0,0.0,0.0,0.0,0.0,0.0,0.0,0.0,0.0,0.0,0.0,0.0,0.0,0.0,0.0,0.0,0.0,0.0,0.0,0.0,0.0,0.0,0.0,6.981,7.727,8.2433,8.3313,8.3361,8.3011,8.1077,7.4586,6.1937,5.8325,0.0,0.0,0.0,0.0,0.0,0.0,0.0,0.0,0.0,0.0,0.0,0.0,0.0,0.0,0.0,0.0,0.0,0.0,0.0,0.0,0.0,0.0,0.0,0.0,0.0,0.0,0.0,0.0,0.0,0.0,0.0,0.0,0.0,0.0,0.0,0.0,0.0,0.0,0.0,0.0,0.0,0.0,0.0,0.0,0.0,0.0,0.0,0.0,0.0,0.0,0.0,0.0,0.0,0.0,0.0,0.0,0.0,0.0,0.0,0.0,0.0,0.0,0.0,0.0,0.0,0.0,0.0,0.0,0.0,0.0,0.0,0.0,0.0,0.0,0.0,0.0,0.0,0.0,0.0,0.0,0.0,0.0,0.0,0.0,0.0,0.0,0.0,0.0,0.0,0.0,0.0,0.0,0.0,0.0,0.0,0.0,0.0,0.0,0.0,0.0,0.0,0.0,6.2357,7.1669,7.977,8.1213,8.1393,8.0684,7.9485,7.3559,6.1259,5.7873,0.0,0.0,0.0,0.0,0.0,0.0,0.0,0.0,0.0,0.0,0.0,0.0,0.0,0.0,0.0,0.0,0.0,0.0,0.0,0.0,0.0,0.0,0.0,0.0,0.0,0.0,0.0,0.0,0.0,0.0,0.0,0.0,0.0,0.0,0.0,0.0,0.0,0.0,0.0,0.0,0.0,0.0,0.0,0.0,0.0,0.0,0.0,0.0,0.0,0.0,0.0,0.0,0.0,0.0,0.0,0.0,0.0,0.0,0.0,0.0,0.0,0.0,0.0,0.0,0.0,0.0,0.0,0.0,0.0,0.0,0.0,0.0,0.0,0.0,0.0,0.0,0.0,0.0,0.0,0.0,0.0,0.0,0.0,0.0,0.0,0.0,0.0,0.0,0.0,0.0,0.0,0.0,0.0,0.0,0.0,0.0,0.0,0.0,0.0,0.0,0.0,0.0,0.0,6.3408,7.5245,7.8543,7.9297,7.774,7.7731,7.2583,6.0288,0.0,0.0,0.0,0.0,0.0,0.0,0.0,0.0,0.0,0.0,0.0,0.0,0.0,0.0,0.0,0.0,0.0,0.0,0.0,0.0,0.0,0.0,0.0,0.0,0.0,0.0,0.0,0.0,0.0,0.0,0.0,0.0,0.0,0.0,0.0,0.0,0.0,0.0,0.0,0.0,0.0,0.0,0.0,0.0,0.0,0.0,0.0,0.0,0.0,0.0,0.0,0.0,0.0,0.0,0.0,0.0,0.0,0.0,0.0,0.0,0.0,0.0,0.0,0.0,0.0,0.0,0.0,0.0,0.0,0.0,0.0,0.0,0.0,0.0,0.0,0.0,0.0,0.0,0.0,0.0,0.0,0.0,0.0,0.0,0.0,0.0,0.0,0.0,0.0,0.0,0.0,0.0,0.0,0.0,0.0,0.0,0.0,0.0,0.0,0.0,0.0,0.0,0.0,0.0,5.872,7.0397,7.6775,7.9576,7.7996,7.8579,7.2999,5.8793,0.0,0.0,0.0,0.0,0.0,0.0,0.0,0.0,0.0,0.0,0.0,0.0,0.0,0.0]}],[{"header":{"parameterUnit":"kt","parameterCategory":2,"dx":1,"dy":1,"la1":29.285339999999998,"la2":30.599998999999997,"lo1":-89.70041500000002,"lo2":-87.6738589999976,"nx":112,"ny":82,"refTime":"2022-10-23T00:00:00:Z","depth":0,"parameterNumber":2,"parameterNumberName":"V-component_of_WINDS"},"data":[2.9593,2.9437,0.0,2.7009,2.571,0.0,2.3386,0.0,1.8815,1.9231,1.8374,1.7413,0.0,0.0,0.0,0.0,0.0,0.0,0.0,1.6377,0.0,0.0,0.0,0.0,0.0,0.0,0.0,0.0,0.0,0.0,0.0,0.0,4.964,5.0817,5.4329,5.6474,5.7024,5.7841,5.8258,5.8277,5.915,5.9568,5.9568,5.9891,6.0043,6.0043,6.0043,6.0043,6.0043,6.0043,6.0043,6.0043,6.0043,6.0043,6.0043,6.0043,6.0043,6.0043,6.0043,6.0043,6.0043,6.0043,6.0043,6.0043,6.0043,6.0043,5.9986,5.9663,5.9796,5.9967,5.9644,5.9815,6.0043,6.0043,6.0043,6.0043,6.0043,6.0043,6.0043,6.0043,6.0043,6.0043,6.0043,6.0043,6.0043,6.0043,6.0043,6.0043,6.0043,6.0043,6.0043,6.0043,6.0043,6.0043,6.0043,5.9077,5.7403,5.5239,5.3128,5.0052,4.6065,4.4871,4.3183,4.1033,4.1033,4.1033,4.1033,4.1033,4.1033,4.1033,4.1033,4.1033,0.0,0.0,2.6074,2.436,0.0,0.0,2.0555,1.8166,1.6218,1.6023,1.5686,1.5321,0.0,0.0,0.0,0.0,0.0,0.0,0.0,0.0,0.0,0.0,0.0,0.0,0.0,0.0,0.0,0.0,0.0,0.0,0.0,4.8368,5.2089,5.2924,5.562,5.7328,5.7898,5.8733,5.915,5.915,5.9758,6.0043,6.0043,6.0043,6.0043,6.0043,6.0043,6.0043,6.0043,6.0043,6.0043,6.0043,6.0043,6.0043,6.0043,6.0043,6.0043,6.0043,6.0043,6.0043,6.0043,6.0043,6.0043,6.0043,6.0043,6.0043,6.0043,6.0043,6.0043,6.0043,6.0043,6.0043,6.0043,6.0043,6.0043,6.0043,6.0043,6.0043,6.0043,6.0043,6.0043,6.0043,6.0043,6.0043,6.0043,6.0043,6.0043,6.0043,6.0043,6.0043,6.0043,6.0043,6.0043,6.0043,6.0043,6.0043,5.9095,5.6925,5.5719,5.3362,4.9119,4.7941,4.6036,4.2709,4.2709,4.2233,4.1033,4.1033,4.1033,4.1033,4.1033,4.1033,2.3944,0.0,2.2568,2.1018,2.0049,1.9062,1.6842,1.6283,1.6075,1.553,1.54,1.5387,1.5413,0.0,0.0,0.0,0.0,0.0,0.0,0.0,2.2137,0.0,0.0,0.0,0.0,0.0,0.0,0.0,0.0,0.0,4.9982,5.3209,5.5411,5.6227,5.7841,5.8714,5.8733,5.9606,6.0043,6.0043,6.0043,6.0043,6.0043,6.0043,6.0043,6.0043,6.0043,6.0043,6.0043,6.0043,6.0043,6.0043,6.0043,6.0043,6.0043,6.0043,6.0043,6.0043,6.0043,6.0043,6.0043,6.0043,6.0043,6.0043,6.0043,6.0043,6.0043,6.0043,6.0043,6.0043,6.0043,6.0043,6.0043,6.0043,6.0043,6.0043,6.0043,6.0043,6.0043,6.0043,6.0043,6.0043,6.0043,6.0043,6.0043,6.0043,6.0043,6.0043,6.0043,6.0043,6.0043,6.0043,6.0043,6.0043,6.0043,6.0043,6.0043,6.0043,5.6925,5.5007,5.5007,5.1923,4.8865,4.5824,4.5824,4.4143,4.1033,4.1033,4.1033,4.1033,4.1033,4.1033,2.1166,2.1036,2.0386,1.9503,1.9166,1.8776,1.7738,1.6205,1.5076,1.5361,1.5783,0.0,0.0,0.0,0.0,0.0,0.0,2.0806,2.163,2.1967,2.5279,0.0,0.0,0.0,0.0,0.0,0.0,0.0,0.0,0.0,5.0058,5.374,5.6265,5.71,5.8144,5.9018,5.9682,5.9929,6.0043,6.0043,6.0043,6.0043,6.0043,6.0043,6.0043,6.0043,6.0043,6.0043,6.0043,6.0043,6.0043,6.0043,6.0043,6.0043,6.0043,6.0043,6.0043,6.0043,6.0043,6.0043,6.0043,6.0043,6.0043,6.0043,6.0043,6.0043,6.0043,6.0043,6.0043,6.0043,6.0043,6.0043,6.0043,6.0043,6.0043,6.0043,6.0043,6.0043,6.0043,6.0043,6.0043,6.0043,6.0043,6.0043,6.0043,6.0043,6.0043,6.0043,6.0043,6.0043,6.0043,6.0043,6.0043,6.0043,6.0043,6.0043,6.0043,6.0043,5.6925,5.3128,4.8642,4.7702,4.5568,4.2464,4.2478,4.2002,4.1033,4.1033,4.1033,4.1033,4.1033,4.1033,1.8478,1.8322,1.7802,1.7478,1.7582,1.7608,1.6921,1.6049,1.5466,1.6095,0.0,0.0,0.0,0.0,0.0,0.0,2.2391,0.0,2.5456,2.6234,2.9423,3.6789,0.0,0.0,0.0,0.0,0.0,0.0,5.3645,5.4044,5.3209,5.5753,5.748,5.7974,5.8809,5.9511,6.0043,6.0043,6.0043,6.0043,6.0043,6.0043,6.0043,6.0043,6.0043,6.0043,6.0043,6.0043,6.0043,6.0043,6.0043,6.0043,6.0043,6.0043,6.0043,6.0043,6.0043,6.0043,6.0043,6.0043,6.0043,6.0043,6.0043,6.0043,6.0043,6.0043,6.0043,6.0043,6.0043,6.0043,6.0043,6.0043,5.9948,5.9568,5.9777,5.9948,5.9568,5.9777,6.0043,6.0043,6.0043,6.0043,6.0043,6.0043,6.0043,6.0043,6.0043,6.0043,6.0043,6.0043,6.0043,6.0043,6.0043,6.0043,6.0043,6.0043,6.0043,6.0043,5.6925,5.3595,4.9831,4.8642,4.6277,4.3183,4.2953,4.2478,4.1033,4.1033,4.1033,4.1033,4.1033,4.1033,1.6205,1.5751,1.5243,1.5308,1.5845,1.6245,1.569,0.0,1.7573,1.8123,0.0,2.0229,2.1053,0.0,0.0,2.3051,2.5334,2.7886,3.0088,3.2688,3.5384,3.8174,4.1136,0.0,0.0,5.002,5.4291,5.7252,5.8334,5.8486,5.7651,5.8486,5.898,5.898,5.9758,6.0176,6.0176,6.01,6.0043,6.0043,6.0043,6.0043,6.0043,6.0043,6.0043,6.0043,6.0043,6.0043,6.0043,6.0043,6.0043,6.0043,6.0043,6.0043,6.0043,6.0043,6.0043,6.0043,6.0043,6.0043,6.0043,6.0043,6.0043,6.0043,6.0043,6.0043,6.0043,6.0043,6.0043,6.0043,6.0043,6.0043,5.9853,5.9037,5.9473,5.9834,5.9018,5.9492,6.0043,6.0043,6.0043,6.0043,6.0043,6.0043,6.0043,6.0043,6.0043,6.0043,6.0043,6.0043,6.0043,6.0043,6.0043,6.0043,6.0043,6.0043,6.0043,6.0043,5.6925,5.5007,5.4758,5.1688,4.8627,4.5341,4.5341,4.3914,4.1033,4.1033,4.1033,4.1033,4.1033,4.1033,1.5712,1.5141,1.4803,1.5296,1.5941,1.6532,0.0,0.0,0.0,2.3792,2.7391,2.9945,2.792,2.8743,2.9821,3.0365,3.1544,3.2499,3.2992,4.0301,0.0,5.1823,5.2943,0.0,5.4746,5.5866,5.6797,5.7423,5.8923,5.9397,5.8505,5.9929,6.0764,6.0764,6.0935,6.103,6.103,6.0384,6.0043,6.0043,6.0043,6.0043,6.0043,6.0043,6.0043,6.0043,6.0043,6.0043,6.0043,6.0043,6.0043,6.0043,6.0043,6.0043,6.0043,6.0043,6.0043,6.0043,6.0043,6.0043,6.0043,6.0043,6.0043,6.0043,6.0043,6.0043,6.0043,6.0043,6.0043,6.0043,6.0043,6.0043,6.0005,5.9834,5.9929,6.0005,5.9815,5.9929,6.0043,6.0043,6.0043,6.0043,6.0043,6.0043,6.0043,6.0043,6.0043,6.0043,6.0043,6.0043,6.0043,6.0043,6.0043,6.0043,6.0043,6.0043,6.0043,6.0043,5.6925,5.4061,5.1437,4.8404,4.5326,4.1988,4.1988,4.1756,4.1033,4.1033,4.1033,4.1033,4.1033,4.1033,1.5037,1.453,1.4389,1.5599,1.6444,0.0,0.0,2.1099,2.4107,2.6785,2.9433,3.1938,3.3665,3.4569,3.5251,3.6124,3.6979,3.8725,4.2104,4.8653,5.3418,5.4272,5.5828,5.7347,5.8638,5.8771,5.9112,5.9948,6.0802,6.1106,6.065,6.1428,6.1903,6.1903,6.1485,6.1258,6.1258,6.046,6.0043,6.0043,6.0043,6.0043,6.0043,6.0043,6.0043,6.0043,6.0043,6.0043,6.0043,6.0043,6.0043,6.0043,6.0043,6.0043,6.0043,6.0043,6.0043,6.0043,6.0043,6.0043,6.0043,6.0043,6.0043,6.0043,6.0043,6.0043,6.0043,6.0043,6.0043,6.0043,6.0043,6.0043,5.9929,5.9473,5.972,5.9929,5.9473,5.972,6.0043,6.0043,6.0043,6.0043,6.0043,6.0043,6.0043,6.0043,6.0043,6.0043,6.0043,6.0043,6.0043,6.0043,6.0043,6.0043,6.0043,6.0043,6.0043,6.0043,5.6925,5.4526,5.286,4.9815,4.6743,4.3427,4.1743,4.1033,4.1033,4.1033,4.1033,4.1033,4.1033,4.1033,1.4461,1.4257,1.4612,1.6258,1.7503,0.0,2.0594,2.2702,2.5496,3.0189,3.2412,3.4706,3.9373,4.0301,4.0699,4.1534,4.2559,4.5464,5.1842,5.562,5.6778,5.4291,5.6493,5.8771,6.0157,6.0422,6.1087,6.2434,6.2529,6.2605,6.2757,6.2909,6.3004,6.3004,6.2036,6.1504,6.1504,6.0536,6.0043,6.0043,6.0043,6.0043,6.0043,6.0043,6.0043,6.0043,6.0043,6.0043,6.0043,6.0043,6.0043,6.0043,6.0043,6.0043,6.0043,6.0043,6.0043,6.0043,6.0043,6.0043,6.0043,6.0043,6.0043,6.0043,6.0043,6.0043,6.0043,6.0043,6.0043,6.0043,6.0043,6.0043,5.9872,5.9131,5.953,5.9853,5.9112,5.953,6.0043,6.0043,6.0043,6.0043,6.0043,6.0176,6.0289,6.0289,6.0422,6.0536,6.0536,6.0536,6.0536,6.0536,6.0536,6.0536,6.0536,6.0384,6.0289,6.0289,5.7723,5.595,5.5239,5.286,5.0036,4.6758,4.3657,4.1756,4.1033,4.1756,4.1756,4.1033,4.1033,4.1033,1.3881,1.4916,1.6358,1.709,1.9441,0.0,2.3497,3.0003,3.6014,3.7339,4.3079,4.724,4.5711,4.5995,4.6774,4.7609,4.9128,5.1994,5.7138,5.8277,5.8733,5.915,6.0176,6.0916,6.1106,6.1808,6.234,6.251,6.2529,6.2852,6.3573,6.4295,6.4693,6.4693,6.3194,6.2397,6.2397,6.084,6.0043,6.0043,6.0043,6.0043,6.0043,6.0043,6.0043,6.0043,6.0043,6.0043,6.0043,6.0043,6.0043,6.0043,6.0043,6.0043,6.0043,6.0043,6.0043,6.0043,6.0043,6.0043,6.0043,6.0043,6.0043,6.0043,6.0043,6.0043,6.0043,6.0043,6.0043,6.0043,6.0043,6.0043,6.0024,5.9929,5.9967,6.0024,5.9929,5.9986,6.0043,6.0043,6.0043,6.0043,6.0043,6.065,6.1125,6.1125,6.177,6.2264,6.2264,6.2264,6.2264,6.2264,6.2264,6.2264,6.2264,6.1561,6.1125,6.1125,6.0194,5.8126,5.5239,5.4775,5.3111,5.0036,4.6998,4.39,4.1033,4.3914,4.3914,4.1033,4.1033,4.1033,1.4128,1.5348,1.6909,1.8561,0.0,0.0,2.5062,3.0609,3.5574,3.6371,4.2939,4.852,4.8463,5.0703,5.2848,5.3702,5.5278,5.7119,5.9188,5.9891,6.0327,6.0707,6.1485,6.2188,6.2662,6.3023,6.3441,6.3915,6.2169,6.2074,6.4333,6.4788,6.4959,6.4959,6.3839,6.3004,6.2529,6.1352,6.0517,6.0043,6.0043,6.0043,6.0043,6.0043,6.0043,6.0043,6.0043,6.0043,6.0043,6.0043,6.0043,6.0043,6.0043,6.0043,6.0043,6.0043,6.0043,6.0043,6.0043,6.0043,6.0043,6.0043,6.0043,6.0043,6.0043,6.0043,6.0043,6.0043,6.0043,6.0043,6.0043,6.0043,6.0043,6.0043,6.0043,6.0043,6.0043,6.0043,6.0194,6.0669,6.1163,6.1485,6.1485,6.1789,6.1998,6.1998,6.2302,6.2529,6.2529,6.2529,6.2529,6.2529,6.2529,6.2529,6.2529,6.2207,6.1998,6.1998,6.1675,6.1001,5.9525,5.9065,5.736,5.4005,5.2154,4.9815,4.6488,4.4493,4.2989,4.1526,4.1188,4.1033,1.4904,0.0,0.0,0.0,0.0,0.0,2.677,3.1549,3.5934,3.7453,4.4059,5.0077,5.1785,5.4727,5.7176,5.8049,5.9416,6.0384,6.0384,6.1106,6.1618,6.1618,6.2359,6.3099,6.3687,6.3953,6.4333,0.0,6.2757,6.2453,6.4845,6.4959,6.4959,6.4959,6.4162,6.346,6.2871,6.1808,6.0973,6.0384,6.0157,6.0043,6.0043,6.0043,6.0043,6.0043,6.0043,6.0043,6.0043,6.0043,6.0043,6.0043,6.0043,6.0043,6.0043,6.0043,6.0043,6.0043,6.0043,6.0043,6.0043,6.0043,6.0043,6.0043,6.0043,6.0043,6.0043,6.0043,6.0043,6.0043,6.0043,6.0043,6.0043,6.0043,6.0043,6.0043,6.0043,6.0403,6.0916,6.1504,6.2112,6.2529,6.2529,6.2719,6.2795,6.2567,6.2719,6.2871,6.2871,6.2871,6.2947,6.3175,6.3213,6.3213,6.3213,6.3004,6.2871,6.2871,6.2643,6.2529,6.2529,6.1941,6.0142,5.6949,5.5207,5.3008,4.9649,4.5576,4.3608,4.3343,4.2181,4.1422,0.0,0.0,0.0,2.2712,2.4695,2.6759,2.929,3.5004,4.0718,4.4002,5.0058,5.5278,5.6948,5.8011,5.8923,5.9834,6.0669,6.1239,6.1239,6.196,6.2491,6.2491,6.3213,6.3725,6.3744,6.4466,6.494,6.4959,6.4883,6.4864,6.4959,6.4959,6.4959,6.4959,6.4162,6.3744,6.3706,6.2093,6.1258,6.122,6.0422,6.0043,6.0043,6.0043,6.0043,6.0043,6.0043,6.0043,6.0043,6.0043,6.0043,6.0043,6.0043,6.0043,6.0043,6.0043,6.0043,6.0043,6.0043,6.0043,6.0043,6.0043,6.0043,6.0043,6.0043,6.0043,6.0043,6.0043,6.0043,6.0043,6.0043,6.0043,6.0043,6.0043,6.0043,6.0043,6.0043,6.1314,6.2472,6.2491,6.251,6.2529,6.2529,6.3175,6.3441,6.2643,6.3213,6.3706,6.3706,6.3706,6.401,6.4807,6.4902,6.4902,6.4902,6.4162,6.3706,6.3706,6.2966,6.2529,6.2529,6.251,6.0995,5.75,5.4312,5.1115,4.764,4.7403,4.7181,4.7166,4.4186,4.2396,1.9476,2.064,2.2568,2.8938,2.9615,3.0107,3.5403,4.0073,4.3623,4.478,5.1652,5.6948,5.5316,5.7518,5.9872,6.0726,6.1087,6.1466,6.2017,6.2814,6.3346,6.3346,6.5896,6.6866,6.4785,6.6659,6.7038,6.5204,6.2928,0.0,6.4845,6.289,6.27,6.4902,6.6783,6.7268,6.6946,6.3784,6.1827,6.1258,6.0441,6.0043,6.0043,6.0043,6.0043,6.0043,6.0043,6.0043,6.0043,6.0043,6.0043,6.0043,6.0043,6.0043,6.0043,6.0043,6.0043,6.0043,6.0043,6.0043,6.0043,6.0043,6.0043,6.0043,6.0043,6.0043,6.0043,6.0043,6.0043,6.0043,6.0043,6.0043,6.0043,6.0043,6.0574,6.1049,6.0897,6.2169,6.3346,6.3346,6.3782,6.4143,6.4143,6.4371,6.4466,6.42,6.4371,6.4561,6.4561,6.4561,6.4674,6.494,6.4959,6.4959,6.4959,6.4712,6.4561,6.4561,6.4295,6.4143,6.4143,6.363,6.183,5.8307,5.6567,5.2331,4.5397,4.4993,4.4805,4.4791,4.3403,4.2643,2.2543,2.4081,2.6147,3.4285,3.3968,3.3524,4.0244,4.3452,4.5597,4.7723,5.3778,5.8144,5.636,5.8467,6.065,6.1182,6.177,6.234,6.289,6.3668,6.4181,6.4181,6.6502,6.7058,6.5204,6.6815,6.7502,6.6592,6.4585,6.4995,6.8125,6.636,6.5482,6.6514,6.8425,6.886,6.7168,6.4519,6.2548,6.1713,6.0878,6.0327,6.0043,6.0043,6.0043,6.0043,6.0043,6.0043,6.0043,6.0043,6.0043,6.0043,6.0043,6.0043,6.0043,6.0043,6.0043,6.0043,6.0043,6.0043,6.0043,6.0043,6.0043,6.0043,6.0043,6.0043,6.0043,6.0043,6.0043,6.0043,6.0043,6.027,6.0479,6.0479,6.1239,6.1979,6.2131,6.3232,6.4181,6.4181,6.4371,6.4542,6.4542,6.4295,6.3991,6.3687,6.3896,6.4086,6.4086,6.4352,6.4542,6.4542,6.4788,6.4845,6.4561,6.4807,6.4959,6.4959,6.4693,6.4542,6.4542,6.4029,6.1491,5.6947,5.6479,5.3074,4.624,4.4573,4.3889,4.3876,4.3513,4.3344,2.531,2.8126,3.1286,3.8658,3.8004,3.7282,4.3964,4.5483,4.7115,5.2848,5.6569,5.9037,5.9948,6.0745,6.1295,6.1371,6.2719,6.3763,6.3801,6.4485,6.4959,6.4959,6.4959,6.5185,6.5185,6.5185,6.6592,6.9601,6.9839,7.124,7.4069,7.43,7.2884,6.9601,6.9839,6.8205,6.4959,6.4423,6.3604,6.251,6.1675,6.084,6.0043,6.0043,6.0043,6.0043,6.0043,6.0043,6.0043,6.0043,6.0043,6.0043,6.0043,6.0043,6.0043,6.0043,6.0043,6.0043,6.0043,6.0043,6.0043,6.0043,6.0043,6.0043,6.0043,6.0081,6.0119,6.0119,6.0138,6.0176,6.0176,6.0745,6.1333,6.1371,6.196,6.2757,6.363,6.4428,6.4959,6.4902,6.4276,6.3744,6.3687,6.308,6.2302,6.1466,6.2017,6.2529,6.2529,6.3213,6.3687,6.3687,6.4371,6.4523,6.3744,6.4428,6.4902,6.4902,6.4219,6.382,6.382,6.382,6.0534,5.4002,5.4679,5.3462,4.9848,4.6518,4.4701,4.4701,4.4701,4.4435,2.917,3.1427,3.3713,4.4705,4.4951,4.423,5.0931,5.1975,5.2677,5.6626,5.8657,5.9967,6.0802,6.1125,6.1675,6.2909,6.3479,6.3953,6.458,6.4826,6.4959,6.4959,6.7058,6.8445,6.8445,7.0552,7.2203,7.3117,7.3117,7.335,7.43,7.43,7.2884,6.9601,7.1947,7.0335,6.4959,6.7063,6.6216,6.251,6.1675,6.084,6.0043,6.0043,6.0043,6.0043,6.0043,6.0043,6.0043,6.0043,6.0043,6.0043,6.0043,6.0043,6.0043,6.0043,6.0043,6.0043,6.0043,6.0043,6.0043,6.0043,6.0043,6.0043,6.0043,6.046,6.0954,6.0954,6.1409,6.1903,6.1903,6.2055,6.2302,6.27,6.2662,6.2909,6.4352,6.4826,6.4788,6.4181,6.3896,6.3554,6.2947,6.3175,6.3156,6.234,6.2397,6.2529,6.2529,6.27,6.2833,6.2833,6.3023,6.3061,6.2852,6.3592,6.4048,6.4048,6.4428,6.4655,6.4655,6.4655,6.2599,5.8266,5.8454,5.6769,5.3477,4.9848,4.8306,4.8306,4.5737,4.4435,2.9847,3.3631,3.7547,4.6635,4.6944,4.6963,5.4405,5.4898,5.4822,5.8524,5.9701,6.0308,6.1106,6.158,6.2245,6.3535,6.4048,6.4447,6.4902,6.4959,6.543,6.6815,6.8445,7.0057,7.1476,7.3117,7.4763,7.6141,7.6369,7.6825,7.8207,7.8455,7.6825,7.3772,7.5431,7.335,6.7058,6.8665,6.7507,6.3592,6.2397,6.1201,6.0043,6.0043,6.0043,6.0043,6.0043,6.0043,6.0043,6.0043,6.0043,6.0043,6.0043,6.0043,6.0043,6.0043,6.0043,6.01,6.046,6.0574,6.065,6.1011,6.1144,6.1144,6.1144,6.1466,6.1827,6.1827,6.2169,6.2529,6.2529,6.2795,6.3137,6.3441,6.3554,6.3744,6.4314,6.4428,6.4295,6.3839,6.346,6.2947,6.2112,6.2359,6.2491,6.2055,6.2283,6.2662,6.3023,6.2757,6.2529,6.2529,6.2529,6.2378,6.1998,6.2738,6.3365,6.3725,6.3839,6.4048,6.4409,6.4428,6.2887,5.9323,5.9639,5.9061,5.704,5.3462,5.1135,4.9601,4.7532,4.5989,2.9033,3.4701,4.0737,4.5995,4.6907,4.833,5.524,5.5677,5.5639,5.9302,6.0138,6.046,6.1277,6.2131,6.2966,6.3782,6.4504,6.4959,6.4959,6.5185,6.6592,6.9363,7.0057,7.1476,7.451,7.4993,7.6141,7.9376,7.9599,8.0758,8.3534,8.3534,8.1908,7.8455,7.823,7.5179,6.9144,6.8905,6.7443,6.4788,6.327,6.1656,6.0043,6.0043,6.0043,6.0043,6.0043,6.0043,6.0043,6.0043,6.0043,6.0062,6.0176,6.0213,6.0232,6.0346,6.0365,6.0479,6.1201,6.1428,6.1561,6.2283,6.2529,6.2529,6.2529,6.2605,6.27,6.27,6.2776,6.2852,6.2852,6.3384,6.3915,6.3915,6.4466,6.4769,6.4067,6.3915,6.3877,6.3763,6.3175,6.2415,6.158,6.1352,6.1258,6.1258,6.1884,6.2662,6.3479,6.2871,6.2359,6.2359,6.2264,6.1903,6.1163,6.1884,6.2662,6.3365,6.2966,6.3004,6.3725,6.3839,6.2629,5.9607,6.0246,6.0583,6.0583,5.704,5.396,5.0875,5.0109,4.8044,3.0069,3.3865,3.8421,4.4837,5.0399,5.412,5.3513,5.6265,5.9169,5.9891,6.0593,6.1314,6.215,6.2985,6.3801,6.4617,6.4883,6.4959,6.4959,6.7058,6.8905,6.9601,7.1947,7.4741,7.7755,7.8207,7.9376,8.2614,8.2833,8.3075,8.3534,8.3534,8.0979,7.5224,7.4993,7.1968,6.59,6.5656,6.5086,6.3953,6.2985,6.1656,6.0043,6.0043,6.0043,6.0043,6.0043,6.0043,6.0043,6.0043,6.0043,6.0119,6.0783,6.1049,6.1144,6.1846,6.2112,6.2131,6.2264,6.2321,6.234,6.2491,6.2529,6.2529,6.2529,6.3004,6.3535,6.3535,6.4029,6.4542,6.4542,6.4636,6.475,6.475,6.4864,6.494,6.4788,6.475,6.4561,6.3877,6.363,6.327,6.2453,6.1732,6.1258,6.1258,6.139,6.1789,6.2624,6.1998,6.1485,6.1485,6.0878,6.0422,6.027,6.1011,6.1542,6.1675,6.2852,6.3611,6.3744,6.4409,6.4506,6.3977,6.3863,6.3937,6.3937,6.0601,5.8809,5.8019,5.2141,4.934,3.2688,3.4055,3.5498,4.0452,4.5407,5.0153,5.4177,5.6303,5.7917,5.9682,5.9302,5.9435,6.2055,6.3194,6.401,6.4826,6.4959,6.543,6.7058,6.8665,7.0747,7.4025,7.5661,7.7981,8.0979,8.1445,8.1908,8.3534,8.3534,8.2833,8.1224,8.1224,7.9129,7.43,7.5912,7.3583,6.7522,6.8925,6.8025,6.4371,6.3118,6.2112,6.1314,6.0441,6.0043,6.0043,6.0043,6.0289,6.0669,6.0669,6.0954,6.1371,6.177,6.1922,6.1979,6.2378,6.2529,6.2586,6.3023,6.3156,6.3232,6.3668,6.3801,6.3801,6.3801,6.4067,6.4371,6.4371,6.4674,6.4959,6.4959,6.4959,6.4959,6.4959,6.4636,6.4333,6.4333,6.4333,6.4219,6.382,6.3744,6.363,6.3232,6.2112,6.1258,6.1258,6.1258,6.158,6.2434,6.1428,6.0783,6.122,6.0536,6.0043,6.0043,6.0403,6.0821,6.1239,6.2415,6.3308,6.3725,6.4542,6.4959,6.4959,6.4959,6.4959,6.4959,6.316,6.1616,5.9814,5.6482,5.3944,3.3941,3.3732,3.3315,3.7738,4.0016,4.3679,5.3171,5.4614,5.5088,5.9207,5.8733,5.8581,6.1922,6.3346,6.4219,6.4864,6.543,6.6815,6.9124,7.0768,7.3329,7.8432,7.9599,8.0979,8.3317,8.3534,8.3534,8.3534,8.3534,8.2614,8.0068,7.9845,7.8455,7.5453,7.7529,7.6347,7.0531,7.3117,7.1392,0.0,6.4108,6.3103,6.2207,6.0726,6.0157,6.0327,6.0498,6.0954,6.1542,6.1542,6.1941,6.2548,6.2719,6.2795,6.2814,6.2985,6.3061,6.3156,6.3801,6.401,6.4105,6.475,6.4959,6.4959,6.4959,6.4959,6.4959,6.4959,6.4959,6.4959,6.4959,6.4959,6.4921,6.475,6.4219,6.3744,6.3744,6.3611,6.3535,6.3706,6.3611,6.3422,6.3251,6.2131,6.1201,6.103,6.1144,6.158,6.2434,6.122,6.0555,6.1201,6.0536,6.0043,6.0043,6.0043,6.0327,6.0973,6.196,6.2814,6.346,6.4105,6.4523,6.4693,6.4693,6.4788,6.4959,6.4959,6.3672,6.085,6.0333,5.8557,3.0923,3.1511,3.3239,4.1212,3.9978,3.8839,4.6603,4.9469,5.2298,5.8733,6.1068,6.2074,6.2453,6.3801,6.4883,6.4959,6.728,6.9363,6.9601,7.4488,7.8207,7.8904,8.1445,8.3293,8.3534,8.3534,8.3534,8.3534,8.3534,8.3534,8.3075,8.3075,8.1689,7.868,7.868,7.728,7.3815,7.4069,7.2245,6.8183,6.7187,6.4748,6.1352,6.046,6.046,6.1201,6.1979,6.234,6.2415,6.2415,6.2453,6.2605,6.3346,6.3649,6.3725,6.4466,6.475,6.475,6.4826,6.4864,6.4864,6.494,6.4959,6.4959,6.4959,6.4959,6.4959,6.4959,6.4959,6.4959,6.4959,6.4959,6.4788,6.4029,6.3801,6.3744,6.3744,6.3156,6.2852,6.3611,6.3156,6.2397,6.1618,6.1371,6.1011,6.027,6.0783,6.158,6.2434,6.1732,6.1182,6.1258,6.0536,6.0043,6.0043,6.0043,6.0081,6.0157,6.1656,6.2567,6.2643,6.27,6.3099,6.3839,6.3858,6.4219,6.4959,6.4959,6.4714,6.4449,6.1367,5.9814,2.9651,2.9727,3.0505,3.6903,3.7738,3.8174,4.2692,4.5426,4.8615,5.4329,5.7233,5.8277,5.6778,6.0726,6.4427,6.4695,6.7532,7.0984,7.4719,7.728,7.9599,8.1468,8.2857,8.3534,8.3534,8.3534,8.3534,8.3534,8.3534,8.2833,8.0979,8.0758,7.9376,7.6141,7.7981,7.7529,7.43,7.43,7.2203,6.8275,6.5601,6.3456,6.2017,6.1694,6.1732,6.2055,6.2378,6.2529,6.2567,6.3061,6.3554,6.4029,6.4352,6.4485,6.4523,6.4845,6.4959,6.4959,6.4959,6.4959,6.4959,6.4959,6.4959,6.4959,6.4959,6.4959,6.4959,6.4959,6.4959,6.4959,6.4959,6.4959,6.4883,6.4561,6.4105,6.3744,6.3744,6.3099,6.2624,6.2947,6.2757,6.2434,6.2074,6.1599,6.1163,6.084,6.0631,6.065,6.0992,6.0745,6.0536,6.0536,6.0232,6.0043,6.0043,6.0043,6.0043,6.0043,6.1125,6.177,6.177,6.2738,6.3422,6.3744,6.3744,6.4143,6.4959,6.4959,6.4959,6.4959,6.3425,6.2912,2.7867,2.7829,2.8265,3.3068,3.4966,3.6941,4.1971,4.33,4.5065,5.0627,5.4538,5.6189,5.3702,5.8182,6.2798,6.4016,6.7324,7.158,7.8046,7.9599,8.1224,8.3317,8.3534,8.3534,8.3534,8.3534,8.3534,8.3534,8.3534,8.2614,8.0513,8.0291,7.9352,7.7075,7.9129,7.8904,7.5683,7.5683,7.3108,6.8275,6.5644,6.3665,6.2529,6.2529,6.2662,6.289,6.289,6.3023,6.3289,6.3877,6.4447,6.4959,6.4959,6.4959,6.4959,6.4959,6.4959,6.4959,6.4959,6.4959,6.4959,6.4959,6.4959,6.4959,6.4959,6.4959,6.4959,6.4959,6.4959,6.4959,6.4959,6.4617,6.4181,6.3934,6.3422,6.3004,6.3004,6.2378,6.1865,6.2112,6.196,6.1789,6.1789,6.1504,6.1258,6.1258,6.0992,6.0783,6.0783,6.0783,6.0688,6.0441,6.0403,6.0308,6.0062,6.0043,6.0043,6.0043,6.1049,6.1409,6.0916,6.251,6.3384,6.3384,6.363,6.4143,6.4959,6.4959,6.4959,6.4959,6.4959,6.4959,2.5076,2.5665,2.7278,3.1492,3.191,3.4112,4.4932,4.3585,4.1933,4.8672,5.4652,5.7917,5.543,5.7043,5.98,6.2971,6.6687,7.144,7.8104,8.1689,8.3534,8.3534,8.3534,8.3534,8.3534,8.3534,8.3534,8.3534,8.3534,8.3534,8.3534,8.3534,8.3534,8.3534,8.3534,8.2128,7.8904,7.8904,7.54,6.8529,6.8275,6.6252,6.2529,6.2529,6.2966,6.3744,6.3744,6.42,6.494,6.4959,6.4959,6.4959,6.4959,6.4959,6.4959,6.4959,6.4959,6.4959,6.4959,6.4959,6.4959,6.4959,6.4959,6.4959,6.4959,6.4959,6.4959,6.4959,6.4959,6.4959,6.4959,6.3763,6.234,6.1504,6.1295,6.1295,6.1295,6.065,6.0308,6.1125,6.0612,6.0062,6.0062,6.0726,6.1258,6.1258,6.1979,6.251,6.251,6.251,6.2188,6.1352,6.1258,6.0916,6.0119,6.0043,6.0043,6.0043,6.1599,6.177,6.0119,6.1656,6.2548,6.2548,6.3346,6.4143,6.4959,6.4959,6.4959,6.4959,6.4959,6.4959,2.5038,2.5627,2.7658,3.3581,3.2688,3.2916,4.2711,4.1022,4.013,4.9754,4.8159,4.5654,4.7761,5.4066,6.0809,6.5786,7.1106,7.6421,8.1402,8.3075,8.3534,8.3534,8.3534,8.3534,8.3534,8.3534,8.3534,8.3534,8.3534,8.3534,8.3534,8.3534,8.3534,8.3534,8.4266,8.4167,8.3233,8.11,7.7549,7.2645,6.8044,6.5071,6.3384,6.3953,6.4333,6.458,6.458,6.4731,6.4959,6.4959,6.4959,6.4959,6.4959,6.4959,6.4959,6.4959,6.4959,6.4959,6.4959,6.4959,6.4959,6.4959,6.4959,6.4959,6.4959,6.4959,6.4959,6.4959,6.4561,6.4257,6.4826,6.4162,6.3289,6.3023,6.2093,6.1258,6.1258,6.1068,6.0954,6.122,6.1523,6.1751,6.1751,6.2415,6.2776,6.2226,6.2833,6.3156,6.2605,6.2529,6.2434,6.2169,6.2131,6.2036,6.177,6.1751,6.1504,6.0916,6.2453,6.3118,6.2605,6.2548,6.2795,6.3346,6.2491,6.2738,6.4143,6.4143,6.4428,6.4959,6.4959,6.4959,2.5038,2.5399,2.7164,3.2897,3.1644,3.1455,4.0718,3.8421,3.7168,4.7153,4.4629,4.1705,4.5274,5.1309,5.8234,6.5888,7.0806,7.6208,8.2686,8.3534,8.3534,8.3534,8.3534,8.3534,8.3534,8.3534,8.3534,8.3534,8.3534,8.373,8.412,8.4144,8.434,8.473,8.5389,8.5066,8.349,8.0201,7.6814,7.3396,6.8846,6.5854,6.4219,6.4731,6.4959,6.4959,6.4959,6.4959,6.4959,6.4959,6.4959,6.4959,6.4959,6.4959,6.4959,6.4959,6.4959,6.4959,6.4959,6.4959,6.4959,6.4959,6.4959,6.4959,6.4959,6.4959,6.4959,6.4959,6.4599,6.4181,6.4067,6.3194,6.251,6.3137,6.2245,6.1428,6.2074,6.196,6.1751,6.1751,6.2169,6.2529,6.2529,6.3213,6.3573,6.3061,6.3687,6.4029,6.3516,6.3441,6.3441,6.3441,6.3175,6.2871,6.2548,6.2529,6.2302,6.177,6.3289,6.3934,6.3327,6.3706,6.401,6.42,6.3516,6.3498,6.4219,6.3896,6.401,6.4504,6.42,6.3452,2.5038,2.5038,2.6063,3.0449,2.9385,2.969,3.9067,3.5934,3.3448,4.1933,4.3243,4.3717,4.6508,4.8273,5.2925,6.3369,6.7077,7.1918,8.1622,8.3046,8.3071,8.3071,8.3071,8.3071,8.3071,8.3363,8.3583,8.3656,8.3656,8.412,8.5194,8.5267,8.5731,8.6707,8.6731,8.4818,8.0545,7.7636,7.4403,7.1304,6.9927,6.7644,6.4712,6.4883,6.4959,6.4959,6.4769,6.4807,6.4959,6.4769,6.4807,6.4959,6.4959,6.4959,6.4959,6.4959,6.4959,6.4959,6.4959,6.4959,6.4959,6.4959,6.4959,6.4959,6.4959,6.4959,6.4959,6.4959,6.5054,6.4788,6.3213,6.1656,6.0878,6.2359,6.2112,6.1941,6.3422,6.3194,6.2681,6.2624,6.2662,6.27,6.27,6.3384,6.3896,6.3839,6.4542,6.5035,6.4978,6.4959,6.4959,6.4959,6.4295,6.3535,6.2776,6.27,6.27,6.27,6.4124,6.4314,6.2852,6.4902,6.57,6.4978,6.5624,6.5605,6.4883,6.4048,6.3687,6.3725,6.2909,6.1422,2.5038,2.5038,2.6348,3.1834,2.9841,2.8949,3.8174,3.4606,3.1891,4.0965,3.8193,3.5915,4.1667,4.3583,4.7996,5.9536,6.8613,7.4843,7.7151,7.8141,7.8654,7.8654,7.8654,7.8654,7.8654,8.1606,8.3876,8.4706,8.4779,8.5243,8.6316,8.6365,8.6487,8.6731,8.6731,8.5203,8.1887,8.0132,7.6553,7.067,6.7583,6.4658,6.2188,6.4105,6.4959,6.4864,6.2966,6.3213,6.4826,6.2909,6.3251,6.4959,6.4959,6.4959,6.4959,6.4959,6.4959,6.4959,6.4959,6.4959,6.4959,6.4959,6.4959,6.4959,6.4959,6.4959,6.4959,6.4959,6.5889,6.6649,6.5624,6.5073,6.4712,6.4466,6.4238,6.4048,6.3801,6.4086,6.4219,6.3592,6.3972,6.439,6.439,6.5092,6.5434,6.4788,6.5396,6.57,6.5054,6.4959,6.4959,6.4959,6.4807,6.4599,6.4409,6.439,6.439,6.439,6.475,6.5092,6.5358,6.4693,6.4523,6.4959,6.3934,6.3611,6.4029,6.3213,6.3137,6.3725,6.2909,6.0887,2.5038,2.5038,2.6063,3.0391,2.8835,2.7848,3.3979,3.1625,3.024,3.7567,3.6732,3.565,3.8934,4.4632,4.9272,5.0655,6.0666,6.9313,7.2082,7.5237,7.6408,7.4407,7.7677,7.9312,7.736,8.146,8.451,8.5096,8.5609,8.6365,8.7439,8.7024,8.6975,8.7488,8.7,8.5787,8.3672,7.8109,7.2404,6.6317,6.5364,6.3668,6.1352,6.3839,6.4959,6.4883,0.0,6.3725,6.4864,6.3516,6.3763,6.4959,6.4959,6.4959,6.4959,6.4959,6.4959,6.4959,6.4959,6.4959,6.4959,6.4959,6.4959,6.4959,6.4959,6.5244,6.5548,6.5548,6.5927,6.6117,6.5301,6.4807,6.4599,6.4883,6.4674,6.4599,6.5301,6.5206,6.494,6.4902,6.494,6.4959,6.4959,6.5339,6.5491,6.5035,6.5358,6.5491,6.5016,6.4959,6.4959,6.4959,6.4959,6.4959,6.4959,6.4959,6.4959,6.4959,6.4959,6.5168,6.5643,6.5149,6.5092,6.5548,6.4674,6.4257,6.4295,6.3498,6.3327,6.3725,6.2909,6.0776,2.5038,2.5228,2.6006,2.8512,2.7677,2.6899,2.9404,2.8569,2.8499,3.3277,3.6263,3.7698,3.6998,4.6069,5.0741,4.1467,4.9998,6.0333,6.7821,7.2943,7.4603,7.1113,7.697,8.0215,7.7433,8.185,8.5023,8.5365,8.6219,8.7219,8.8366,8.7341,8.717,8.8147,8.6595,8.5029,8.3497,7.4649,6.7592,6.1951,6.4004,6.3668,6.1352,6.3839,6.4959,6.494,0.0,6.4617,6.494,6.4561,6.4617,6.4959,6.4959,6.5035,6.5168,6.5168,6.5244,6.5358,6.5358,6.5358,6.5358,6.5358,6.5358,6.5358,6.5358,6.5851,6.644,6.6592,6.6193,6.5529,6.4561,6.3896,6.3763,6.4902,6.4731,6.4864,6.6838,6.625,6.5529,6.6117,6.5662,6.5168,6.5168,6.5054,6.4959,6.4959,6.4959,6.4959,6.4959,6.4959,6.4959,6.4959,6.4959,6.4959,6.4959,6.4959,6.4959,6.4959,6.4959,6.4959,6.4959,6.5662,6.6041,6.6041,6.6041,6.5681,6.4959,6.4143,6.3744,6.3725,6.2909,6.0776,2.5038,2.6044,2.7715,3.0221,2.8531,2.6899,2.9404,2.8133,2.7259,3.0145,0.0,3.4644,3.4479,3.8366,4.132,4.0176,4.69,5.5729,6.6178,6.9234,7.0429,7.0722,7.1088,7.2845,7.6774,8.1192,8.4535,8.6365,8.6634,8.7219,8.8366,8.7341,8.6829,8.7,8.3325,7.9696,7.5905,7.4366,7.0806,6.5234,6.4906,6.3668,6.1352,6.3839,6.4959,6.4845,0.0,0.0,6.4807,6.27,6.308,6.4959,6.4959,6.5396,6.6041,6.6041,6.6478,6.7066,6.7066,6.7066,6.7066,6.7066,6.7066,6.7066,6.7066,6.7161,6.7427,6.8186,6.8813,6.8889,6.7294,6.737,6.7541,6.6326,6.6478,6.6801,6.6478,6.6763,6.6895,6.6345,6.6136,6.6041,6.6041,6.5434,6.4959,6.4959,6.4959,6.4959,6.4959,6.4959,6.4959,6.4959,6.4959,6.4959,6.4959,6.4959,6.4959,6.4959,6.4959,6.4959,6.4959,6.5092,6.5168,6.5168,6.5168,6.5092,6.4959,6.4143,6.3744,6.3725,6.2909,6.0776,2.5703,2.6557,2.7753,2.8911,2.8057,2.7107,2.7791,2.7069,2.7025,0.0,0.0,3.235,3.4238,3.8075,4.1277,4.1826,4.8458,5.5871,6.2575,6.8232,7.1015,6.9209,7.3163,7.6116,7.6286,8.1216,8.4828,8.5804,8.6414,8.6951,8.7488,8.6463,8.5157,8.3481,8.2483,8.0537,7.6848,7.5224,7.2387,6.8497,6.7868,6.5427,6.1931,6.389,6.4485,6.3668,6.3858,6.4845,6.6212,6.5092,6.5282,6.6307,6.6307,6.6554,6.6895,6.6895,6.7123,6.7446,6.7446,6.7446,6.7446,6.7446,6.7446,6.7446,6.7446,6.8091,6.8832,6.8813,6.9059,6.8965,6.7237,6.7104,6.7104,6.5851,6.6193,6.6687,6.6307,6.6535,6.6668,6.6307,6.5851,6.5548,6.5548,6.5225,6.4959,6.4959,6.4959,6.4959,6.4959,6.4959,6.4959,6.4959,6.4959,6.4959,6.4959,6.4959,6.4959,6.4959,6.4959,6.4959,6.4959,6.4959,6.4959,6.4959,6.4959,6.4959,6.4959,6.458,6.4409,6.4409,6.4029,6.2851,2.8,0.0,3.0525,3.1078,3.0321,2.9409,0.0,2.8122,2.761,0.0,0.0,0.0,3.3119,3.7875,4.1589,4.1571,4.938,5.6213,5.8455,6.6298,7.0966,6.8209,7.5066,7.9264,7.7263,8.1728,8.4877,8.5121,8.5901,8.6365,8.6365,8.534,8.36,8.124,8.2805,8.1689,7.7755,7.6141,7.4099,7.1454,7.0217,6.7465,6.3484,6.4621,6.4371,6.2947,6.5453,6.6876,6.7446,6.7446,6.7446,6.7446,6.7446,6.7579,6.7769,6.7769,6.7883,6.8053,6.8053,6.8053,6.8053,6.8053,6.8053,6.8053,6.8053,6.8965,6.9895,6.9268,6.9078,6.8737,6.7218,6.6668,6.6307,6.5453,6.5605,6.5927,6.5927,6.6231,6.6459,6.6269,6.5851,6.5491,6.5301,6.5092,6.4959,6.4959,6.4959,6.4959,6.4959,6.4959,6.4959,6.4959,6.4959,6.4959,6.4959,6.4959,6.4959,6.4959,6.4959,6.4959,6.4959,6.4959,6.4959,6.4959,6.4959,6.4959,6.4959,6.4959,6.4959,6.4959,6.4959,6.4636,0.0,3.6675,3.9656,4.1776,3.8799,3.5922,3.8096,3.3737,0.0,2.8631,3.1569,3.2928,2.8717,3.3718,3.776,3.5923,4.6021,5.4098,5.4134,6.1278,6.7086,6.877,7.2211,7.6286,8.1021,8.2802,8.4071,8.5072,8.5218,8.5267,8.5267,8.4242,8.3656,8.3414,8.3583,8.0758,7.4763,7.7302,7.6962,7.3995,7.0921,6.852,6.6664,6.631,6.5244,0.0,6.6288,6.7389,6.7446,6.7446,6.7446,6.7446,6.7446,6.7958,6.8699,6.8699,6.9192,6.9838,6.9838,6.9838,6.9838,6.9838,6.9838,6.9838,6.9838,6.9914,7.0009,6.9952,6.9933,6.9724,6.8851,6.7996,6.7161,6.6345,6.5586,6.5054,6.5054,6.6269,6.7142,6.6383,6.6801,6.7028,6.6269,6.5491,6.4959,6.4959,6.4959,6.4959,6.4959,6.4959,6.4959,6.4959,6.4959,6.4959,6.4959,6.4959,6.4959,6.4959,6.4959,6.4959,6.4959,6.4959,6.4959,6.4959,6.4959,6.4959,6.4959,6.4959,6.4959,6.4959,6.4959,6.494,3.8423,4.134,4.368,4.533,4.4837,4.2874,3.9024,3.624,3.3611,3.0904,3.0169,3.0747,3.2962,3.4002,3.6442,4.2231,4.7643,5.398,6.2142,6.5811,6.9697,7.4529,7.6774,7.8727,8.0752,8.0728,8.1558,8.3974,8.229,8.2046,8.4047,8.3754,8.3534,8.3534,8.3534,8.2371,8.0068,8.1224,8.0596,7.7956,7.4702,7.1392,6.7867,6.7261,6.6079,6.4655,6.718,6.7674,0.0,6.8395,6.811,6.6857,6.8433,6.9268,6.9553,6.9553,6.9743,7.0009,7.0009,7.0009,7.0009,7.0009,7.0009,7.0009,7.0009,7.0009,7.0009,7.0009,7.0009,6.9838,6.9003,6.8129,6.7237,6.644,6.5984,6.5605,6.5073,6.587,6.644,6.5605,6.57,6.5794,6.5491,6.5168,6.4959,6.4959,6.4959,6.4959,6.4959,6.4959,6.4959,6.4959,6.4959,6.4959,6.4959,6.4959,6.4959,6.4959,6.4959,6.4959,6.4959,6.4959,6.4959,6.4959,6.4959,6.4959,6.4959,6.4959,6.4959,6.4959,6.4959,6.4959,4.2982,4.628,4.9251,5.0531,5.0713,4.9118,4.3982,4.0455,3.7385,3.3893,3.0989,3.0561,3.5323,3.5197,3.7356,4.6567,4.941,5.4406,6.5451,6.7647,7.0234,7.6018,7.7653,7.8849,8.0215,8.0313,8.1192,8.3363,8.1509,8.124,8.3437,8.3534,8.3534,8.3534,8.3534,8.3705,8.4047,8.3097,8.1751,8.0639,7.641,7.2595,6.8785,6.8154,6.6952,6.551,6.8072,6.8053,6.644,6.8965,6.8528,6.6497,6.9022,7.0009,7.0009,7.0009,7.0009,7.0009,7.0009,7.0009,7.0009,7.0009,7.0009,7.0009,7.0009,7.0009,7.0009,7.0009,6.9838,6.9515,6.8946,6.7939,6.6914,6.6364,6.6022,6.5662,6.5092,6.5643,6.5984,6.513,6.5187,6.5282,6.5016,6.4959,6.4959,6.4959,6.4959,6.4959,6.4959,6.4959,6.4959,6.4959,6.4959,6.4959,6.4959,6.4959,6.4959,6.4959,6.4959,6.4959,6.4959,6.4959,6.4959,6.4959,6.4959,6.4959,6.4959,6.4959,6.4959,6.4959,6.4959,6.4959,4.687,5.1724,5.7424,5.8542,5.6583,5.4375,5.4505,4.7426,4.002,3.7303,3.4595,3.3083,3.4485,3.6781,4.0571,4.6656,5.0756,5.5323,6.1766,6.4573,6.7525,7.1845,7.3285,7.5603,7.9898,8.2241,8.3486,8.3486,8.3486,8.351,8.3534,8.3534,8.3534,8.3534,8.3559,8.4071,8.5121,8.1818,8.0685,8.1745,7.524,7.1172,6.9505,6.9105,6.7883,6.6402,6.8927,6.8566,0.0,6.8965,6.8509,6.644,6.9022,7.0009,7.0009,7.0009,7.0009,7.0009,7.0009,7.0009,7.0009,7.0009,7.0009,7.0009,7.0009,7.0009,7.0009,7.0009,6.9439,6.8813,6.8813,6.7541,6.625,6.6231,6.5586,6.4959,6.4959,6.5624,6.5965,6.513,6.5643,6.5965,6.5111,6.4959,6.4959,6.4959,6.4959,6.4959,6.4959,6.4959,6.4959,6.4959,6.4959,6.4959,6.4959,6.4959,6.4959,6.4959,6.4959,6.4959,6.4959,6.4959,6.4959,6.4959,6.4959,6.4959,6.4959,6.4959,6.4959,6.4959,6.4959,6.4959,5.4291,5.8743,6.3106,6.3626,6.4193,6.2384,5.4018,5.0418,4.7074,4.0234,3.7332,3.6777,3.9182,4.0651,4.3179,4.8363,5.2583,5.8057,6.6061,6.838,7.1162,7.6238,7.7116,7.7214,7.6994,7.8239,7.9361,8.0118,8.0167,8.1167,8.3437,8.3534,8.3534,8.3534,8.1913,8.1264,8.1568,7.8964,7.7197,7.5991,7.4024,7.1881,6.9761,6.981,6.9382,6.8946,6.9686,6.7579,0.0,6.8243,6.7484,6.4048,6.8338,7.0009,7.0009,7.0009,7.0009,7.0009,7.0009,7.0009,7.0009,7.0009,7.0009,7.0009,7.0009,7.0009,7.0009,7.0009,6.9838,6.9648,6.9648,6.8376,6.6933,6.6364,6.5586,6.4959,6.4959,6.5168,6.5263,6.5016,6.5168,6.5263,6.5016,6.4959,6.4959,6.4959,6.4959,6.4959,6.4959,6.4959,6.4959,6.4959,6.4959,6.4959,6.4959,6.4959,6.4959,6.4959,6.4959,6.4959,6.4959,6.4959,6.4959,6.4959,6.4959,6.4959,6.4959,6.4959,6.4959,6.4959,6.4959,6.4959,5.8643,6.2498,6.6191,6.5896,6.7086,6.6057,5.7496,5.401,5.0652,4.4388,4.0492,3.9642,4.3541,4.4655,4.6853,5.2697,5.5104,5.8935,6.672,6.8746,7.1259,7.6213,7.7214,7.7653,7.8068,7.7921,7.8605,8.0533,8.0655,8.1509,8.3437,8.3534,8.373,8.4169,8.1489,8.0547,8.1376,7.7414,7.5042,7.3977,7.276,7.1268,7.0009,7.0009,7.0009,7.0009,7.0009,6.7731,0.0,6.8357,6.7636,6.4409,6.8433,7.0009,7.0009,7.0009,7.0009,7.0009,7.0009,7.0009,7.0009,7.0009,7.0009,7.0009,7.0009,7.0009,6.9952,6.9629,6.9534,6.9382,6.8699,6.775,6.6763,6.5927,6.5339,6.4959,6.4959,6.4959,6.4959,6.4959,6.4959,6.4959,6.4959,6.4959,6.4959,6.4959,6.4959,6.4959,6.4959,6.4959,6.4959,6.4959,6.4959,6.4959,6.4959,6.4959,6.4959,6.4959,6.4959,6.4959,6.4959,6.4959,6.4959,6.4959,6.4959,6.4959,6.4959,6.4959,6.4959,6.4959,6.4959,6.4959,6.1109,6.4128,6.7433,6.6212,6.6814,6.694,6.306,5.7602,5.228,4.8942,4.413,4.2024,4.7267,4.8417,5.098,5.8447,5.8228,5.9277,6.5475,6.7355,6.9527,7.3407,7.4969,7.7214,8.1118,7.9825,7.9971,8.2875,8.3095,8.3241,8.3534,8.3632,8.412,8.4629,8.1528,8.0865,8.2482,7.6229,7.3743,7.4533,7.1532,7.0009,7.0009,7.0009,7.0009,7.0009,7.0009,6.8585,0.0,6.8965,6.8528,6.6497,6.9022,7.0009,7.0009,7.0009,7.0009,7.0009,7.0009,7.0009,7.0009,7.0009,7.0009,7.0009,7.0009,7.0009,6.9857,6.9022,6.8794,6.8414,6.6763,6.6288,6.6041,6.5263,6.5016,6.4959,6.4959,6.4959,6.4959,6.4959,6.4959,6.4959,6.4959,6.4959,6.4959,6.4959,6.4959,6.4959,6.4959,6.4959,6.4959,6.4959,6.4959,6.4959,6.4959,6.4959,6.4959,6.4959,6.4959,6.4959,6.4959,6.4959,6.4959,6.4959,6.4959,6.4959,6.4959,6.4959,6.4959,6.4959,6.4959,6.4714,6.3989,6.6676,6.9844,6.8487,6.9796,6.9087,6.0814,5.9123,5.7172,4.9703,4.7242,4.6755,4.795,4.9613,5.2932,5.9619,6.2449,6.5207,6.9112,7.1308,7.2845,7.3773,7.5627,7.7165,7.8092,7.8532,7.9044,7.9727,7.9776,8.0874,8.3412,8.434,8.372,8.1318,7.9561,7.7667,7.5667,7.2405,7.0833,7.1026,7.0273,7.0009,7.0009,7.0009,7.0009,7.0009,7.0009,6.8585,6.644,6.8965,6.8528,6.6497,6.9022,7.0009,7.0009,7.0009,7.0009,7.0009,7.0009,7.0009,7.0009,7.0009,7.0009,7.0009,7.0009,7.0009,6.9857,6.9022,6.8794,6.8547,6.7465,6.6706,6.6193,6.6003,6.5453,6.4959,6.4959,6.4959,6.4959,6.4959,6.4959,6.4959,6.4959,6.4959,6.4959,6.4959,6.4959,6.4959,6.4959,6.4959,6.4959,6.4959,6.4959,6.4959,6.4959,6.4959,6.4959,6.4959,6.4959,6.4959,6.4959,6.4959,6.4959,6.4959,6.4959,6.4959,6.4959,6.4959,6.4959,6.4959,6.4959,6.3425,6.6134,6.8575,7.143,7.1406,7.2211,7.1601,6.6061,6.406,6.1498,5.5006,5.2395,5.1297,5.1297,5.2639,5.569,6.162,6.4011,6.5695,6.7379,7.1235,7.3675,7.3187,7.5505,7.797,8.002,7.9337,7.9386,8.0948,8.1045,8.1777,8.3461,8.4071,8.3425,8.11,7.9254,7.708,7.4334,7.1299,7.0009,7.0009,7.0009,7.0009,7.0009,7.0009,7.0009,7.0009,7.0009,6.9268,6.8148,6.9477,6.923,6.8186,6.9496,7.0009,7.0009,7.0009,7.0009,7.0009,7.0009,7.0009,6.9952,6.9553,6.9439,6.9344,6.8908,6.8794,6.8604,6.7788,6.7579,6.737,6.6497,6.5946,6.5624,6.5624,6.5282,6.4959,6.4959,6.4959,6.4959,6.4959,6.4959,6.4959,6.4959,6.4959,6.4959,6.4959,6.4959,6.4959,6.4959,6.4959,6.4959,6.4959,6.4959,6.4959,6.4959,6.4959,6.4959,6.4959,6.4959,6.4959,6.4959,6.4959,6.4959,6.4959,6.4959,6.4959,6.4959,6.4959,6.4959,6.4959,6.4959,6.316,6.7403,6.9697,7.2211,7.3089,7.3456,7.3163,7.1552,6.8575,6.4963,6.0668,5.7617,5.5641,5.5275,5.608,5.8496,6.3718,6.4743,6.5109,6.5866,7.0698,7.3919,7.3212,7.5233,7.8377,8.3144,8.0223,7.9577,8.3339,8.2541,8.2009,8.2034,8.2489,8.256,8.1886,7.9365,7.6895,7.4275,7.1269,7.0009,7.0009,7.0009,7.0009,7.0009,7.0009,6.9781,6.9382,6.9819,0.0,6.9401,6.9838,7.0009,7.0009,7.0009,7.0009,7.0009,7.0009,7.0009,7.0009,7.0009,7.0009,6.9857,6.8889,6.8566,6.8433,6.7674,6.7446,6.7275,6.6459,6.6231,6.6041,6.5187,6.4959,6.4959,6.4959,6.4959,6.4959,6.4959,6.4959,6.4959,6.4959,6.4959,6.4959,6.4959,6.4959,6.4959,6.4959,6.4959,6.4959,6.4959,6.4959,6.4959,6.4959,6.4959,6.4959,6.4959,6.4959,6.4959,6.4959,6.4959,6.4959,6.4959,6.4959,6.4959,6.4959,6.4959,6.4959,6.4959,6.4959,6.4959,6.4959,6.4449,6.215,6.6989,6.916,7.0918,7.1064,7.1796,7.1479,6.7623,6.7013,6.6061,6.1717,6.0473,5.9619,5.7813,5.835,6.0522,6.4963,6.6476,6.838,7.2089,7.4188,7.5627,7.6408,7.5291,7.693,8.2976,7.8311,7.7322,8.3051,7.8443,7.5613,7.6318,7.8301,8.0088,8.1817,7.8722,7.5021,7.0762,7.0273,7.0009,7.0009,7.0009,7.0009,7.0009,7.0009,6.8813,6.6857,6.9059,6.8775,6.6895,6.9097,7.0009,7.0009,7.0009,7.0009,7.0009,7.0009,7.0009,7.0009,7.0009,7.0009,6.9743,6.8148,6.7636,6.7598,6.7484,6.7446,6.7275,6.6459,6.6231,6.6041,6.5187,6.4959,6.4959,6.4959,6.4959,6.4959,6.4959,6.4959,6.4959,6.4959,6.4959,6.4959,6.4959,6.4959,6.4959,6.4959,6.4959,6.4959,6.4959,6.4959,6.4959,6.4959,6.4959,6.4959,6.4959,6.4959,6.4959,6.4959,6.4959,6.4959,6.4959,6.4959,6.4959,6.4959,6.4959,6.4959,6.4959,6.4959,6.4959,6.4959,6.1883,5.8809,6.4499,6.7647,7.0966,7.2162,7.2821,7.2675,7.0796,7.0283,6.9136,6.5427,6.3694,6.1663,5.7627,5.7852,6.0085,6.4241,6.4913,6.7111,7.387,7.3651,7.3486,7.522,7.6234,7.7095,7.8156,7.7529,7.66,7.6237,7.3286,7.3261,7.7158,7.8293,7.9586,8.1008,7.8278,7.5385,7.2028,7.0775,7.0009,7.0009,7.0009,7.0009,7.0009,7.0009,6.9401,6.8414,0.0,6.9382,6.8452,6.9553,7.0009,7.0009,7.0009,7.0009,7.0009,7.0009,7.0009,6.9952,6.9496,6.9325,6.9059,6.7332,6.6763,6.6687,6.6193,6.606,6.5984,6.5624,6.5529,6.5434,6.5054,6.4959,6.4959,6.4959,6.4959,6.4959,6.4959,6.4959,6.4959,6.4959,6.4959,6.4959,6.4959,6.4959,6.4959,6.4959,6.4959,6.4959,6.4959,6.4959,6.4959,6.4959,6.4959,6.4959,6.4959,6.4959,6.4959,6.4959,6.4959,6.4959,6.4959,6.4959,6.4959,6.4959,6.4959,6.4959,6.4959,6.4959,6.3937,6.2131,6.0583,5.7006,6.1465,6.5054,6.9004,7.1123,7.187,7.2278,7.2875,7.2431,7.1001,6.7872,6.6154,6.3615,5.8263,5.8245,6.0192,6.3542,6.4073,6.6408,7.3216,7.3679,7.3168,7.2891,7.5705,7.6271,7.2641,7.413,7.3419,6.8603,6.836,7.0408,7.5228,7.6147,7.6962,7.8034,7.6174,7.4473,7.2455,7.065,6.98,7.0009,7.0009,7.0009,7.0009,7.0009,6.9667,6.9097,6.9743,6.9648,6.9097,6.9743,7.0009,7.0009,7.0009,7.0009,7.0009,7.0009,7.0009,6.9838,6.8585,6.8281,6.8167,6.6459,6.5908,6.5794,6.5168,6.4959,6.4959,6.4959,6.4959,6.4959,6.4959,6.4959,6.4959,6.4959,6.4959,6.4959,6.4959,6.4959,6.4959,6.4959,6.4959,6.4959,6.4959,6.4959,6.4959,6.4959,6.4959,6.4959,6.4959,6.4959,6.4959,6.4959,6.4959,6.4959,6.4959,6.4959,6.4959,6.4959,6.4959,6.4959,6.4959,6.4959,6.4864,6.4655,6.4655,6.4561,6.4352,6.4352,6.255,5.9236,5.8472,5.4943,5.8292,6.0785,6.2957,6.5383,6.6638,6.795,7.0266,7.0796,7.0121,6.7481,6.7348,6.6296,6.1513,6.1285,6.2455,6.3649,6.5934,6.8323,7.0175,7.5802,7.7227,7.0283,7.2418,7.2383,6.7675,6.6267,6.4469,6.1931,6.3786,6.5376,6.6482,6.8667,7.0328,7.1392,7.1333,7.0503,6.9034,6.8832,6.9249,7.0009,7.0009,7.0009,7.0009,7.0009,6.8699,6.6554,6.8965,6.8642,6.6611,6.9022,7.0009,7.0009,7.0009,7.0009,7.0009,7.0009,7.0009,6.9667,6.7218,6.6876,6.7237,6.5567,6.5035,6.5016,6.4978,6.4959,6.4959,6.4959,6.4959,6.4959,6.4959,6.4959,6.4959,6.4959,6.4959,6.4959,6.4959,6.4959,6.4959,6.4959,6.4959,6.4959,6.4959,6.4959,6.4959,6.4959,6.4959,6.4959,6.4959,6.4959,6.4959,6.4959,6.4959,6.4959,6.4959,6.4959,6.4959,6.4959,6.4959,6.4959,6.4959,6.4959,6.4599,6.382,6.382,6.3422,6.2643,6.2643,6.1143,5.7658,5.4477,5.127,5.4027,5.5884,5.8032,6.0186,6.2045,6.3723,6.4649,6.5316,6.5389,6.4448,6.3816,6.243,5.9455,5.9485,6.0403,6.1544,6.1953,6.4135,6.9442,6.8592,6.7809,6.8593,6.8142,6.7426,6.5816,6.5185,6.3161,5.9164,6.2701,6.5901,6.8194,6.9084,6.9683,7.007,7.0723,6.9676,6.7142,6.7674,6.8376,6.9249,6.9762,7.0009,7.0009,7.0009,6.9534,6.8718,6.9629,6.9496,6.8737,6.9648,7.0009,7.0009,7.0009,7.0009,6.9952,6.9439,6.9572,6.9496,6.5889,6.4826,6.4883,6.3763,6.3403,6.3403,6.3403,6.3403,6.3498,6.4029,6.4181,6.4295,6.4826,6.4959,6.4959,6.4959,6.4959,6.4959,6.4959,6.4959,6.4959,6.4959,6.4959,6.4959,6.4959,6.4959,6.4959,6.4959,6.4959,6.4959,6.4959,6.4959,6.4959,6.4959,6.4959,6.4959,6.4959,6.4959,6.4959,6.4959,6.4959,6.4731,6.42,6.4181,6.3801,6.2985,6.2966,6.2814,6.2529,6.2529,5.9803,5.4361,5.3152,4.9685,4.9481,5.0463,5.2054,5.5118,5.7373,5.9415,6.0821,6.1692,6.2194,6.1217,6.0569,5.9763,5.8063,5.8326,5.9198,6.0074,6.0547,6.2047,6.6124,6.5089,6.4013,6.4722,6.5363,6.4437,6.0993,6.2117,6.2337,6.0269,6.308,6.59,6.7984,6.7964,6.7964,6.7964,6.8582,6.8098,6.6231,6.6763,6.7484,6.8357,6.8889,6.9325,6.961,6.9895,7.0009,7.0009,7.0009,7.0009,7.0009,7.0009,7.0009,7.0009,7.0009,6.9857,6.9515,6.8661,6.8338,6.7845,6.4504,6.3516,6.3611,6.2795,6.2529,6.2529,6.2529,6.2529,6.2643,6.3175,6.3346,6.346,6.401,6.4143,6.4143,6.4143,6.4352,6.4561,6.4561,6.4769,6.4959,6.4959,6.4959,6.4959,6.4959,6.4959,6.4959,6.4959,6.4959,6.4959,6.4959,6.4959,6.4959,6.4959,6.4959,6.4959,6.4959,6.4959,6.4845,6.458,6.4561,6.42,6.3365,6.3346,6.2947,6.2112,6.2112,6.1979,6.1694,6.0703,5.7292,5.1938,5.0979,4.7321,4.5008,4.4683,4.5286,5.0032,5.2496,5.4834,5.8892,6.0647,6.062,5.8197,5.83,5.8441,5.7804,5.8068,5.8866,5.9853,6.2303,6.3132,6.0419,6.5719,6.68,5.8732,6.3823,6.3807,5.3715,5.7195,6.1428,6.458,6.4883,6.494,6.4959,6.4959,6.4959,6.4959,6.4959,6.5358,6.6193,6.6193,6.6611,6.7408,6.7408,6.7883,6.8794,6.9572,6.9933,6.9933,6.9933,6.9933,6.9933,6.9933,6.9933,6.9933,6.9933,6.9439,6.8604,6.7655,6.6269,6.4617,6.3023,6.2966,6.3498,6.2719,6.2453,6.2453,6.2453,6.2453,6.2453,6.2491,6.2491,6.2491,6.2529,6.2529,6.2529,6.2529,6.3137,6.3706,6.3706,6.4333,6.4902,6.4921,6.494,6.494,6.4959,6.4959,6.4959,6.4959,6.4921,6.4902,6.4921,6.4902,6.4883,6.4883,6.4883,6.4883,6.4883,6.4883,6.4561,6.3763,6.3706,6.3346,6.2529,6.2491,6.2093,6.1239,6.0988,6.0591,5.9816,5.6677,5.3345,5.0273,4.7223,4.4157,4.3586,4.3185,4.3521,4.5473,4.8142,5.0421,5.163,5.3104,5.4397,5.4883,5.5129,5.5797,5.7278,5.6208,5.5999,5.8638,5.8668,5.8501,5.9107,6.1332,6.2308,6.0441,6.0273,5.9287,5.6439,5.9587,6.1732,6.1428,6.3061,6.4352,6.494,6.4959,6.4959,6.4959,6.4959,6.5073,6.532,6.532,6.5737,6.6573,6.6573,6.7009,6.7826,6.8053,6.8148,6.8148,6.8148,6.8148,6.8148,6.8148,6.8148,6.8148,6.8148,6.7655,6.6687,6.4655,6.3213,6.2131,6.1087,6.0878,6.103,6.0802,6.0745,6.0745,6.0745,6.0745,6.0859,6.1447,6.1618,6.1751,6.2378,6.2529,6.2529,6.2529,6.27,6.2871,6.2871,6.3042,6.3384,6.3972,6.4086,6.4276,6.4864,6.4959,6.4959,6.4959,6.3953,6.3422,6.401,6.3573,6.3213,6.3213,6.3213,6.3213,6.3213,6.3213,6.3099,6.289,6.2871,6.2491,6.1637,6.1618,6.1239,6.0403,5.7961,5.6661,5.6447,5.3345,5.0273,4.7223,4.6291,4.4157,3.9792,3.8144,3.7643,3.92,4.2085,4.4534,4.4534,4.721,4.9868,5.0494,5.1481,5.3076,5.5923,5.5259,5.5145,5.7765,5.7366,5.7081,5.8049,5.8942,5.9663,6.0138,5.8885,5.8258,5.8999,6.084,6.1751,6.1125,6.2415,6.3592,6.4409,6.4466,6.4617,6.4959,6.4959,6.4959,6.4959,6.4959,6.5225,6.57,6.57,6.6136,6.6933,6.6933,6.7123,6.7446,6.7446,6.7446,6.7446,6.7446,6.7256,6.6933,6.6933,6.6231,6.494,6.2795,6.1466,6.0688,6.0213,6.0043,6.0043,6.0043,6.0043,6.0043,6.0043,6.0043,6.0157,6.0612,6.0764,6.0878,6.1371,6.1485,6.1485,6.1485,6.1751,6.1998,6.1998,6.2283,6.2681,6.3156,6.3232,6.3384,6.3877,6.3953,6.3953,6.3953,6.3137,6.27,6.3175,6.2833,6.2529,6.2529,6.2529,6.2529,6.2529,6.2529,6.2378,6.2017,6.1998,6.1637,6.0783,6.0764,5.9811,5.8126,5.7057,5.5453,5.2887,5.0995,4.8431,4.5417,4.4259,4.2681,3.489,3.191,3.0942,3.322,3.6067,3.8288,0.0,4.2408,4.609,4.5635,4.7324,4.9925,5.3266,5.3949,5.4595,5.636,5.6891,5.71,5.7195,5.7992,5.8562,5.8562,5.8638,5.934,6.0973,6.1125,6.1466,6.2321,6.2397,6.2757,6.3573,6.3611,6.3858,6.439,6.4693,6.475,6.4561,6.4826,6.4959,6.4959,6.4959,6.5358,6.6098,6.6098,6.6478,6.7161,6.7161,6.7161,6.7161,6.7066,6.6611,6.5946,6.5851,6.4807,6.3156,6.1675,6.0612,5.9891,5.9891,5.9834,5.9777,5.9872,5.9891,5.991,6.0005,5.991,5.9758,5.9758,5.9625,5.953,5.972,5.9758,5.9815,6.0005,6.0593,6.1125,6.1125,6.1713,6.2283,6.2378,6.2397,6.2415,6.251,6.2529,6.2491,6.2397,6.2321,6.2283,6.2378,6.2302,6.2245,6.2245,6.2245,6.2245,6.2245,6.2245,6.1922,6.1182,6.1125,6.0764,5.9929,5.9891,5.8417,5.4993,5.6627,5.4862,4.9123,4.8413,4.68,4.4291,4.1778,4.0267,0.0,0.0,0.0,0.0,0.0,0.0,0.0,3.7111,3.8934,4.0813,4.1591,4.2958,4.6318,4.7476,4.8729,5.1102,5.3171,5.4727,5.5392,5.6759,5.7708,5.7708,5.8296,5.9112,6.0176,6.0289,6.0631,6.1447,6.1504,6.1884,6.2719,6.2757,6.2226,6.1049,6.2947,6.3346,6.1998,6.3972,6.4959,6.4959,6.4959,6.5054,6.5206,6.5206,6.5301,6.5453,6.5453,6.5453,6.5396,6.4731,6.4371,6.4162,6.3498,6.2226,6.0726,6.0403,5.972,5.8961,5.8961,5.8524,5.8087,5.8752,5.8961,5.9093,5.9834,5.9075,5.7974,5.7974,5.7005,5.6284,5.7632,5.7974,5.8334,5.972,6.0176,6.0289,6.0289,6.0422,6.0726,6.139,6.1504,6.1732,6.2415,6.2529,6.2302,6.1618,6.0954,6.0764,6.1428,6.0935,6.0536,6.0536,6.0536,6.0536,6.0536,6.0536,6.046,6.0289,6.0289,5.9891,5.8999,5.8961,5.7248,5.3639,5.1413,4.8616,4.5239,4.2478,4.0864,4.0419,3.9842,3.9293,0.0,0.0,0.0,0.0,0.0,0.0,0.0,0.0,0.0,0.0,0.0,3.8991,4.1933,0.0,4.6451,4.8976,5.15,5.3588,5.4822,5.5715,5.6246,5.6246,5.6967,5.7955,5.9245,5.9378,5.972,6.0593,6.065,6.1011,6.1846,6.0688,5.9815,5.9378,6.0574,6.0821,5.9986,6.2491,6.3953,6.4352,6.4352,6.458,6.4959,6.4959,6.4959,6.4959,6.4959,6.4959,6.494,6.4523,6.3877,6.2928,6.0821,5.9492,5.8657,5.7822,5.7765,5.7974,5.7138,5.7119,5.7537,5.7955,5.8087,5.8182,5.8638,5.8163,5.748,5.748,5.6891,5.6531,5.7765,5.8087,5.8429,5.9739,6.0043,6.0043,6.0043,6.0043,6.0176,6.0574,6.065,6.0783,6.122,6.1295,6.1144,6.0726,6.0308,6.0194,6.0593,6.0308,6.0213,6.0612,5.953,5.9283,6.0555,5.9492,5.9131,5.9986,5.9625,5.898,5.8125,5.671,5.4238,5.0902,4.8968,4.5884,4.1415,4.1157,4.0097,3.8488,3.8189,3.7903,0.0,0.0,0.0,0.0,0.0,0.0,0.0,0.0,0.0,0.0,0.0,0.0,0.0,0.0,0.0,4.6622,4.9564,5.2184,5.4025,5.4272,5.4405,5.4708,5.5487,5.6569,5.8068,5.8505,5.8942,5.9511,5.9853,6.0251,6.0745,5.8999,5.8125,5.8448,5.879,5.8885,5.8695,6.0935,6.2548,6.3516,0.0,0.0,6.4485,6.4485,6.4219,6.3782,6.4276,6.4124,6.3554,6.4048,6.327,6.1523,5.879,5.7632,5.7309,5.5961,5.6227,5.7043,5.5696,5.6018,5.7024,5.7176,5.7233,5.7252,5.7423,5.7252,0.0,5.7005,5.6778,5.674,5.7727,5.7974,5.8258,5.9302,5.9549,5.9587,5.9758,5.953,5.9454,5.9948,5.9777,5.9663,5.9986,5.9625,5.8965,5.8178,5.8719,5.8851,5.8385,5.9116,5.9796,6.046,5.8999,5.8809,6.0859,5.8695,5.7974,5.9682,5.8657,5.7376,5.6095,5.3168,5.0058,4.6525,4.6063,4.3106,3.7994,4.0142,3.9962,3.7449,3.5981,3.541,0.0,0.0,0.0,0.0,0.0,0.0,0.0,0.0,0.0,0.0,0.0,0.0,0.0,0.0,0.0,0.0,4.4932,4.8881,5.1367,5.1709,5.226,5.374,5.4633,5.5506,5.6398,5.7822,5.8448,5.7822,5.9188,5.9739,5.9018,5.9473,0.0,0.0,0.0,5.9511,5.8714,5.9777,6.1125,6.2662,6.1903,6.1979,6.2814,6.2814,6.1561,5.953,6.1808,6.1106,5.8505,6.0764,6.0669,5.9093,5.8714,5.8125,5.7461,5.7271,5.6835,5.6322,5.6132,0.0,0.0,5.6113,5.636,5.6493,5.7252,5.6455,5.5278,5.5278,5.4215,5.3437,5.5012,5.5411,5.5809,5.7404,5.7765,5.7974,5.8695,5.7689,5.7328,5.9606,5.8828,5.8258,5.9777,5.8144,5.5244,5.14,5.3551,5.4702,5.2526,5.5523,5.7803,5.7898,0.0,0.0,6.0157,5.7822,5.7081,5.8733,5.6683,5.4141,5.116,4.8161,4.4524,3.9637,3.917,3.7902,3.6228,3.5585,3.5834,3.6774,3.2112,3.0489,0.0,0.0,0.0,0.0,0.0,0.0,0.0,0.0,0.0,0.0,0.0,0.0,0.0,0.0,0.0,0.0,4.1724,4.5692,4.6755,4.7742,4.9336,5.2013,5.3057,5.3873,5.4708,5.5866,5.6607,5.674,5.7879,5.8391,5.8011,5.6986,5.6075,5.5354,5.6037,5.6227,5.5847,5.7651,5.915,6.0308,5.9948,6.0232,6.1087,6.1087,6.0498,5.9549,6.0631,6.027,5.9056,6.0119,5.9815,0.0,0.0,0.0,0.0,0.0,5.5809,5.5373,5.4405,5.4481,5.505,5.5392,5.5506,5.5582,5.5923,5.5544,5.4993,5.4993,5.45,5.4234,5.5392,5.441,5.3583,5.4711,5.4983,5.5074,5.5402,5.6297,5.7271,5.8353,5.7974,0.0,5.6134,5.5165,5.3804,5.2024,5.2885,5.2883,5.0211,5.1418,5.2637,5.3089,5.255,5.3375,5.6602,5.4511,0.0,0.0,0.0,5.2508,5.1282,4.7815,0.0,0.0,0.0,0.0,0.0,0.0,0.0,0.0,2.8918,2.7307,0.0,0.0,0.0,0.0,0.0,0.0,0.0,0.0,0.0,0.0,0.0,0.0,0.0,0.0,0.0,0.0,3.7776,4.1022,4.1022,4.3452,4.6299,4.9222,5.0893,5.2165,5.3019,5.4044,5.4917,5.5506,5.6322,5.6797,5.6797,5.5297,5.4443,5.4443,5.4443,5.4557,5.4803,5.6132,5.7328,5.8353,5.8125,5.8486,5.934,5.934,5.898,5.8353,5.9037,5.8828,5.803,5.8714,5.8467,5.7499,5.5696,5.4993,5.4993,5.4993,5.4993,5.4822,5.3626,5.3835,5.4671,5.4671,5.4068,5.3431,5.4104,5.388,5.3487,5.4369,5.4012,5.3746,5.4547,5.2581,5.0543,5.1075,5.1872,5.2381,5.2592,5.4075,5.5515,5.6204,5.5292,5.3586,5.1157,5.0886,5.0598,4.9502,4.9906,0.0,4.6794,4.7367,4.8247,4.899,4.7796,4.8618,5.2499,5.0577,5.08,5.4565,5.1522,4.9529,4.9267,4.6017,4.3103,4.0116,3.5282,3.2865,0.0,0.0,0.0,0.0,0.0,0.0,0.0,0.0,0.0,0.0,0.0,0.0,0.0,0.0,0.0,0.0,0.0,0.0,0.0,0.0,0.0,0.0,0.0,0.0,3.4112,3.9048,4.33,4.5008,4.8121,5.0437,5.1292,5.2848,5.3816,5.3854,5.4614,5.5069,5.5069,5.5753,5.6132,5.6132,5.6132,5.6531,5.7366,5.5847,5.5904,5.7518,5.6683,5.674,5.7556,5.7556,5.6246,5.4101,5.6512,5.5734,5.2943,5.5335,5.5847,5.5107,5.5031,5.4993,5.4993,5.4993,5.4993,5.4993,5.4936,5.4424,5.3816,5.3816,5.1555,4.9247,5.1767,5.0711,4.961,5.2942,5.1866,4.9682,5.0664,4.8709,4.6354,4.637,4.8743,5.0909,5.1698,5.0646,5.0453,5.2742,4.9755,4.6161,4.5077,4.5163,4.4092,4.0486,4.2263,0.0,4.0384,4.3824,4.6386,4.6402,4.778,4.8812,4.8876,4.6732,4.6119,4.7759,4.5455,4.3449,4.2371,4.061,3.8192,3.5361,3.232,3.167,3.3532,0.0,0.0,0.0,0.0,0.0,0.0,0.0,0.0,0.0,0.0,0.0,0.0,0.0,0.0,0.0,0.0,0.0,0.0,0.0,0.0,0.0,0.0,0.0,0.0,3.5707,3.9408,4.2218,4.404,4.5179,4.5464,4.7001,4.797,4.7951,5.0798,5.2544,5.2544,5.3323,5.3759,5.3759,5.3759,5.3892,5.4177,5.4196,5.4462,5.5031,5.5297,5.5563,5.5828,5.5828,5.5373,5.4633,5.5468,5.5202,5.4234,5.5069,5.4595,5.3285,5.2753,5.2544,5.2468,5.1899,5.1709,5.1709,5.1709,5.1519,5.0979,4.9853,4.792,4.6057,4.6908,4.6348,4.5707,4.7283,4.6721,4.5802,4.7017,4.4959,4.2929,4.3381,4.4128,4.5064,4.5298,4.629,4.7668,4.8413,4.3349,3.9365,4.1034,4.2296,4.2063,3.9288,4.0865,4.1391,3.8232,3.9533,4.0686,4.0686,4.1066,4.2192,4.4149,4.3531,4.3991,4.6643,4.4055,4.2174,4.132,3.903,3.6697,3.4501,3.3917,3.2047,2.8801,0.0,0.0,0.0,0.0,0.0,0.0,0.0,0.0,0.0,0.0,0.0,0.0,0.0,0.0,0.0,0.0,0.0,0.0,0.0,0.0,0.0,0.0,0.0,0.0,0.0,0.0,4.0813,4.2275,0.0,4.2142,4.2787,4.3091,4.2768,4.5274,4.7343,4.8539,4.9393,5.038,5.1595,5.1918,5.2089,5.2089,5.2905,5.319,5.2905,5.3721,5.412,5.412,5.412,5.412,5.412,5.412,5.412,5.4101,5.3038,5.2459,5.1741,4.8887,4.8169,4.8533,4.6911,4.6949,4.7731,4.7527,4.7915,4.8463,4.709,4.4594,4.1832,4.145,4.0332,3.961,4.1504,4.1428,4.1021,4.2384,4.1002,3.9302,3.9694,4.0652,4.1276,4.1276,4.2402,4.3207,4.2402,3.775,3.4777,3.7007,3.8041,3.814,3.6536,3.8027,3.8432,3.6406,3.7033,3.7644,3.7644,3.7644,3.8518,4.0241,4.0449,4.1324,4.3077,4.133,3.9932,3.954,3.7232,3.5228,3.3904,3.306,3.0619,0.0,0.0,0.0,0.0,0.0,0.0,0.0,0.0,0.0,0.0,0.0,0.0,0.0,0.0,0.0,0.0,0.0,0.0,0.0,0.0,0.0,0.0,0.0,0.0,0.0,0.0,0.0,4.0263,4.2199,0.0,0.0,0.0,0.0,3.8402,3.8497,3.9997,4.3205,4.4192,4.6128,4.9355,5.0361,5.0874,5.0912,5.1899,5.1994,5.1235,5.207,5.2468,5.2506,5.2468,5.2468,5.2506,5.2506,5.2506,5.227,4.9237,4.9075,4.9996,4.3521,4.1944,4.2948,4.0612,4.1187,4.3182,4.2461,4.3816,4.5665,4.4925,4.1277,3.6884,3.5314,3.3,0.0,0.0,3.5989,3.5476,3.6864,3.6437,3.5748,3.5878,3.7978,4.0056,4.0056,3.9024,3.7461,0.0,3.3436,3.2411,3.2878,0.0,3.2242,3.2177,3.3294,3.4332,3.4878,3.6527,3.7631,3.7605,3.7631,3.7644,3.7644,3.7644,3.7631,3.7605,3.7085,3.6761,3.6696,3.5047,3.3826,3.3336,2.984,0.0,0.0,0.0,0.0,0.0,0.0,0.0,0.0,0.0,0.0,0.0,0.0,0.0,0.0,0.0,0.0,0.0,0.0,0.0,0.0,0.0,0.0,0.0,0.0,0.0,0.0,2.8835,3.1208,3.4397,3.4568,3.4017,0.0,0.0,0.0,0.0,0.0,0.0,3.8099,3.8953,4.0092,4.1553,4.3679,4.5084,4.5673,4.8995,5.057,5.0361,5.1216,5.1918,5.2487,5.188,5.1937,5.2506,5.2506,5.2506,5.1911,4.3388,4.0137,4.0332,3.7597,3.5975,3.5104,3.3817,3.3765,3.4282,3.4136,3.5507,3.7147,3.5286,3.3929,3.2851,3.0568,0.0,0.0,0.0,0.0,2.8731,3.1219,3.2319,3.3177,3.4891,3.6244,3.6977,3.6977,3.5887,3.4062,0.0,3.0203,2.8957,2.784,0.0,0.0,0.0,3.119,3.3449,3.3177,3.5787,3.7475,3.7046,3.7384,3.7644,3.7644,3.7644,3.7462,3.7033,3.6864,3.6397,3.5553,3.4254,3.2488,3.0216,0.0,0.0,0.0,0.0,0.0,0.0,0.0,0.0,0.0,0.0,0.0,0.0,0.0,0.0,0.0,0.0,0.0,0.0,0.0,0.0,0.0,0.0,0.0,0.0,0.0,0.0,0.0,2.4678,2.8189,3.1056,3.0961,2.9936,0.0,0.0,0.0,0.0,0.0,0.0,0.0,0.0,0.0,3.6675,3.8103,3.8879,3.8687,4.3388,4.5608,4.5291,4.8134,4.9849,5.0285,4.8659,4.8316,4.8666,4.6829,4.5576,4.4367,3.7524,3.5109,3.5308,0.0,0.0,0.0,0.0,2.7404,2.8357,2.7931,2.9437,3.104,2.9568,0.0,0.0,0.0,0.0,0.0,0.0,0.0,0.0,0.0,0.0,3.2268,3.332,3.3436,3.3514,3.4267,3.1489,2.8606,0.0,2.6541,2.5282,2.4321,0.0,0.0,0.0,0.0,3.1255,3.167,3.4969,3.7241,3.7176,3.7449,3.7644,3.7644,3.7644,3.7397,3.6825,3.6553,3.5449,3.3281,3.28,3.0658,0.0,0.0,0.0,0.0,0.0,0.0,0.0,0.0,0.0,0.0,0.0,0.0,0.0,0.0,0.0,0.0,0.0,0.0,0.0,0.0,0.0,0.0,0.0,0.0,0.0,0.0,0.0,0.0,0.0,2.5665,2.865,0.0,0.0,0.0,0.0,0.0,0.0,0.0,0.0,0.0,0.0,0.0,0.0,0.0,3.2414,3.1306,3.661,3.8977,3.8348,4.3186,4.5492,4.5604,4.3328,4.2442,4.2264,3.8157,0.0,3.3993,3.1572,0.0,0.0,0.0,0.0,0.0,0.0,0.0,0.0,0.0,0.0,0.0,0.0,0.0,0.0,0.0,0.0,0.0,0.0,0.0,0.0,0.0,0.0,3.1047,3.0787,3.0034,2.9736,0.0,2.6814,2.3009,2.4062,2.2841,0.0,0.0,0.0,0.0,0.0,0.0,0.0,3.0021,3.3995,3.6838,3.7254,3.7501,3.7618,3.754,3.7527,3.7215,3.6488,3.5696,3.3852,3.0684,3.0956,0.0,0.0,0.0,0.0,0.0,0.0,0.0,0.0,0.0,0.0,0.0,0.0,0.0,0.0,0.0,0.0,0.0,0.0,0.0,0.0,0.0,0.0,0.0,0.0,0.0,0.0,0.0,0.0,0.0,0.0,0.0,0.0,0.0,0.0,0.0,0.0,0.0,0.0,0.0,0.0,0.0,0.0,0.0,0.0,0.0,0.0,0.0,0.0,0.0,0.0,3.4524,3.5351,3.5996,3.4851,3.4771,3.5066,3.0092,2.8187,2.8543,2.4723,0.0,0.0,0.0,0.0,0.0,0.0,0.0,0.0,0.0,0.0,0.0,0.0,0.0,0.0,0.0,0.0,0.0,0.0,0.0,0.0,0.0,0.0,0.0,0.0,2.6204,2.623,2.5554,0.0,0.0,0.0,0.0,0.0,0.0,0.0,0.0,0.0,0.0,0.0,2.7053,3.2424,3.593,3.5527,3.6787,3.7449,3.6981,3.6929,3.628,3.4722,3.2774,3.0982,0.0,0.0,0.0,0.0,0.0,0.0,0.0,0.0,0.0,0.0,0.0,0.0,0.0,0.0,0.0,0.0,0.0,0.0,0.0,0.0,0.0,0.0,0.0,0.0,0.0,0.0,0.0,0.0,0.0,0.0,0.0,0.0,0.0,0.0,0.0,0.0,0.0,0.0,0.0,0.0,0.0,0.0,0.0,0.0,0.0,0.0,0.0,0.0,0.0,0.0,0.0,0.0,0.0,0.0,0.0,0.0,0.0,0.0,0.0,2.1815,0.0,0.0,0.0,0.0,0.0,0.0,0.0,0.0,0.0,0.0,0.0,0.0,0.0,0.0,0.0,0.0,0.0,0.0,0.0,0.0,0.0,0.0,0.0,0.0,0.0,0.0,0.0,0.0,0.0,0.0,0.0,0.0,0.0,0.0,0.0,0.0,0.0,0.0,0.0,0.0,2.6853,3.1683,3.5254,3.5878,3.6436,3.6774,3.6787,3.6514,3.5345,3.3008,3.1541,0.0,0.0,0.0,0.0,0.0,0.0,0.0,0.0,0.0,0.0,0.0,0.0,0.0,0.0,0.0,0.0,0.0,0.0,0.0,0.0,0.0,0.0,0.0,0.0,0.0,0.0,0.0,0.0,0.0,0.0,0.0,0.0,0.0,0.0,0.0,0.0,0.0,0.0,0.0,0.0,0.0,0.0,0.0,0.0,0.0,0.0,0.0,0.0,0.0,0.0,0.0,0.0,0.0,0.0,0.0,0.0,0.0,0.0,0.0,2.179,1.7634,0.0,0.0,0.0,0.0,0.0,0.0,0.0,0.0,0.0,0.0,0.0,0.0,0.0,0.0,0.0,0.0,0.0,0.0,0.0,0.0,0.0,0.0,0.0,0.0,0.0,0.0,0.0,0.0,0.0,0.0,0.0,0.0,0.0,0.0,0.0,0.0,0.0,0.0,0.0,0.0,2.6463,3.0956,3.4566,3.6059,3.6059,3.6072,3.6397,3.5891,3.4228,3.1112,3.0008,0.0,0.0,0.0,0.0,0.0,0.0,0.0,0.0,0.0,0.0,0.0,0.0,0.0,0.0,0.0,0.0,0.0,0.0,0.0,0.0,0.0,0.0,0.0,0.0,0.0,0.0,0.0,0.0,0.0,0.0,0.0,0.0,0.0,0.0,0.0,0.0,0.0,0.0,0.0,0.0,0.0,0.0,0.0,0.0,0.0,0.0,0.0,0.0,0.0,0.0,0.0,0.0,0.0,0.0,0.0,0.0,0.0,0.0,0.0,0.0,0.0,0.0,0.0,0.0,0.0,0.0,0.0,0.0,0.0,0.0,0.0,0.0,0.0,0.0,0.0,0.0,0.0,0.0,0.0,0.0,0.0,0.0,0.0,0.0,0.0,0.0,0.0,0.0,0.0,0.0,0.0,0.0,0.0,0.0,0.0,0.0,0.0,0.0,0.0,0.0,0.0,2.4217,2.9606,3.367,3.4345,3.5332,3.5748,3.528,3.4683,3.2683,2.8788,0.0,0.0,0.0,0.0,0.0,0.0,0.0,0.0,0.0,0.0,0.0,0.0,0.0,0.0,0.0,0.0,0.0,0.0,0.0,0.0,0.0,0.0,0.0,0.0,0.0,0.0,0.0,0.0,0.0,0.0,0.0,0.0,0.0,0.0,0.0,0.0,0.0,0.0,0.0,0.0,0.0,0.0,0.0,0.0,0.0,0.0,0.0,0.0,0.0,0.0,0.0,0.0,0.0,0.0,0.0,0.0,0.0,0.0,0.0,0.0,0.0,0.0,0.0,0.0,0.0,0.0,0.0,0.0,0.0,0.0,0.0,0.0,0.0,0.0,0.0,0.0,0.0,0.0,0.0,0.0,0.0,0.0,0.0,0.0,0.0,0.0,0.0,0.0,0.0,0.0,0.0,0.0,0.0,0.0,0.0,0.0,0.0,0.0,0.0,0.0,0.0,0.0,2.4386,2.9346,3.3164,3.4073,3.4605,3.4787,3.4553,3.3683,3.1307,2.697,0.0,0.0,0.0,0.0,0.0,0.0,0.0,0.0,0.0,0.0,0.0,0.0,0.0,0.0,0.0,0.0,0.0,0.0,0.0,0.0,0.0,0.0,0.0,0.0,0.0,0.0,0.0,0.0,0.0,0.0,0.0,0.0,0.0,0.0,0.0,0.0,0.0,0.0,0.0,0.0,0.0,0.0,0.0,0.0,0.0,0.0,0.0,0.0,0.0,0.0,0.0,0.0,0.0,0.0,0.0,0.0,0.0,0.0,0.0,0.0,0.0,0.0,0.0,0.0,0.0,0.0,0.0,0.0,0.0,0.0,0.0,0.0,0.0,0.0,0.0,0.0,0.0,0.0,0.0,0.0,0.0,0.0,0.0,0.0,0.0,0.0,0.0,0.0,0.0,0.0,0.0,0.0,0.0,0.0,0.0,0.0,0.0,0.0,0.0,0.0,0.0,0.0,2.4349,2.8775,3.2411,3.3553,3.367,3.367,3.367,3.2631,2.9956,2.5204,0.0,0.0,0.0,0.0,0.0,0.0,0.0,0.0,0.0,0.0,0.0,0.0,0.0,0.0,0.0,0.0,0.0,0.0,0.0,0.0,0.0,0.0,0.0,0.0,0.0,0.0,0.0,0.0,0.0,0.0,0.0,0.0,0.0,0.0,0.0,0.0,0.0,0.0,0.0,0.0,0.0,0.0,0.0,0.0,0.0,0.0,0.0,0.0,0.0,0.0,0.0,0.0,0.0,0.0,0.0,0.0,0.0,0.0,0.0,0.0,0.0,0.0,0.0,0.0,0.0,0.0,0.0,0.0,0.0,0.0,0.0,0.0,0.0,0.0,0.0,0.0,0.0,0.0,0.0,0.0,0.0,0.0,0.0,0.0,0.0,0.0,0.0,0.0,0.0,0.0,0.0,0.0,0.0,0.0,0.0,0.0,0.0,0.0,0.0,0.0,0.0,0.0,2.3009,2.7593,3.1229,3.2372,3.2488,3.2488,3.2488,3.145,2.8593,0.0,0.0,0.0,0.0,0.0,0.0,0.0,0.0,0.0,0.0,0.0,0.0,0.0,0.0,0.0,0.0,0.0,0.0,0.0,0.0,0.0,0.0,0.0,0.0,0.0,0.0,0.0,0.0,0.0,0.0,0.0,0.0,0.0,0.0,0.0,0.0,0.0,0.0,0.0,0.0,0.0,0.0,0.0,0.0,0.0,0.0,0.0,0.0,0.0,0.0,0.0,0.0,0.0,0.0,0.0,0.0,0.0,0.0,0.0,0.0,0.0,0.0,0.0,0.0,0.0,0.0,0.0,0.0,0.0,0.0,0.0,0.0,0.0,0.0,0.0,0.0,0.0,0.0,0.0,0.0,0.0,0.0,0.0,0.0,0.0,0.0,0.0,0.0,0.0,0.0,0.0,0.0,0.0,0.0,0.0,0.0,0.0,0.0,0.0,0.0,0.0,0.0,0.0,2.1678,2.6576,3.0632,3.1774,3.2242,3.232,3.193,3.0852,2.8164,2.3373,0.0,0.0,0.0,0.0,0.0,0.0,0.0,0.0,0.0,0.0,0.0,0.0,0.0,0.0,0.0,0.0,0.0,0.0,0.0,0.0,0.0,0.0,0.0,0.0,0.0,0.0,0.0,0.0,0.0,0.0,0.0,0.0,0.0,0.0,0.0,0.0,0.0,0.0,0.0,0.0,0.0,0.0,0.0,0.0,0.0,0.0,0.0,0.0,0.0,0.0,0.0,0.0,0.0,0.0,0.0,0.0,0.0,0.0,0.0,0.0,0.0,0.0,0.0,0.0,0.0,0.0,0.0,0.0,0.0,0.0,0.0,0.0,0.0,0.0,0.0,0.0,0.0,0.0,0.0,0.0,0.0,0.0,0.0,0.0,0.0,0.0,0.0,0.0,0.0,0.0,0.0,0.0,0.0,0.0,0.0,0.0,0.0,0.0,0.0,0.0,0.0,0.0,0.0,2.5392,2.9242,3.0826,3.1502,3.1606,3.1047,3.0138,2.7479,2.2331,0.0,0.0,0.0,0.0,0.0,0.0,0.0,0.0,0.0,0.0,0.0,0.0,0.0,0.0,0.0,0.0,0.0,0.0,0.0,0.0,0.0,0.0,0.0,0.0,0.0,0.0,0.0,0.0,0.0,0.0,0.0,0.0,0.0,0.0,0.0,0.0,0.0,0.0,0.0,0.0,0.0,0.0,0.0,0.0,0.0,0.0,0.0,0.0,0.0,0.0,0.0,0.0,0.0,0.0,0.0,0.0,0.0,0.0,0.0,0.0,0.0,0.0,0.0,0.0,0.0,0.0,0.0,0.0,0.0,0.0,0.0,0.0,0.0,0.0,0.0,0.0,0.0,0.0,0.0,0.0,0.0,0.0,0.0,0.0,0.0,0.0,0.0,0.0,0.0,0.0,0.0,0.0,0.0,0.0,0.0,0.0,0.0,0.0,0.0,0.0,0.0,0.0,0.0,2.3708,2.7108,2.9328,3.0203,3.0306,2.979,2.9411,2.6612,2.0717,2.0378,0.0,0.0,0.0,0.0,0.0,0.0,0.0,0.0,0.0,0.0,0.0,0.0,0.0,0.0,0.0,0.0,0.0,0.0,0.0,0.0,0.0,0.0,0.0,0.0,0.0,0.0,0.0,0.0,0.0,0.0,0.0,0.0,0.0,0.0,0.0,0.0,0.0,0.0,0.0,0.0,0.0,0.0,0.0,0.0,0.0,0.0,0.0,0.0,0.0,0.0,0.0,0.0,0.0,0.0,0.0,0.0,0.0,0.0,0.0,0.0,0.0,0.0,0.0,0.0,0.0,0.0,0.0,0.0,0.0,0.0,0.0,0.0,0.0,0.0,0.0,0.0,0.0,0.0,0.0,0.0,0.0,0.0,0.0,0.0,0.0,0.0,0.0,0.0,0.0,0.0,0.0,0.0,0.0,0.0,0.0,0.0,0.0,0.0,0.0,0.0,0.0,0.0,2.2011,2.5107,2.6784,2.7271,2.7488,2.6972,2.8313,2.6963,2.2085,2.0225,0.0,0.0,0.0,0.0,0.0,0.0,0.0,0.0,0.0,0.0,0.0,0.0,0.0,0.0,0.0,0.0,0.0,0.0,0.0,0.0,0.0,0.0,0.0,0.0,0.0,0.0,0.0,0.0,0.0,0.0,0.0,0.0,0.0,0.0,0.0,0.0,0.0,0.0,0.0,0.0,0.0,0.0,0.0,0.0,0.0,0.0,0.0,0.0,0.0,0.0,0.0,0.0,0.0,0.0,0.0,0.0,0.0,0.0,0.0,0.0,0.0,0.0,0.0,0.0,0.0,0.0,0.0,0.0,0.0,0.0,0.0,0.0,0.0,0.0,0.0,0.0,0.0,0.0,0.0,0.0,0.0,0.0,0.0,0.0,0.0,0.0,0.0,0.0,0.0,0.0,0.0,0.0,0.0,0.0,0.0,0.0,0.0,0.0,0.0,0.0,0.0,0.0,1.8471,2.2425,2.6497,2.7568,2.7629,2.6997,2.8147,2.6229,2.02,1.7694,0.0,0.0,0.0,0.0,0.0,0.0,0.0,0.0,0.0,0.0,0.0,0.0,0.0,0.0,0.0,0.0,0.0,0.0,0.0,0.0,0.0,0.0,0.0,0.0,0.0,0.0,0.0,0.0,0.0,0.0,0.0,0.0,0.0,0.0,0.0,0.0,0.0,0.0,0.0,0.0,0.0,0.0,0.0,0.0,0.0,0.0,0.0,0.0,0.0,0.0,0.0,0.0,0.0,0.0,0.0,0.0,0.0,0.0,0.0,0.0,0.0,0.0,0.0,0.0,0.0,0.0,0.0,0.0,0.0,0.0,0.0,0.0,0.0,0.0,0.0,0.0,0.0,0.0,0.0,0.0,0.0,0.0,0.0,0.0,0.0,0.0,0.0,0.0,0.0,0.0,0.0,0.0,0.0,0.0,0.0,0.0,0.0,0.0,0.0,0.0,0.0,0.0,0.0,1.8933,2.5542,2.7045,2.7304,2.6578,2.6955,2.4286,1.743,0.0,0.0,0.0,0.0,0.0,0.0,0.0,0.0,0.0,0.0,0.0,0.0,0.0,0.0,0.0,0.0,0.0,0.0,0.0,0.0,0.0,0.0,0.0,0.0,0.0,0.0,0.0,0.0,0.0,0.0,0.0,0.0,0.0,0.0,0.0,0.0,0.0,0.0,0.0,0.0,0.0,0.0,0.0,0.0,0.0,0.0,0.0,0.0,0.0,0.0,0.0,0.0,0.0,0.0,0.0,0.0,0.0,0.0,0.0,0.0,0.0,0.0,0.0,0.0,0.0,0.0,0.0,0.0,0.0,0.0,0.0,0.0,0.0,0.0,0.0,0.0,0.0,0.0,0.0,0.0,0.0,0.0,0.0,0.0,0.0,0.0,0.0,0.0,0.0,0.0,0.0,0.0,0.0,0.0,0.0,0.0,0.0,0.0,0.0,0.0,0.0,0.0,0.0,0.0,1.464,1.7552,1.8964,1.9656,1.9086,2.1239,2.076,1.6443,0.0,0.0,0.0,0.0,0.0,0.0,0.0,0.0,0.0,0.0,0.0,0.0,0.0,0.0]}]]]